Wetterdaten: Montag, 28.08.2017
Datum Zeit Temp. A. Pool Temp. Feuchte A. Luftdruck Regen Wind Richtung Richtung Sonnenschein ET UV Solar Taupunkt Windchill Windben Empfang
28.08.2017 00:00 18,9 C 24,4 C 88 % 1016,1 hPa 0,0 l/m 2,6 km/h (1 Bft) S 172 0 min 0,000 mm 0,0 UV-I 0 W/m 16,9 C 18,9 C 4,8 km/h (1 Bft) 97,87 %
28.08.2017 00:02 18,9 C 24,4 C 88 % 1016,1 hPa 0,0 l/m 2,5 km/h (1 Bft) S 181 0 min 0,000 mm 0,0 UV-I 0 W/m 16,9 C 18,9 C 6,4 km/h (2 Bft) 100,00 %
28.08.2017 00:04 19,0 C 24,4 C 88 % 1016,1 hPa 0,0 l/m 4,2 km/h (1 Bft) S 169 0 min 0,000 mm 0,0 UV-I 0 W/m 17,0 C 19,0 C 6,4 km/h (2 Bft) 100,00 %
28.08.2017 00:06 19,1 C 24,4 C 87 % 1016,1 hPa 0,0 l/m 3,4 km/h (1 Bft) S 186 0 min 0,000 mm 0,0 UV-I 0 W/m 16,9 C 19,1 C 6,4 km/h (2 Bft) 98,00 %
28.08.2017 00:08 19,1 C 24,4 C 87 % 1016,1 hPa 0,0 l/m 4,2 km/h (1 Bft) S-SW 206 0 min 0,000 mm 0,0 UV-I 0 W/m 16,9 C 19,1 C 9,7 km/h (2 Bft) 98,11 %
28.08.2017 00:10 19,2 C 24,4 C 87 % 1016,1 hPa 0,0 l/m 2,2 km/h (1 Bft) S-SW 200 0 min 0,000 mm 0,0 UV-I 0 W/m 17,0 C 19,2 C 4,8 km/h (1 Bft) 97,87 %
28.08.2017 00:12 19,2 C 24,4 C 87 % 1016,2 hPa 0,0 l/m 3,1 km/h (1 Bft) S-SW 201 0 min 0,000 mm 0,0 UV-I 0 W/m 17,0 C 19,2 C 4,8 km/h (1 Bft) 95,74 %
28.08.2017 00:14 19,2 C 24,4 C 87 % 1016,1 hPa 0,0 l/m 3,5 km/h (1 Bft) SW 219 0 min 0,000 mm 0,0 UV-I 0 W/m 17,0 C 19,2 C 6,4 km/h (2 Bft) 97,14 %
28.08.2017 00:16 19,3 C 24,4 C 87 % 1016,2 hPa 0,0 l/m 4,6 km/h (1 Bft) SW 217 0 min 0,000 mm 0,0 UV-I 0 W/m 17,1 C 19,3 C 6,4 km/h (2 Bft) 96,23 %
28.08.2017 00:18 19,2 C 24,4 C 87 % 1016,3 hPa 0,0 l/m 7,1 km/h (2 Bft) S-SW 212 0 min 0,000 mm 0,0 UV-I 0 W/m 17,0 C 18,9 C 11,3 km/h (2 Bft) 97,87 %
28.08.2017 00:20 19,2 C 24,4 C 87 % 1016,2 hPa 0,4 l/m 5,1 km/h (1 Bft) S-SW 195 0 min 0,000 mm 0,0 UV-I 0 W/m 17,0 C 19,2 C 9,7 km/h (2 Bft) 97,37 %
28.08.2017 00:22 19,2 C 24,4 C 88 % 1016,2 hPa 0,4 l/m 5,1 km/h (1 Bft) S-SO 163 0 min 0,000 mm 0,0 UV-I 0 W/m 17,2 C 19,2 C 8,0 km/h (2 Bft) 96,43 %
28.08.2017 00:24 19,1 C 24,4 C 88 % 1016,1 hPa 0,0 l/m 3,4 km/h (1 Bft) S 183 0 min 0,000 mm 0,0 UV-I 0 W/m 17,1 C 19,1 C 6,4 km/h (2 Bft) 98,00 %
28.08.2017 00:26 19,0 C 24,4 C 88 % 1016,2 hPa 0,0 l/m 4,0 km/h (1 Bft) S 184 0 min 0,000 mm 0,0 UV-I 0 W/m 17,0 C 19,0 C 9,7 km/h (2 Bft) 97,14 %
28.08.2017 00:28 18,9 C 24,4 C 89 % 1016,3 hPa 0,0 l/m 4,6 km/h (1 Bft) S-SW 198 0 min 0,000 mm 0,0 UV-I 0 W/m 17,0 C 18,9 C 8,0 km/h (2 Bft) 98,31 %
28.08.2017 00:30 18,9 C 24,4 C 89 % 1016,3 hPa 0,0 l/m 2,7 km/h (1 Bft) S-SW 196 0 min 0,000 mm 0,0 UV-I 0 W/m 17,0 C 18,9 C 8,0 km/h (2 Bft) 97,73 %
28.08.2017 00:32 18,9 C 24,4 C 89 % 1016,3 hPa 0,0 l/m 3,8 km/h (1 Bft) S-SW 199 0 min 0,000 mm 0,0 UV-I 0 W/m 17,0 C 18,9 C 6,4 km/h (2 Bft) 97,44 %
28.08.2017 00:34 18,8 C 24,4 C 89 % 1016,3 hPa 0,0 l/m 3,1 km/h (1 Bft) S-SW 199 0 min 0,000 mm 0,0 UV-I 0 W/m 16,9 C 18,8 C 4,8 km/h (1 Bft) 98,18 %
28.08.2017 00:36 18,8 C 24,4 C 89 % 1016,3 hPa 0,0 l/m 3,5 km/h (1 Bft) S-SW 199 0 min 0,000 mm 0,0 UV-I 0 W/m 16,9 C 18,8 C 6,4 km/h (2 Bft) 95,83 %
28.08.2017 00:38 18,8 C 24,4 C 89 % 1016,3 hPa 0,0 l/m 2,4 km/h (1 Bft) S-SW 199 0 min 0,000 mm 0,0 UV-I 0 W/m 16,9 C 18,8 C 3,2 km/h (1 Bft) 96,00 %
28.08.2017 00:40 18,8 C 24,4 C 89 % 1016,3 hPa 0,0 l/m 0,4 km/h (0 Bft) S-SW 199 0 min 0,000 mm 0,0 UV-I 0 W/m 16,9 C 18,8 C 3,2 km/h (1 Bft) 97,37 %
28.08.2017 00:42 18,8 C 24,4 C 90 % 1016,3 hPa 0,0 l/m 0,0 km/h (0 Bft) S-SW 199 0 min 0,000 mm 0,0 UV-I 0 W/m 17,1 C 18,8 C 0,0 km/h (0 Bft) 95,74 %
28.08.2017 00:44 18,8 C 24,4 C 90 % 1016,4 hPa 0,0 l/m 0,1 km/h (0 Bft) S-SW 199 0 min 0,000 mm 0,0 UV-I 0 W/m 17,1 C 18,8 C 1,6 km/h (1 Bft) 100,00 %
28.08.2017 00:46 18,8 C 24,4 C 90 % 1016,3 hPa 0,0 l/m 0,0 km/h (0 Bft) S-SW 199 0 min 0,000 mm 0,0 UV-I 0 W/m 17,1 C 18,8 C 0,0 km/h (0 Bft) 100,00 %
28.08.2017 00:48 18,8 C 24,4 C 90 % 1016,3 hPa 0,0 l/m 0,0 km/h (0 Bft) S-SW 199 0 min 0,000 mm 0,0 UV-I 0 W/m 17,1 C 18,8 C 0,0 km/h (0 Bft) 98,00 %
28.08.2017 00:50 18,8 C 24,4 C 90 % 1016,3 hPa 0,2 l/m 0,0 km/h (0 Bft) S-SW 199 0 min 0,000 mm 0,0 UV-I 0 W/m 17,1 C 18,8 C 0,0 km/h (0 Bft) 98,00 %
28.08.2017 00:52 18,8 C 24,4 C 90 % 1016,4 hPa 0,0 l/m 0,0 km/h (0 Bft) S-SW 199 0 min 0,000 mm 0,0 UV-I 0 W/m 17,1 C 18,8 C 0,0 km/h (0 Bft) 100,00 %
28.08.2017 00:54 18,8 C 24,4 C 91 % 1016,4 hPa 0,0 l/m 0,0 km/h (0 Bft) S-SW 199 0 min 0,000 mm 0,0 UV-I 0 W/m 17,3 C 18,8 C 0,0 km/h (0 Bft) 98,00 %
28.08.2017 00:56 18,8 C 24,4 C 91 % 1016,4 hPa 0,0 l/m 0,1 km/h (0 Bft) S-SW 199 0 min 0,000 mm 0,0 UV-I 0 W/m 17,3 C 18,8 C 1,6 km/h (1 Bft) 97,87 %
28.08.2017 00:58 18,8 C 24,4 C 91 % 1016,4 hPa 0,0 l/m 0,8 km/h (0 Bft) S-SW 199 0 min 0,000 mm 0,0 UV-I 0 W/m 17,3 C 18,8 C 1,6 km/h (1 Bft) 100,00 %
28.08.2017 01:00 18,7 C 24,4 C 91 % 1016,3 hPa 0,0 l/m 0,3 km/h (0 Bft) S-SW 199 0 min 0,000 mm 0,0 UV-I 0 W/m 17,2 C 18,7 C 1,6 km/h (1 Bft) 100,00 %
28.08.2017 01:01 18,6 C 24,4 C 91 % 1016,3 hPa 0,0 l/m 0,2 km/h (0 Bft) S-SW 199 0 min 0,000 mm 0,0 UV-I 0 W/m 17,1 C 18,6 C 1,6 km/h (1 Bft) 100,00 %
28.08.2017 01:04 18,6 C 24,4 C 92 % 1016,3 hPa 0,0 l/m 0,4 km/h (0 Bft) S-SW 199 0 min 0,000 mm 0,0 UV-I 0 W/m 17,3 C 18,6 C 1,6 km/h (1 Bft) 98,00 %
28.08.2017 01:06 18,6 C 24,4 C 92 % 1016,3 hPa 0,0 l/m 1,0 km/h (0 Bft) S-SW 199 0 min 0,000 mm 0,0 UV-I 0 W/m 17,3 C 18,6 C 3,2 km/h (1 Bft) 100,00 %
28.08.2017 01:08 18,5 C 24,4 C 92 % 1016,3 hPa 0,0 l/m 0,0 km/h (0 Bft) S-SW 199 0 min 0,000 mm 0,0 UV-I 0 W/m 17,2 C 18,5 C 0,0 km/h (0 Bft) 100,00 %
28.08.2017 01:10 18,6 C 24,4 C 92 % 1016,4 hPa 0,0 l/m 0,7 km/h (0 Bft) S-SW 199 0 min 0,000 mm 0,0 UV-I 0 W/m 17,3 C 18,6 C 3,2 km/h (1 Bft) 100,00 %
28.08.2017 01:12 18,6 C 24,4 C 92 % 1016,4 hPa 0,0 l/m 0,7 km/h (0 Bft) S-SW 199 0 min 0,000 mm 0,0 UV-I 0 W/m 17,3 C 18,6 C 1,6 km/h (1 Bft) 100,00 %
28.08.2017 01:14 18,6 C 24,4 C 93 % 1016,3 hPa 0,4 l/m 0,0 km/h (0 Bft) S-SW 199 0 min 0,000 mm 0,0 UV-I 0 W/m 17,4 C 18,6 C 0,0 km/h (0 Bft) 100,00 %
28.08.2017 01:16 18,6 C 24,4 C 93 % 1016,2 hPa 0,4 l/m 2,6 km/h (1 Bft) S-SO 150 0 min 0,000 mm 0,0 UV-I 0 W/m 17,4 C 18,6 C 6,4 km/h (2 Bft) 100,00 %
28.08.2017 01:18 18,6 C 24,4 C 93 % 1016,2 hPa 0,4 l/m 2,6 km/h (1 Bft) S-SO 150 0 min 0,000 mm 0,0 UV-I 0 W/m 17,4 C 18,6 C 4,8 km/h (1 Bft) 98,21 %
28.08.2017 01:20 18,5 C 24,4 C 93 % 1016,2 hPa 0,0 l/m 2,0 km/h (1 Bft) S-SO 150 0 min 0,000 mm 0,0 UV-I 0 W/m 17,3 C 18,5 C 4,8 km/h (1 Bft) 100,00 %
28.08.2017 01:22 18,4 C 24,4 C 93 % 1016,1 hPa 0,2 l/m 0,2 km/h (0 Bft) S-SO 150 0 min 0,000 mm 0,0 UV-I 0 W/m 17,2 C 18,4 C 1,6 km/h (1 Bft) 100,00 %
28.08.2017 01:24 18,4 C 24,4 C 93 % 1016,1 hPa 0,2 l/m 2,4 km/h (1 Bft) S-SO 150 0 min 0,000 mm 0,0 UV-I 0 W/m 17,2 C 18,4 C 4,8 km/h (1 Bft) 100,00 %
28.08.2017 01:26 18,3 C 24,4 C 93 % 1016,1 hPa 0,0 l/m 0,6 km/h (0 Bft) S-SO 150 0 min 0,000 mm 0,0 UV-I 0 W/m 17,1 C 18,3 C 3,2 km/h (1 Bft) 100,00 %
28.08.2017 01:28 18,3 C 24,4 C 93 % 1016,2 hPa 0,2 l/m 0,3 km/h (0 Bft) S-SO 150 0 min 0,000 mm 0,0 UV-I 0 W/m 17,1 C 18,3 C 3,2 km/h (1 Bft) 100,00 %
28.08.2017 01:30 18,3 C 24,4 C 93 % 1016,1 hPa 0,0 l/m 0,8 km/h (0 Bft) S-SO 150 0 min 0,000 mm 0,0 UV-I 0 W/m 17,1 C 18,3 C 3,2 km/h (1 Bft) 97,56 %
28.08.2017 01:32 18,2 C 24,4 C 93 % 1016,1 hPa 0,0 l/m 0,7 km/h (0 Bft) S-SO 150 0 min 0,000 mm 0,0 UV-I 0 W/m 17,0 C 18,2 C 3,2 km/h (1 Bft) 100,00 %
28.08.2017 01:34 18,2 C 24,4 C 93 % 1016,1 hPa 0,0 l/m 0,1 km/h (0 Bft) S-SO 150 0 min 0,000 mm 0,0 UV-I 0 W/m 17,0 C 18,2 C 1,6 km/h (1 Bft) 100,00 %
28.08.2017 01:36 18,2 C 24,4 C 93 % 1016,1 hPa 0,0 l/m 0,2 km/h (0 Bft) S-SO 150 0 min 0,000 mm 0,0 UV-I 0 W/m 17,0 C 18,2 C 1,6 km/h (1 Bft) 100,00 %
28.08.2017 01:38 18,1 C 24,4 C 93 % 1016,1 hPa 0,0 l/m 0,7 km/h (0 Bft) S-SO 150 0 min 0,000 mm 0,0 UV-I 0 W/m 16,9 C 18,1 C 1,6 km/h (1 Bft) 97,87 %
28.08.2017 01:40 18,1 C 24,4 C 93 % 1016,2 hPa 0,0 l/m 1,0 km/h (0 Bft) S-SO 150 0 min 0,000 mm 0,0 UV-I 0 W/m 16,9 C 18,1 C 3,2 km/h (1 Bft) 98,00 %
28.08.2017 01:42 18,1 C 24,4 C 93 % 1016,2 hPa 0,0 l/m 2,8 km/h (1 Bft) S-SO 150 0 min 0,000 mm 0,0 UV-I 0 W/m 16,9 C 18,1 C 4,8 km/h (1 Bft) 100,00 %
28.08.2017 01:44 18,2 C 24,4 C 93 % 1016,1 hPa 0,0 l/m 2,2 km/h (1 Bft) S-SO 150 0 min 0,000 mm 0,0 UV-I 0 W/m 17,0 C 18,2 C 3,2 km/h (1 Bft) 100,00 %
28.08.2017 01:46 18,1 C 24,4 C 93 % 1016,0 hPa 0,0 l/m 1,4 km/h (1 Bft) S-SO 150 0 min 0,000 mm 0,0 UV-I 0 W/m 16,9 C 18,1 C 3,2 km/h (1 Bft) 100,00 %
28.08.2017 01:48 18,1 C 24,4 C 93 % 1016,0 hPa 0,0 l/m 1,7 km/h (1 Bft) S-SO 150 0 min 0,000 mm 0,0 UV-I 0 W/m 16,9 C 18,1 C 4,8 km/h (1 Bft) 97,78 %
28.08.2017 01:50 18,1 C 24,4 C 93 % 1016,1 hPa 0,0 l/m 1,6 km/h (1 Bft) S-SO 150 0 min 0,000 mm 0,0 UV-I 0 W/m 16,9 C 18,1 C 4,8 km/h (1 Bft) 98,00 %
28.08.2017 01:52 18,1 C 24,4 C 93 % 1016,1 hPa 0,0 l/m 3,0 km/h (1 Bft) S 181 0 min 0,000 mm 0,0 UV-I 0 W/m 16,9 C 18,1 C 4,8 km/h (1 Bft) 96,15 %
28.08.2017 01:54 18,1 C 24,4 C 93 % 1016,1 hPa 0,0 l/m 0,1 km/h (0 Bft) S 181 0 min 0,000 mm 0,0 UV-I 0 W/m 16,9 C 18,1 C 1,6 km/h (1 Bft) 95,74 %
28.08.2017 01:56 18,1 C 24,4 C 93 % 1016,1 hPa 0,0 l/m 0,3 km/h (0 Bft) S 181 0 min 0,000 mm 0,0 UV-I 0 W/m 16,9 C 18,1 C 1,6 km/h (1 Bft) 97,92 %
28.08.2017 01:58 18,1 C 24,4 C 93 % 1016,1 hPa 0,0 l/m 0,8 km/h (0 Bft) S 181 0 min 0,000 mm 0,0 UV-I 0 W/m 16,9 C 18,1 C 3,2 km/h (1 Bft) 100,00 %
28.08.2017 02:00 18,1 C 24,4 C 93 % 1016,2 hPa 0,0 l/m 1,2 km/h (1 Bft) S 187 0 min 0,000 mm 0,0 UV-I 0 W/m 16,9 C 18,1 C 3,2 km/h (1 Bft) 97,56 %
28.08.2017 02:02 18,2 C 24,4 C 93 % 1016,1 hPa 0,0 l/m 0,1 km/h (0 Bft) S 187 0 min 0,000 mm 0,0 UV-I 0 W/m 17,0 C 18,2 C 1,6 km/h (1 Bft) 98,00 %
28.08.2017 02:04 18,2 C 24,4 C 94 % 1016,1 hPa 0,0 l/m 0,8 km/h (0 Bft) S 187 0 min 0,000 mm 0,0 UV-I 0 W/m 17,2 C 18,2 C 1,6 km/h (1 Bft) 94,00 %
28.08.2017 02:06 18,2 C 24,4 C 94 % 1016,1 hPa 0,0 l/m 0,9 km/h (0 Bft) S 187 0 min 0,000 mm 0,0 UV-I 0 W/m 17,2 C 18,2 C 1,6 km/h (1 Bft) 97,87 %
28.08.2017 02:08 18,2 C 24,4 C 94 % 1016,1 hPa 0,0 l/m 1,3 km/h (1 Bft) S 187 0 min 0,000 mm 0,0 UV-I 0 W/m 17,2 C 18,2 C 3,2 km/h (1 Bft) 95,74 %
28.08.2017 02:10 18,2 C 24,4 C 94 % 1016,2 hPa 0,0 l/m 0,7 km/h (0 Bft) S 187 0 min 0,000 mm 0,0 UV-I 0 W/m 17,2 C 18,2 C 3,2 km/h (1 Bft) 95,74 %
28.08.2017 02:12 18,2 C 24,4 C 94 % 1016,1 hPa 0,0 l/m 1,2 km/h (1 Bft) S 187 0 min 0,000 mm 0,0 UV-I 0 W/m 17,2 C 18,2 C 3,2 km/h (1 Bft) 94,29 %
28.08.2017 02:14 18,2 C 24,4 C 94 % 1016,2 hPa 0,0 l/m 0,7 km/h (0 Bft) S 187 0 min 0,000 mm 0,0 UV-I 0 W/m 17,2 C 18,2 C 1,6 km/h (1 Bft) 94,00 %
28.08.2017 02:16 18,1 C 24,4 C 94 % 1016,2 hPa 0,0 l/m 0,6 km/h (0 Bft) S 187 0 min 0,000 mm 0,0 UV-I 0 W/m 17,1 C 18,1 C 1,6 km/h (1 Bft) 96,00 %
28.08.2017 02:18 18,1 C 24,4 C 94 % 1016,3 hPa 0,0 l/m 0,7 km/h (0 Bft) S 187 0 min 0,000 mm 0,0 UV-I 0 W/m 17,1 C 18,1 C 1,6 km/h (1 Bft) 94,74 %
28.08.2017 02:20 18,1 C 24,4 C 94 % 1016,3 hPa 0,0 l/m 0,5 km/h (0 Bft) S 187 0 min 0,000 mm 0,0 UV-I 0 W/m 17,1 C 18,1 C 1,6 km/h (1 Bft) 96,23 %
28.08.2017 02:22 18,0 C 24,4 C 94 % 1016,3 hPa 0,0 l/m 0,3 km/h (0 Bft) S 187 0 min 0,000 mm 0,0 UV-I 0 W/m 17,0 C 18,0 C 1,6 km/h (1 Bft) 94,00 %
28.08.2017 02:24 18,0 C 24,4 C 94 % 1016,3 hPa 0,0 l/m 0,5 km/h (0 Bft) S 187 0 min 0,000 mm 0,0 UV-I 0 W/m 17,0 C 18,0 C 1,6 km/h (1 Bft) 95,74 %
28.08.2017 02:26 18,0 C 24,4 C 94 % 1016,3 hPa 0,0 l/m 1,2 km/h (1 Bft) S 187 0 min 0,000 mm 0,0 UV-I 0 W/m 17,0 C 18,0 C 3,2 km/h (1 Bft) 96,00 %
28.08.2017 02:28 18,1 C 24,4 C 94 % 1016,3 hPa 0,0 l/m 1,2 km/h (1 Bft) S 187 0 min 0,000 mm 0,0 UV-I 0 W/m 17,1 C 18,1 C 3,2 km/h (1 Bft) 88,89 %
28.08.2017 02:30 18,1 C 24,4 C 94 % 1016,3 hPa 0,0 l/m 0,3 km/h (0 Bft) S 187 0 min 0,000 mm 0,0 UV-I 0 W/m 17,1 C 18,1 C 1,6 km/h (1 Bft) 94,34 %
28.08.2017 02:32 18,0 C 24,4 C 94 % 1016,3 hPa 0,0 l/m 0,2 km/h (0 Bft) S 187 0 min 0,000 mm 0,0 UV-I 0 W/m 17,0 C 18,0 C 1,6 km/h (1 Bft) 95,56 %
28.08.2017 02:34 18,1 C 24,4 C 94 % 1016,3 hPa 0,0 l/m 1,4 km/h (1 Bft) S 187 0 min 0,000 mm 0,0 UV-I 0 W/m 17,1 C 18,1 C 3,2 km/h (1 Bft) 96,00 %
28.08.2017 02:36 18,1 C 24,4 C 94 % 1016,3 hPa 0,0 l/m 1,6 km/h (1 Bft) S 187 0 min 0,000 mm 0,0 UV-I 0 W/m 17,1 C 18,1 C 3,2 km/h (1 Bft) 94,74 %
28.08.2017 02:38 18,1 C 24,4 C 94 % 1016,2 hPa 0,0 l/m 0,8 km/h (0 Bft) S 187 0 min 0,000 mm 0,0 UV-I 0 W/m 17,1 C 18,1 C 3,2 km/h (1 Bft) 94,34 %
28.08.2017 02:40 18,1 C 24,4 C 94 % 1016,2 hPa 0,0 l/m 0,0 km/h (0 Bft) S 187 0 min 0,000 mm 0,0 UV-I 0 W/m 17,1 C 18,1 C 0,0 km/h (0 Bft) 92,00 %
28.08.2017 02:42 18,1 C 24,4 C 93 % 1016,2 hPa 0,0 l/m 0,0 km/h (0 Bft) S 187 0 min 0,000 mm 0,0 UV-I 0 W/m 16,9 C 18,1 C 0,0 km/h (0 Bft) 96,00 %
28.08.2017 02:44 18,1 C 24,4 C 93 % 1016,2 hPa 0,0 l/m 1,3 km/h (1 Bft) S 187 0 min 0,000 mm 0,0 UV-I 0 W/m 16,9 C 18,1 C 3,2 km/h (1 Bft) 97,37 %
28.08.2017 02:46 18,1 C 24,4 C 94 % 1016,2 hPa 0,0 l/m 2,8 km/h (1 Bft) S 187 0 min 0,000 mm 0,0 UV-I 0 W/m 17,1 C 18,1 C 4,8 km/h (1 Bft) 96,23 %
28.08.2017 02:48 18,1 C 24,4 C 94 % 1016,2 hPa 0,0 l/m 2,8 km/h (1 Bft) S 187 0 min 0,000 mm 0,0 UV-I 0 W/m 17,1 C 18,1 C 4,8 km/h (1 Bft) 97,87 %
28.08.2017 02:50 18,1 C 24,4 C 94 % 1016,2 hPa 0,0 l/m 2,5 km/h (1 Bft) S 187 0 min 0,000 mm 0,0 UV-I 0 W/m 17,1 C 18,1 C 6,4 km/h (2 Bft) 97,87 %
28.08.2017 02:52 18,1 C 24,4 C 94 % 1016,3 hPa 0,0 l/m 3,6 km/h (1 Bft) S 187 0 min 0,000 mm 0,0 UV-I 0 W/m 17,1 C 18,1 C 6,4 km/h (2 Bft) 96,00 %
28.08.2017 02:54 18,1 C 24,4 C 94 % 1016,3 hPa 0,0 l/m 2,9 km/h (1 Bft) S 187 0 min 0,000 mm 0,0 UV-I 0 W/m 17,1 C 18,1 C 6,4 km/h (2 Bft) 100,00 %
28.08.2017 02:56 18,1 C 24,4 C 94 % 1016,2 hPa 0,0 l/m 0,5 km/h (0 Bft) S 187 0 min 0,000 mm 0,0 UV-I 0 W/m 17,1 C 18,1 C 1,6 km/h (1 Bft) 100,00 %
28.08.2017 02:58 18,1 C 24,4 C 94 % 1016,2 hPa 0,0 l/m 2,1 km/h (1 Bft) S 187 0 min 0,000 mm 0,0 UV-I 0 W/m 17,1 C 18,1 C 4,8 km/h (1 Bft) 100,00 %
28.08.2017 03:00 18,1 C 24,4 C 94 % 1016,2 hPa 0,0 l/m 1,6 km/h (1 Bft) S 187 0 min 0,000 mm 0,0 UV-I 0 W/m 17,1 C 18,1 C 6,4 km/h (2 Bft) 100,00 %
28.08.2017 03:02 18,0 C 24,4 C 94 % 1016,2 hPa 0,0 l/m 0,7 km/h (0 Bft) S 187 0 min 0,000 mm 0,0 UV-I 0 W/m 17,0 C 18,0 C 3,2 km/h (1 Bft) 100,00 %
28.08.2017 03:04 18,0 C 24,4 C 94 % 1016,2 hPa 0,0 l/m 1,7 km/h (1 Bft) S 187 0 min 0,000 mm 0,0 UV-I 0 W/m 17,0 C 18,0 C 3,2 km/h (1 Bft) 97,87 %
28.08.2017 03:06 18,0 C 24,4 C 94 % 1016,2 hPa 0,0 l/m 2,9 km/h (1 Bft) S 187 0 min 0,000 mm 0,0 UV-I 0 W/m 17,0 C 18,0 C 6,4 km/h (2 Bft) 98,00 %
28.08.2017 03:08 17,9 C 24,4 C 94 % 1016,2 hPa 0,0 l/m 1,8 km/h (1 Bft) S 187 0 min 0,000 mm 0,0 UV-I 0 W/m 16,9 C 17,9 C 3,2 km/h (1 Bft) 100,00 %
28.08.2017 03:10 17,9 C 24,4 C 94 % 1016,2 hPa 0,0 l/m 3,1 km/h (1 Bft) S 188 0 min 0,000 mm 0,0 UV-I 0 W/m 16,9 C 17,9 C 4,8 km/h (1 Bft) 100,00 %
28.08.2017 03:12 17,9 C 24,4 C 94 % 1016,2 hPa 0,0 l/m 2,7 km/h (1 Bft) S 188 0 min 0,000 mm 0,0 UV-I 0 W/m 16,9 C 17,9 C 4,8 km/h (1 Bft) 100,00 %
28.08.2017 03:14 17,9 C 24,4 C 94 % 1016,2 hPa 0,0 l/m 1,1 km/h (1 Bft) S 188 0 min 0,000 mm 0,0 UV-I 0 W/m 16,9 C 17,9 C 3,2 km/h (1 Bft) 100,00 %
28.08.2017 03:16 17,9 C 24,4 C 94 % 1016,2 hPa 0,0 l/m 0,1 km/h (0 Bft) S 188 0 min 0,000 mm 0,0 UV-I 0 W/m 16,9 C 17,9 C 1,6 km/h (1 Bft) 100,00 %
28.08.2017 03:18 17,9 C 24,4 C 94 % 1016,1 hPa 0,0 l/m 0,7 km/h (0 Bft) S 188 0 min 0,000 mm 0,0 UV-I 0 W/m 16,9 C 17,9 C 3,2 km/h (1 Bft) 100,00 %
28.08.2017 03:20 17,9 C 24,4 C 94 % 1016,1 hPa 0,0 l/m 0,5 km/h (0 Bft) S 188 0 min 0,000 mm 0,0 UV-I 0 W/m 16,9 C 17,9 C 1,6 km/h (1 Bft) 97,87 %
28.08.2017 03:22 18,0 C 24,4 C 94 % 1016,2 hPa 0,0 l/m 0,7 km/h (0 Bft) S 188 0 min 0,000 mm 0,0 UV-I 0 W/m 17,0 C 18,0 C 1,6 km/h (1 Bft) 100,00 %
28.08.2017 03:24 18,0 C 24,4 C 94 % 1016,2 hPa 0,0 l/m 1,0 km/h (0 Bft) S 188 0 min 0,000 mm 0,0 UV-I 0 W/m 17,0 C 18,0 C 3,2 km/h (1 Bft) 100,00 %
28.08.2017 03:26 18,0 C 24,4 C 94 % 1016,2 hPa 0,0 l/m 0,6 km/h (0 Bft) S 188 0 min 0,000 mm 0,0 UV-I 0 W/m 17,0 C 18,0 C 3,2 km/h (1 Bft) 100,00 %
28.08.2017 03:28 18,0 C 24,4 C 94 % 1016,2 hPa 0,0 l/m 1,2 km/h (1 Bft) S 188 0 min 0,000 mm 0,0 UV-I 0 W/m 17,0 C 18,0 C 3,2 km/h (1 Bft) 100,00 %
28.08.2017 03:30 18,0 C 24,4 C 94 % 1016,2 hPa 0,0 l/m 1,7 km/h (1 Bft) S 188 0 min 0,000 mm 0,0 UV-I 0 W/m 17,0 C 18,0 C 3,2 km/h (1 Bft) 100,00 %
28.08.2017 03:32 18,0 C 24,4 C 94 % 1016,1 hPa 0,0 l/m 1,9 km/h (1 Bft) S 188 0 min 0,000 mm 0,0 UV-I 0 W/m 17,0 C 18,0 C 4,8 km/h (1 Bft) 100,00 %
28.08.2017 03:34 17,9 C 24,4 C 94 % 1016,1 hPa 0,0 l/m 1,4 km/h (1 Bft) S 188 0 min 0,000 mm 0,0 UV-I 0 W/m 16,9 C 17,9 C 3,2 km/h (1 Bft) 100,00 %
28.08.2017 03:36 17,9 C 24,4 C 94 % 1016,1 hPa 0,0 l/m 0,5 km/h (0 Bft) S 188 0 min 0,000 mm 0,0 UV-I 0 W/m 16,9 C 17,9 C 3,2 km/h (1 Bft) 97,37 %
28.08.2017 03:38 17,9 C 24,4 C 94 % 1016,1 hPa 0,0 l/m 1,2 km/h (1 Bft) S 188 0 min 0,000 mm 0,0 UV-I 0 W/m 16,9 C 17,9 C 3,2 km/h (1 Bft) 100,00 %
28.08.2017 03:40 17,9 C 24,4 C 94 % 1016,1 hPa 0,0 l/m 2,0 km/h (1 Bft) S 188 0 min 0,000 mm 0,0 UV-I 0 W/m 16,9 C 17,9 C 4,8 km/h (1 Bft) 98,11 %
28.08.2017 03:42 17,9 C 24,4 C 94 % 1016,1 hPa 0,0 l/m 1,3 km/h (1 Bft) S 188 0 min 0,000 mm 0,0 UV-I 0 W/m 16,9 C 17,9 C 4,8 km/h (1 Bft) 100,00 %
28.08.2017 03:44 17,9 C 24,4 C 94 % 1016,1 hPa 0,0 l/m 1,9 km/h (1 Bft) S 188 0 min 0,000 mm 0,0 UV-I 0 W/m 16,9 C 17,9 C 4,8 km/h (1 Bft) 100,00 %
28.08.2017 03:46 17,8 C 24,4 C 94 % 1016,1 hPa 0,0 l/m 1,5 km/h (1 Bft) S 188 0 min 0,000 mm 0,0 UV-I 0 W/m 16,8 C 17,8 C 4,8 km/h (1 Bft) 100,00 %
28.08.2017 03:48 17,8 C 24,4 C 94 % 1016,0 hPa 0,0 l/m 0,9 km/h (0 Bft) S 188 0 min 0,000 mm 0,0 UV-I 0 W/m 16,8 C 17,8 C 1,6 km/h (1 Bft) 97,44 %
28.08.2017 03:50 17,8 C 24,4 C 94 % 1016,1 hPa 0,0 l/m 1,0 km/h (0 Bft) S 188 0 min 0,000 mm 0,0 UV-I 0 W/m 16,8 C 17,8 C 3,2 km/h (1 Bft) 100,00 %
28.08.2017 03:52 17,8 C 24,4 C 94 % 1016,1 hPa 0,0 l/m 1,4 km/h (1 Bft) S 188 0 min 0,000 mm 0,0 UV-I 0 W/m 16,8 C 17,8 C 3,2 km/h (1 Bft) 100,00 %
28.08.2017 03:54 17,8 C 24,4 C 94 % 1016,1 hPa 0,0 l/m 1,3 km/h (1 Bft) S 188 0 min 0,000 mm 0,0 UV-I 0 W/m 16,8 C 17,8 C 3,2 km/h (1 Bft) 100,00 %
28.08.2017 03:56 17,8 C 24,4 C 94 % 1016,2 hPa 0,0 l/m 0,0 km/h (0 Bft) S 188 0 min 0,000 mm 0,0 UV-I 0 W/m 16,8 C 17,8 C 1,6 km/h (1 Bft) 100,00 %
28.08.2017 03:58 17,8 C 24,4 C 94 % 1016,2 hPa 0,0 l/m 0,2 km/h (0 Bft) S 188 0 min 0,000 mm 0,0 UV-I 0 W/m 16,8 C 17,8 C 1,6 km/h (1 Bft) 100,00 %
28.08.2017 04:00 17,8 C 24,4 C 94 % 1016,2 hPa 0,0 l/m 0,8 km/h (0 Bft) S 188 0 min 0,000 mm 0,0 UV-I 0 W/m 16,8 C 17,8 C 1,6 km/h (1 Bft) 100,00 %
28.08.2017 04:02 17,8 C 24,4 C 94 % 1016,2 hPa 0,0 l/m 0,0 km/h (0 Bft) S 188 0 min 0,000 mm 0,0 UV-I 0 W/m 16,8 C 17,8 C 1,6 km/h (1 Bft) 82,61 %
28.08.2017 04:04 17,8 C 24,4 C 94 % 1016,1 hPa 0,0 l/m 0,1 km/h (0 Bft) S 188 0 min 0,000 mm 0,0 UV-I 0 W/m 16,8 C 17,8 C 1,6 km/h (1 Bft) 100,00 %
28.08.2017 04:06 17,8 C 24,4 C 94 % 1016,2 hPa 0,0 l/m 0,1 km/h (0 Bft) S 188 0 min 0,000 mm 0,0 UV-I 0 W/m 16,8 C 17,8 C 1,6 km/h (1 Bft) 98,00 %
28.08.2017 04:08 17,8 C 24,4 C 94 % 1016,3 hPa 0,0 l/m 0,3 km/h (0 Bft) S 188 0 min 0,000 mm 0,0 UV-I 0 W/m 16,8 C 17,8 C 1,6 km/h (1 Bft) 98,00 %
28.08.2017 04:10 17,8 C 24,4 C 94 % 1016,3 hPa 0,0 l/m 0,0 km/h (0 Bft) S 188 0 min 0,000 mm 0,0 UV-I 0 W/m 16,8 C 17,8 C 1,6 km/h (1 Bft) 97,37 %
28.08.2017 04:12 17,9 C 24,4 C 95 % 1016,2 hPa 0,0 l/m 0,0 km/h (0 Bft) S 188 0 min 0,000 mm 0,0 UV-I 0 W/m 17,1 C 17,9 C 0,0 km/h (0 Bft) 98,00 %
28.08.2017 04:14 17,8 C 24,4 C 94 % 1016,3 hPa 0,0 l/m 0,6 km/h (0 Bft) S 188 0 min 0,000 mm 0,0 UV-I 0 W/m 16,8 C 17,8 C 1,6 km/h (1 Bft) 95,74 %
28.08.2017 04:16 17,8 C 24,4 C 94 % 1016,3 hPa 0,0 l/m 1,0 km/h (0 Bft) S 188 0 min 0,000 mm 0,0 UV-I 0 W/m 16,8 C 17,8 C 3,2 km/h (1 Bft) 98,00 %
28.08.2017 04:18 17,8 C 24,4 C 95 % 1016,3 hPa 0,0 l/m 1,1 km/h (1 Bft) S 188 0 min 0,000 mm 0,0 UV-I 0 W/m 17,0 C 17,8 C 3,2 km/h (1 Bft) 97,56 %
28.08.2017 04:20 17,8 C 24,4 C 95 % 1016,3 hPa 0,0 l/m 1,5 km/h (1 Bft) S 188 0 min 0,000 mm 0,0 UV-I 0 W/m 17,0 C 17,8 C 3,2 km/h (1 Bft) 94,00 %
28.08.2017 04:22 17,8 C 24,4 C 95 % 1016,3 hPa 0,0 l/m 1,3 km/h (1 Bft) S 188 0 min 0,000 mm 0,0 UV-I 0 W/m 17,0 C 17,8 C 3,2 km/h (1 Bft) 96,23 %
28.08.2017 04:24 17,8 C 24,4 C 95 % 1016,3 hPa 0,0 l/m 0,5 km/h (0 Bft) S 188 0 min 0,000 mm 0,0 UV-I 0 W/m 17,0 C 17,8 C 1,6 km/h (1 Bft) 100,00 %
28.08.2017 04:26 17,8 C 24,4 C 95 % 1016,3 hPa 0,0 l/m 0,4 km/h (0 Bft) S 188 0 min 0,000 mm 0,0 UV-I 0 W/m 17,0 C 17,8 C 1,6 km/h (1 Bft) 96,23 %
28.08.2017 04:28 17,8 C 24,4 C 95 % 1016,3 hPa 0,0 l/m 0,0 km/h (0 Bft) S 188 0 min 0,000 mm 0,0 UV-I 0 W/m 17,0 C 17,8 C 0,0 km/h (0 Bft) 97,62 %
28.08.2017 04:30 17,8 C 24,4 C 95 % 1016,3 hPa 0,0 l/m 0,0 km/h (0 Bft) S 188 0 min 0,000 mm 0,0 UV-I 0 W/m 17,0 C 17,8 C 0,0 km/h (0 Bft) 98,00 %
28.08.2017 04:32 17,8 C 24,4 C 94 % 1016,3 hPa 0,0 l/m 0,0 km/h (0 Bft) S 188 0 min 0,000 mm 0,0 UV-I 0 W/m 16,8 C 17,8 C 0,0 km/h (0 Bft) 97,56 %
28.08.2017 04:34 17,7 C 24,4 C 95 % 1016,2 hPa 0,0 l/m 0,0 km/h (0 Bft) S 188 0 min 0,000 mm 0,0 UV-I 0 W/m 16,9 C 17,7 C 0,0 km/h (0 Bft) 96,00 %
28.08.2017 04:36 17,7 C 24,4 C 95 % 1016,2 hPa 0,0 l/m 0,0 km/h (0 Bft) S 188 0 min 0,000 mm 0,0 UV-I 0 W/m 16,9 C 17,7 C 0,0 km/h (0 Bft) 98,00 %
28.08.2017 04:38 17,7 C 23,9 C 95 % 1016,2 hPa 0,0 l/m 0,0 km/h (0 Bft) S 188 0 min 0,000 mm 0,0 UV-I 0 W/m 16,9 C 17,7 C 0,0 km/h (0 Bft) 97,87 %
28.08.2017 04:40 17,7 C 24,4 C 95 % 1016,1 hPa 0,0 l/m 0,2 km/h (0 Bft) S 188 0 min 0,000 mm 0,0 UV-I 0 W/m 16,9 C 17,7 C 1,6 km/h (1 Bft) 98,00 %
28.08.2017 04:42 17,7 C 24,4 C 95 % 1016,1 hPa 0,0 l/m 2,8 km/h (1 Bft) S 188 0 min 0,000 mm 0,0 UV-I 0 W/m 16,9 C 17,7 C 3,2 km/h (1 Bft) 94,74 %
28.08.2017 04:44 17,7 C 24,4 C 95 % 1016,1 hPa 0,0 l/m 2,0 km/h (1 Bft) S 188 0 min 0,000 mm 0,0 UV-I 0 W/m 16,9 C 17,7 C 3,2 km/h (1 Bft) 100,00 %
28.08.2017 04:46 17,7 C 24,4 C 95 % 1016,1 hPa 0,0 l/m 0,5 km/h (0 Bft) S 188 0 min 0,000 mm 0,0 UV-I 0 W/m 16,9 C 17,7 C 1,6 km/h (1 Bft) 100,00 %
28.08.2017 04:48 17,6 C 24,4 C 95 % 1016,1 hPa 0,0 l/m 1,0 km/h (0 Bft) S 188 0 min 0,000 mm 0,0 UV-I 0 W/m 16,8 C 17,6 C 3,2 km/h (1 Bft) 100,00 %
28.08.2017 04:50 17,6 C 24,4 C 95 % 1016,1 hPa 0,0 l/m 4,2 km/h (1 Bft) NO 40 0 min 0,000 mm 0,0 UV-I 0 W/m 16,8 C 17,6 C 8,0 km/h (2 Bft) 100,00 %
28.08.2017 04:52 17,6 C 24,4 C 95 % 1016,0 hPa 0,0 l/m 5,0 km/h (1 Bft) NO 40 0 min 0,000 mm 0,0 UV-I 0 W/m 16,8 C 17,6 C 6,4 km/h (2 Bft) 98,00 %
28.08.2017 04:54 17,6 C 24,4 C 95 % 1015,9 hPa 0,0 l/m 4,6 km/h (1 Bft) NO 40 0 min 0,000 mm 0,0 UV-I 0 W/m 16,8 C 17,6 C 6,4 km/h (2 Bft) 100,00 %
28.08.2017 04:56 17,6 C 24,4 C 95 % 1015,9 hPa 0,0 l/m 5,7 km/h (1 Bft) N-NO 27 0 min 0,000 mm 0,0 UV-I 0 W/m 16,8 C 17,6 C 8,0 km/h (2 Bft) 100,00 %
28.08.2017 04:58 17,5 C 24,4 C 95 % 1015,9 hPa 0,0 l/m 5,8 km/h (2 Bft) NO 35 0 min 0,000 mm 0,0 UV-I 0 W/m 16,7 C 17,5 C 8,0 km/h (2 Bft) 100,00 %
28.08.2017 05:00 17,5 C 23,9 C 95 % 1015,8 hPa 0,0 l/m 4,9 km/h (1 Bft) NO 42 0 min 0,000 mm 0,0 UV-I 0 W/m 16,7 C 17,5 C 6,4 km/h (2 Bft) 100,00 %
28.08.2017 05:02 17,4 C 23,9 C 95 % 1015,8 hPa 0,0 l/m 4,1 km/h (1 Bft) NO 37 0 min 0,000 mm 0,0 UV-I 0 W/m 16,6 C 17,4 C 4,8 km/h (1 Bft) 100,00 %
28.08.2017 05:04 17,4 C 23,9 C 95 % 1015,8 hPa 0,0 l/m 3,1 km/h (1 Bft) NO 37 0 min 0,000 mm 0,0 UV-I 0 W/m 16,6 C 17,4 C 4,8 km/h (1 Bft) 98,00 %
28.08.2017 05:06 17,4 C 23,9 C 95 % 1015,9 hPa 0,0 l/m 1,5 km/h (1 Bft) NO 37 0 min 0,000 mm 0,0 UV-I 0 W/m 16,6 C 17,4 C 4,8 km/h (1 Bft) 97,44 %
28.08.2017 05:08 17,4 C 23,9 C 95 % 1016,2 hPa 0,0 l/m 0,0 km/h (0 Bft) NO 37 0 min 0,000 mm 0,0 UV-I 0 W/m 16,6 C 17,4 C 0,0 km/h (0 Bft) 100,00 %
28.08.2017 05:10 17,4 C 23,9 C 95 % 1016,2 hPa 0,0 l/m 0,3 km/h (0 Bft) NO 37 0 min 0,000 mm 0,0 UV-I 0 W/m 16,6 C 17,4 C 1,6 km/h (1 Bft) 100,00 %
28.08.2017 05:12 17,4 C 23,9 C 95 % 1015,9 hPa 0,0 l/m 1,8 km/h (1 Bft) NO 37 0 min 0,000 mm 0,0 UV-I 0 W/m 16,6 C 17,4 C 3,2 km/h (1 Bft) 100,00 %
28.08.2017 05:14 17,5 C 23,9 C 95 % 1015,9 hPa 0,0 l/m 2,6 km/h (1 Bft) NO 37 0 min 0,000 mm 0,0 UV-I 0 W/m 16,7 C 17,5 C 3,2 km/h (1 Bft) 100,00 %
28.08.2017 05:16 17,5 C 23,9 C 95 % 1015,9 hPa 0,0 l/m 2,5 km/h (1 Bft) NO 37 0 min 0,000 mm 0,0 UV-I 0 W/m 16,7 C 17,5 C 4,8 km/h (1 Bft) 100,00 %
28.08.2017 05:18 17,4 C 23,9 C 95 % 1015,9 hPa 0,0 l/m 3,6 km/h (1 Bft) O-NO 69 0 min 0,000 mm 0,0 UV-I 0 W/m 16,6 C 17,4 C 6,4 km/h (2 Bft) 97,56 %
28.08.2017 05:20 17,5 C 23,9 C 95 % 1016,1 hPa 0,0 l/m 2,5 km/h (1 Bft) O-NO 70 0 min 0,000 mm 0,0 UV-I 0 W/m 16,7 C 17,5 C 4,8 km/h (1 Bft) 100,00 %
28.08.2017 05:22 17,5 C 23,9 C 95 % 1016,3 hPa 0,0 l/m 0,7 km/h (0 Bft) O-NO 70 0 min 0,000 mm 0,0 UV-I 0 W/m 16,7 C 17,5 C 1,6 km/h (1 Bft) 98,46 %
28.08.2017 05:24 17,5 C 23,9 C 95 % 1016,3 hPa 0,0 l/m 0,1 km/h (0 Bft) O-NO 70 0 min 0,000 mm 0,0 UV-I 0 W/m 16,7 C 17,5 C 1,6 km/h (1 Bft) 100,00 %
28.08.2017 05:26 17,5 C 23,9 C 95 % 1016,2 hPa 0,0 l/m 0,0 km/h (0 Bft) O-NO 70 0 min 0,000 mm 0,0 UV-I 0 W/m 16,7 C 17,5 C 0,0 km/h (0 Bft) 98,11 %
28.08.2017 05:28 17,5 C 23,9 C 96 % 1016,1 hPa 0,2 l/m 0,0 km/h (0 Bft) O-NO 70 0 min 0,000 mm 0,0 UV-I 0 W/m 16,9 C 17,5 C 0,0 km/h (0 Bft) 97,56 %
28.08.2017 05:30 17,5 C 23,9 C 96 % 1016,2 hPa 0,0 l/m 1,2 km/h (1 Bft) S 181 0 min 0,000 mm 0,0 UV-I 0 W/m 16,9 C 17,5 C 4,8 km/h (1 Bft) 100,00 %
28.08.2017 05:32 17,5 C 23,9 C 96 % 1016,3 hPa 0,2 l/m 3,9 km/h (1 Bft) S-SW 213 0 min 0,000 mm 0,0 UV-I 0 W/m 16,9 C 17,5 C 4,8 km/h (1 Bft) 100,00 %
28.08.2017 05:34 17,5 C 23,9 C 96 % 1016,3 hPa 0,2 l/m 5,4 km/h (1 Bft) SW 227 0 min 0,000 mm 0,0 UV-I 0 W/m 16,9 C 17,5 C 6,4 km/h (2 Bft) 97,37 %
28.08.2017 05:36 17,6 C 23,9 C 96 % 1016,4 hPa 0,6 l/m 4,2 km/h (1 Bft) W 260 0 min 0,000 mm 0,0 UV-I 0 W/m 17,0 C 17,6 C 6,4 km/h (2 Bft) 98,31 %
28.08.2017 05:38 17,6 C 23,9 C 96 % 1016,6 hPa 0,2 l/m 3,0 km/h (1 Bft) W 260 0 min 0,000 mm 0,0 UV-I 0 W/m 17,0 C 17,6 C 4,8 km/h (1 Bft) 95,74 %
28.08.2017 05:40 17,5 C 23,9 C 96 % 1016,4 hPa 1,4 l/m 0,6 km/h (0 Bft) W 269 0 min 0,000 mm 0,0 UV-I 0 W/m 16,9 C 17,5 C 1,6 km/h (1 Bft) 94,00 %
28.08.2017 05:42 17,6 C 23,9 C 96 % 1016,2 hPa 3,4 l/m 8,1 km/h (2 Bft) N-NO 28 0 min 0,000 mm 0,0 UV-I 0 W/m 17,0 C 16,8 C 16,1 km/h (3 Bft) 97,78 %
28.08.2017 05:44 17,4 C 23,9 C 95 % 1015,9 hPa 0,6 l/m 9,0 km/h (2 Bft) O-NO 57 0 min 0,000 mm 0,0 UV-I 0 W/m 16,6 C 16,2 C 16,1 km/h (3 Bft) 98,00 %
28.08.2017 05:46 17,4 C 23,9 C 95 % 1016,0 hPa 0,0 l/m 7,4 km/h (2 Bft) NO 56 0 min 0,000 mm 0,0 UV-I 0 W/m 16,6 C 16,9 C 11,3 km/h (2 Bft) 97,44 %
28.08.2017 05:48 17,4 C 23,9 C 96 % 1016,1 hPa 0,2 l/m 5,7 km/h (1 Bft) NO 53 0 min 0,000 mm 0,0 UV-I 0 W/m 16,8 C 17,4 C 9,7 km/h (2 Bft) 97,87 %
28.08.2017 05:50 17,4 C 23,9 C 96 % 1016,1 hPa 0,0 l/m 1,0 km/h (0 Bft) O 98 0 min 0,000 mm 0,0 UV-I 0 W/m 16,8 C 17,4 C 3,2 km/h (1 Bft) 98,00 %
28.08.2017 05:52 17,4 C 23,9 C 96 % 1016,1 hPa 0,0 l/m 0,5 km/h (0 Bft) O-SO 103 0 min 0,000 mm 0,0 UV-I 0 W/m 16,8 C 17,4 C 3,2 km/h (1 Bft) 98,00 %
28.08.2017 05:54 17,4 C 23,9 C 96 % 1016,1 hPa 0,0 l/m 0,5 km/h (0 Bft) O-SO 103 0 min 0,000 mm 0,0 UV-I 0 W/m 16,8 C 17,4 C 3,2 km/h (1 Bft) 97,87 %
28.08.2017 05:56 17,4 C 23,9 C 96 % 1016,2 hPa 0,0 l/m 2,3 km/h (1 Bft) SO 144 0 min 0,000 mm 0,0 UV-I 0 W/m 16,8 C 17,4 C 4,8 km/h (1 Bft) 98,00 %
28.08.2017 05:58 17,3 C 23,9 C 96 % 1016,3 hPa 0,0 l/m 3,1 km/h (1 Bft) SO 144 0 min 0,000 mm 0,0 UV-I 3 W/m 16,7 C 17,3 C 6,4 km/h (2 Bft) 95,74 %
28.08.2017 06:00 17,3 C 23,9 C 96 % 1016,3 hPa 0,0 l/m 3,3 km/h (1 Bft) S-SO 153 0 min 0,000 mm 0,0 UV-I 5 W/m 16,7 C 17,3 C 6,4 km/h (2 Bft) 94,74 %
28.08.2017 06:02 17,3 C 23,9 C 96 % 1016,3 hPa 0,0 l/m 3,5 km/h (1 Bft) O-SO 115 0 min 0,000 mm 0,0 UV-I 5 W/m 16,7 C 17,3 C 6,4 km/h (2 Bft) 97,87 %
28.08.2017 06:04 17,3 C 23,9 C 96 % 1016,3 hPa 0,0 l/m 4,8 km/h (1 Bft) SO 133 0 min 0,000 mm 0,0 UV-I 5 W/m 16,7 C 17,3 C 8,0 km/h (2 Bft) 94,00 %
28.08.2017 06:06 17,3 C 23,9 C 96 % 1016,3 hPa 0,0 l/m 3,4 km/h (1 Bft) SO 136 0 min 0,000 mm 0,0 UV-I 6 W/m 16,7 C 17,3 C 6,4 km/h (2 Bft) 95,45 %
28.08.2017 06:08 17,3 C 23,9 C 96 % 1016,3 hPa 0,0 l/m 2,4 km/h (1 Bft) S-SO 151 0 min 0,000 mm 0,0 UV-I 7 W/m 16,7 C 17,3 C 4,8 km/h (1 Bft) 92,00 %
28.08.2017 06:10 17,3 C 23,9 C 96 % 1016,3 hPa 0,0 l/m 2,0 km/h (1 Bft) S-SO 150 0 min 0,000 mm 0,0 UV-I 7 W/m 16,7 C 17,3 C 4,8 km/h (1 Bft) 95,12 %
28.08.2017 06:12 17,3 C 23,9 C 96 % 1016,3 hPa 0,0 l/m 3,3 km/h (1 Bft) SO 144 0 min 0,000 mm 0,0 UV-I 7 W/m 16,7 C 17,3 C 6,4 km/h (2 Bft) 96,43 %
28.08.2017 06:14 17,2 C 23,9 C 96 % 1016,3 hPa 0,0 l/m 2,7 km/h (1 Bft) SO 146 0 min 0,000 mm 0,0 UV-I 7 W/m 16,6 C 17,2 C 4,8 km/h (1 Bft) 94,74 %
28.08.2017 06:16 17,2 C 23,9 C 96 % 1016,3 hPa 0,0 l/m 0,9 km/h (0 Bft) SO 146 0 min 0,000 mm 0,0 UV-I 7 W/m 16,6 C 17,2 C 3,2 km/h (1 Bft) 96,43 %
28.08.2017 06:18 17,2 C 23,9 C 96 % 1016,3 hPa 0,0 l/m 0,7 km/h (0 Bft) SO 146 0 min 0,000 mm 0,0 UV-I 7 W/m 16,6 C 17,2 C 1,6 km/h (1 Bft) 95,12 %
28.08.2017 06:20 17,2 C 23,9 C 96 % 1016,3 hPa 0,0 l/m 1,0 km/h (0 Bft) SO 146 0 min 0,000 mm 0,0 UV-I 9 W/m 16,6 C 17,2 C 3,2 km/h (1 Bft) 94,87 %
28.08.2017 06:22 17,2 C 23,9 C 96 % 1016,3 hPa 0,0 l/m 2,9 km/h (1 Bft) S-SO 147 0 min 0,000 mm 0,0 UV-I 11 W/m 16,6 C 17,2 C 6,4 km/h (2 Bft) 94,34 %
28.08.2017 06:24 17,2 C 23,9 C 96 % 1016,3 hPa 0,0 l/m 3,4 km/h (1 Bft) SO 144 0 min 0,000 mm 0,0 UV-I 13 W/m 16,6 C 17,2 C 4,8 km/h (1 Bft) 94,55 %
28.08.2017 06:26 17,2 C 23,9 C 96 % 1016,3 hPa 0,0 l/m 3,6 km/h (1 Bft) SO 144 0 min 0,000 mm 0,0 UV-I 15 W/m 16,6 C 17,2 C 4,8 km/h (1 Bft) 93,62 %
28.08.2017 06:28 17,2 C 23,9 C 96 % 1016,3 hPa 0,0 l/m 0,9 km/h (0 Bft) SO 144 2 min 0,000 mm 0,0 UV-I 17 W/m 16,6 C 17,2 C 3,2 km/h (1 Bft) 95,83 %
28.08.2017 06:30 17,3 C 23,9 C 96 % 1016,3 hPa 0,0 l/m 0,8 km/h (0 Bft) SO 144 2 min 0,000 mm 0,0 UV-I 19 W/m 16,7 C 17,3 C 3,2 km/h (1 Bft) 94,74 %
28.08.2017 06:32 17,3 C 23,9 C 96 % 1016,3 hPa 0,0 l/m 1,9 km/h (1 Bft) SO 144 2 min 0,000 mm 0,0 UV-I 19 W/m 16,7 C 17,3 C 3,2 km/h (1 Bft) 95,74 %
28.08.2017 06:34 17,3 C 23,9 C 96 % 1016,2 hPa 0,0 l/m 1,4 km/h (1 Bft) SO 144 2 min 0,000 mm 0,0 UV-I 21 W/m 16,7 C 17,3 C 3,2 km/h (1 Bft) 95,74 %
28.08.2017 06:36 17,3 C 23,9 C 96 % 1016,2 hPa 0,0 l/m 1,6 km/h (1 Bft) SO 144 0 min 0,000 mm 0,0 UV-I 23 W/m 16,7 C 17,3 C 3,2 km/h (1 Bft) 96,23 %
28.08.2017 06:38 17,3 C 23,9 C 96 % 1016,2 hPa 0,0 l/m 0,1 km/h (0 Bft) SO 144 0 min 0,000 mm 0,0 UV-I 26 W/m 16,7 C 17,3 C 1,6 km/h (1 Bft) 93,62 %
28.08.2017 06:40 17,3 C 23,9 C 96 % 1016,2 hPa 0,0 l/m 0,0 km/h (0 Bft) SO 144 2 min 0,000 mm 0,0 UV-I 30 W/m 16,7 C 17,3 C 1,6 km/h (1 Bft) 100,00 %
28.08.2017 06:42 17,3 C 23,9 C 96 % 1016,2 hPa 0,0 l/m 0,3 km/h (0 Bft) SO 144 2 min 0,000 mm 0,0 UV-I 34 W/m 16,7 C 17,3 C 1,6 km/h (1 Bft) 100,00 %
28.08.2017 06:44 17,4 C 23,9 C 96 % 1016,2 hPa 0,0 l/m 0,1 km/h (0 Bft) SO 144 2 min 0,000 mm 0,0 UV-I 40 W/m 16,8 C 17,4 C 1,6 km/h (1 Bft) 97,87 %
28.08.2017 06:46 17,4 C 23,9 C 96 % 1016,3 hPa 0,0 l/m 0,0 km/h (0 Bft) SO 144 2 min 0,000 mm 0,0 UV-I 40 W/m 16,8 C 17,4 C 0,0 km/h (0 Bft) 98,11 %
28.08.2017 06:48 17,4 C 23,9 C 96 % 1016,3 hPa 0,0 l/m 0,0 km/h (0 Bft) SO 144 0 min 0,000 mm 0,0 UV-I 38 W/m 16,8 C 17,4 C 0,0 km/h (0 Bft) 100,00 %
28.08.2017 06:50 17,4 C 23,9 C 96 % 1016,3 hPa 0,0 l/m 0,4 km/h (0 Bft) SO 144 0 min 0,000 mm 0,0 UV-I 32 W/m 16,8 C 17,4 C 1,6 km/h (1 Bft) 100,00 %
28.08.2017 06:52 17,4 C 23,9 C 96 % 1016,3 hPa 0,0 l/m 1,4 km/h (1 Bft) SO 144 0 min 0,000 mm 0,0 UV-I 32 W/m 16,8 C 17,4 C 3,2 km/h (1 Bft) 100,00 %
28.08.2017 06:54 17,4 C 23,9 C 96 % 1016,2 hPa 0,0 l/m 0,3 km/h (0 Bft) SO 144 0 min 0,000 mm 0,0 UV-I 37 W/m 16,8 C 17,4 C 1,6 km/h (1 Bft) 100,00 %
28.08.2017 06:56 17,4 C 23,9 C 96 % 1016,3 hPa 0,0 l/m 1,3 km/h (1 Bft) SO 144 0 min 0,000 mm 0,0 UV-I 44 W/m 16,8 C 17,4 C 3,2 km/h (1 Bft) 97,87 %
28.08.2017 06:58 17,4 C 23,9 C 96 % 1016,2 hPa 0,0 l/m 1,3 km/h (1 Bft) SO 144 0 min 0,000 mm 0,0 UV-I 51 W/m 16,8 C 17,4 C 3,2 km/h (1 Bft) 100,00 %
28.08.2017 07:00 17,4 C 23,9 C 96 % 1016,3 hPa 0,0 l/m 0,7 km/h (0 Bft) SO 144 0 min 0,025 mm 0,0 UV-I 56 W/m 16,8 C 17,4 C 3,2 km/h (1 Bft) 100,00 %
28.08.2017 07:02 17,4 C 23,9 C 96 % 1016,3 hPa 0,0 l/m 0,6 km/h (0 Bft) SO 144 0 min 0,000 mm 0,0 UV-I 62 W/m 16,8 C 17,4 C 1,6 km/h (1 Bft) 97,22 %
28.08.2017 07:04 17,4 C 23,9 C 96 % 1016,3 hPa 0,0 l/m 0,1 km/h (0 Bft) SO 144 2 min 0,000 mm 0,0 UV-I 70 W/m 16,8 C 17,4 C 1,6 km/h (1 Bft) 100,00 %
28.08.2017 07:06 17,4 C 23,9 C 96 % 1016,3 hPa 0,0 l/m 0,0 km/h (0 Bft) SO 144 2 min 0,000 mm 0,0 UV-I 76 W/m 16,8 C 17,4 C 0,0 km/h (0 Bft) 100,00 %
28.08.2017 07:08 17,4 C 23,9 C 96 % 1016,3 hPa 0,0 l/m 0,0 km/h (0 Bft) SO 144 2 min 0,000 mm 0,0 UV-I 76 W/m 16,8 C 17,4 C 0,0 km/h (0 Bft) 100,00 %
28.08.2017 07:10 17,4 C 23,9 C 96 % 1016,4 hPa 0,0 l/m 0,0 km/h (0 Bft) SO 144 0 min 0,000 mm 0,0 UV-I 74 W/m 16,8 C 17,4 C 0,0 km/h (0 Bft) 100,00 %
28.08.2017 07:12 17,5 C 23,9 C 96 % 1016,4 hPa 0,0 l/m 0,0 km/h (0 Bft) SO 144 0 min 0,000 mm 0,0 UV-I 75 W/m 16,9 C 17,5 C 0,0 km/h (0 Bft) 100,00 %
28.08.2017 07:14 17,6 C 23,9 C 96 % 1016,4 hPa 0,0 l/m 0,1 km/h (0 Bft) SO 144 0 min 0,000 mm 0,0 UV-I 75 W/m 17,0 C 17,6 C 1,6 km/h (1 Bft) 97,87 %
28.08.2017 07:16 17,6 C 23,9 C 96 % 1016,5 hPa 0,0 l/m 0,0 km/h (0 Bft) SO 144 0 min 0,000 mm 0,0 UV-I 80 W/m 17,0 C 17,6 C 0,0 km/h (0 Bft) 100,00 %
28.08.2017 07:18 17,5 C 23,9 C 96 % 1016,4 hPa 0,0 l/m 0,0 km/h (0 Bft) SO 144 0 min 0,000 mm 0,0 UV-I 83 W/m 16,9 C 17,5 C 0,0 km/h (0 Bft) 100,00 %
28.08.2017 07:20 17,4 C 23,9 C 96 % 1016,4 hPa 0,0 l/m 0,2 km/h (0 Bft) SO 144 0 min 0,000 mm 0,0 UV-I 84 W/m 16,8 C 17,4 C 3,2 km/h (1 Bft) 97,14 %
28.08.2017 07:22 17,4 C 23,9 C 96 % 1016,4 hPa 0,0 l/m 3,3 km/h (1 Bft) SO 142 0 min 0,000 mm 0,0 UV-I 77 W/m 16,8 C 17,4 C 4,8 km/h (1 Bft) 100,00 %
28.08.2017 07:24 17,4 C 23,9 C 96 % 1016,4 hPa 0,0 l/m 2,9 km/h (1 Bft) SO 142 0 min 0,000 mm 0,0 UV-I 78 W/m 16,8 C 17,4 C 4,8 km/h (1 Bft) 100,00 %
28.08.2017 07:26 17,4 C 23,9 C 96 % 1016,5 hPa 0,0 l/m 2,8 km/h (1 Bft) SO 142 0 min 0,000 mm 0,0 UV-I 85 W/m 16,8 C 17,4 C 3,2 km/h (1 Bft) 100,00 %
28.08.2017 07:28 17,4 C 23,9 C 96 % 1016,5 hPa 0,0 l/m 2,6 km/h (1 Bft) SO 142 0 min 0,000 mm 0,0 UV-I 98 W/m 16,8 C 17,4 C 3,2 km/h (1 Bft) 100,00 %
28.08.2017 07:30 17,5 C 23,9 C 96 % 1016,5 hPa 0,0 l/m 1,1 km/h (1 Bft) SO 142 2 min 0,000 mm 0,0 UV-I 116 W/m 16,9 C 17,5 C 3,2 km/h (1 Bft) 98,00 %
28.08.2017 07:32 17,6 C 23,9 C 96 % 1016,6 hPa 0,0 l/m 1,0 km/h (0 Bft) SO 142 2 min 0,000 mm 0,0 UV-I 150 W/m 17,0 C 17,6 C 3,2 km/h (1 Bft) 100,00 %
28.08.2017 07:34 17,6 C 23,9 C 97 % 1016,5 hPa 0,0 l/m 0,1 km/h (0 Bft) SO 142 2 min 0,000 mm 0,0 UV-I 152 W/m 17,1 C 17,6 C 1,6 km/h (1 Bft) 100,00 %
28.08.2017 07:36 17,6 C 23,9 C 97 % 1016,6 hPa 0,0 l/m 0,0 km/h (0 Bft) SO 142 2 min 0,000 mm 0,0 UV-I 123 W/m 17,1 C 17,6 C 0,0 km/h (0 Bft) 100,00 %
28.08.2017 07:38 17,7 C 23,9 C 97 % 1016,6 hPa 0,0 l/m 0,0 km/h (0 Bft) SO 142 0 min 0,000 mm 0,0 UV-I 90 W/m 17,2 C 17,7 C 0,0 km/h (0 Bft) 100,00 %
28.08.2017 07:40 17,7 C 23,9 C 97 % 1016,6 hPa 0,0 l/m 0,4 km/h (0 Bft) SO 142 0 min 0,000 mm 0,0 UV-I 68 W/m 17,2 C 17,7 C 1,6 km/h (1 Bft) 100,00 %
28.08.2017 07:42 17,8 C 23,9 C 97 % 1016,6 hPa 0,0 l/m 2,2 km/h (1 Bft) SO 140 0 min 0,000 mm 0,0 UV-I 55 W/m 17,3 C 17,8 C 4,8 km/h (1 Bft) 100,00 %
28.08.2017 07:44 17,8 C 23,9 C 97 % 1016,6 hPa 0,0 l/m 2,0 km/h (1 Bft) SO 140 0 min 0,000 mm 0,0 UV-I 53 W/m 17,3 C 17,8 C 3,2 km/h (1 Bft) 100,00 %
28.08.2017 07:46 17,7 C 23,9 C 97 % 1016,6 hPa 0,0 l/m 2,2 km/h (1 Bft) SO 140 0 min 0,000 mm 0,0 UV-I 53 W/m 17,2 C 17,7 C 3,2 km/h (1 Bft) 100,00 %
28.08.2017 07:48 17,7 C 23,9 C 97 % 1016,6 hPa 0,0 l/m 1,9 km/h (1 Bft) SO 140 0 min 0,000 mm 0,0 UV-I 51 W/m 17,2 C 17,7 C 3,2 km/h (1 Bft) 100,00 %
28.08.2017 07:50 17,8 C 23,9 C 97 % 1016,7 hPa 0,0 l/m 3,7 km/h (1 Bft) NO 55 0 min 0,000 mm 0,0 UV-I 49 W/m 17,3 C 17,8 C 4,8 km/h (1 Bft) 100,00 %
28.08.2017 07:52 17,8 C 23,9 C 97 % 1016,7 hPa 0,0 l/m 3,9 km/h (1 Bft) NO 39 0 min 0,000 mm 0,0 UV-I 48 W/m 17,3 C 17,8 C 6,4 km/h (2 Bft) 97,87 %
28.08.2017 07:54 17,8 C 23,9 C 97 % 1016,7 hPa 0,0 l/m 5,1 km/h (1 Bft) NO 36 0 min 0,000 mm 0,0 UV-I 51 W/m 17,3 C 17,8 C 6,4 km/h (2 Bft) 100,00 %
28.08.2017 07:56 17,8 C 23,9 C 96 % 1016,7 hPa 0,0 l/m 5,3 km/h (1 Bft) N-NO 32 0 min 0,000 mm 0,0 UV-I 58 W/m 17,2 C 17,8 C 8,0 km/h (2 Bft) 100,00 %
28.08.2017 07:58 17,8 C 23,9 C 97 % 1016,7 hPa 0,0 l/m 5,0 km/h (1 Bft) N-NO 28 0 min 0,000 mm 0,0 UV-I 61 W/m 17,3 C 17,8 C 6,4 km/h (2 Bft) 100,00 %
28.08.2017 08:00 17,8 C 23,9 C 97 % 1016,8 hPa 0,0 l/m 5,3 km/h (1 Bft) N-NO 30 0 min 0,051 mm 0,0 UV-I 66 W/m 17,3 C 17,8 C 6,4 km/h (2 Bft) 100,00 %
28.08.2017 08:02 17,8 C 23,9 C 96 % 1016,7 hPa 0,0 l/m 2,9 km/h (1 Bft) N-NO 30 0 min 0,000 mm 0,0 UV-I 71 W/m 17,2 C 17,8 C 4,8 km/h (1 Bft) 100,00 %
28.08.2017 08:04 17,8 C 23,9 C 96 % 1016,7 hPa 0,0 l/m 3,3 km/h (1 Bft) N-NO 30 0 min 0,000 mm 0,0 UV-I 80 W/m 17,2 C 17,8 C 4,8 km/h (1 Bft) 100,00 %
28.08.2017 08:06 17,9 C 23,9 C 97 % 1016,7 hPa 0,0 l/m 1,9 km/h (1 Bft) N-NO 30 0 min 0,000 mm 0,0 UV-I 88 W/m 17,4 C 17,9 C 3,2 km/h (1 Bft) 95,74 %
28.08.2017 08:08 18,0 C 23,9 C 97 % 1016,7 hPa 0,0 l/m 1,5 km/h (1 Bft) N-NO 30 0 min 0,000 mm 0,0 UV-I 96 W/m 17,5 C 18,0 C 3,2 km/h (1 Bft) 97,56 %
28.08.2017 08:10 18,0 C 23,9 C 97 % 1016,6 hPa 0,0 l/m 2,5 km/h (1 Bft) N-NO 30 0 min 0,000 mm 0,0 UV-I 98 W/m 17,5 C 18,0 C 4,8 km/h (1 Bft) 95,74 %
28.08.2017 08:12 18,0 C 23,9 C 97 % 1016,7 hPa 0,0 l/m 3,3 km/h (1 Bft) N-NO 30 0 min 0,000 mm 0,0 UV-I 102 W/m 17,5 C 18,0 C 4,8 km/h (1 Bft) 98,00 %
28.08.2017 08:14 18,1 C 23,9 C 97 % 1016,6 hPa 0,0 l/m 2,9 km/h (1 Bft) NO 39 0 min 0,000 mm 0,0 UV-I 111 W/m 17,6 C 18,1 C 4,8 km/h (1 Bft) 97,87 %
28.08.2017 08:16 18,0 C 23,9 C 96 % 1016,7 hPa 0,0 l/m 2,3 km/h (1 Bft) NO 39 0 min 0,000 mm 0,0 UV-I 125 W/m 17,4 C 18,0 C 4,8 km/h (1 Bft) 97,56 %
28.08.2017 08:18 18,0 C 23,9 C 96 % 1016,6 hPa 0,0 l/m 4,2 km/h (1 Bft) NO 52 0 min 0,000 mm 0,0 UV-I 139 W/m 17,4 C 18,0 C 6,4 km/h (2 Bft) 98,00 %
28.08.2017 08:20 18,1 C 23,9 C 96 % 1016,7 hPa 0,0 l/m 4,7 km/h (1 Bft) O-NO 59 0 min 0,000 mm 0,0 UV-I 174 W/m 17,5 C 18,1 C 6,4 km/h (2 Bft) 98,00 %
28.08.2017 08:23 18,0 C 23,9 C 96 % 1016,7 hPa 0,0 l/m 5,1 km/h (1 Bft) O-NO 69 3 min 0,000 mm 0,4 UV-I 210 W/m 17,4 C 18,0 C 8,0 km/h (2 Bft) 97,30 %
28.08.2017 08:24 18,1 C 23,9 C 96 % 1016,7 hPa 0,0 l/m 7,6 km/h (2 Bft) O-NO 65 1 min 0,000 mm 0,5 UV-I 198 W/m 17,5 C 17,5 C 9,7 km/h (2 Bft) 100,00 %
28.08.2017 08:26 18,1 C 23,9 C 96 % 1016,7 hPa 0,0 l/m 7,6 km/h (2 Bft) NO 51 2 min 0,000 mm 0,5 UV-I 220 W/m 17,5 C 17,5 C 9,7 km/h (2 Bft) 97,87 %
28.08.2017 08:28 18,1 C 23,9 C 96 % 1016,7 hPa 0,0 l/m 6,4 km/h (2 Bft) O-NO 75 2 min 0,000 mm 0,5 UV-I 224 W/m 17,5 C 18,1 C 9,7 km/h (2 Bft) 96,00 %
28.08.2017 08:30 18,2 C 23,9 C 96 % 1016,7 hPa 0,0 l/m 5,6 km/h (1 Bft) NO 53 2 min 0,000 mm 0,6 UV-I 298 W/m 17,6 C 18,2 C 8,0 km/h (2 Bft) 98,11 %
28.08.2017 08:32 18,3 C 23,9 C 96 % 1016,7 hPa 0,0 l/m 5,2 km/h (1 Bft) NO 55 2 min 0,000 mm 0,6 UV-I 309 W/m 17,6 C 18,3 C 6,4 km/h (2 Bft) 97,37 %
28.08.2017 08:34 18,5 C 23,9 C 96 % 1016,7 hPa 0,0 l/m 4,8 km/h (1 Bft) O 85 2 min 0,000 mm 0,6 UV-I 327 W/m 17,8 C 18,5 C 8,0 km/h (2 Bft) 98,00 %
28.08.2017 08:36 18,6 C 23,9 C 96 % 1016,7 hPa 0,0 l/m 6,0 km/h (2 Bft) NO 47 2 min 0,000 mm 0,7 UV-I 318 W/m 17,9 C 18,6 C 8,0 km/h (2 Bft) 96,00 %
28.08.2017 08:38 18,7 C 23,9 C 95 % 1016,7 hPa 0,0 l/m 6,5 km/h (2 Bft) O-NO 59 2 min 0,000 mm 0,7 UV-I 298 W/m 17,9 C 18,7 C 12,9 km/h (3 Bft) 100,00 %
28.08.2017 08:40 18,7 C 23,9 C 95 % 1016,7 hPa 0,0 l/m 6,4 km/h (2 Bft) NO 38 2 min 0,000 mm 0,7 UV-I 385 W/m 17,9 C 18,7 C 8,0 km/h (2 Bft) 100,00 %
28.08.2017 08:42 18,8 C 23,9 C 95 % 1016,7 hPa 0,0 l/m 4,8 km/h (1 Bft) O-NO 78 2 min 0,000 mm 0,7 UV-I 348 W/m 18,0 C 18,8 C 6,4 km/h (2 Bft) 94,87 %
28.08.2017 08:44 18,8 C 23,9 C 94 % 1016,7 hPa 0,0 l/m 5,0 km/h (1 Bft) O 86 2 min 0,000 mm 0,7 UV-I 320 W/m 17,8 C 18,8 C 8,0 km/h (2 Bft) 98,00 %
28.08.2017 08:46 18,8 C 23,9 C 94 % 1016,7 hPa 0,0 l/m 4,2 km/h (1 Bft) O 86 2 min 0,000 mm 0,7 UV-I 294 W/m 17,8 C 18,8 C 6,4 km/h (2 Bft) 100,00 %
28.08.2017 08:48 18,9 C 23,9 C 94 % 1016,7 hPa 0,0 l/m 4,7 km/h (1 Bft) O 99 2 min 0,000 mm 0,7 UV-I 233 W/m 17,9 C 18,9 C 6,4 km/h (2 Bft) 100,00 %
28.08.2017 08:50 18,8 C 23,9 C 94 % 1016,7 hPa 0,0 l/m 4,5 km/h (1 Bft) O-SO 102 0 min 0,000 mm 0,7 UV-I 224 W/m 17,8 C 18,8 C 6,4 km/h (2 Bft) 100,00 %
28.08.2017 08:52 18,8 C 23,9 C 94 % 1016,7 hPa 0,0 l/m 3,4 km/h (1 Bft) O-SO 102 0 min 0,000 mm 0,7 UV-I 217 W/m 17,8 C 18,8 C 4,8 km/h (1 Bft) 97,37 %
28.08.2017 08:54 18,8 C 23,9 C 94 % 1016,7 hPa 0,0 l/m 3,7 km/h (1 Bft) O-SO 103 0 min 0,000 mm 0,7 UV-I 203 W/m 17,8 C 18,8 C 4,8 km/h (1 Bft) 98,00 %
28.08.2017 08:56 18,8 C 23,9 C 93 % 1016,8 hPa 0,0 l/m 5,0 km/h (1 Bft) NO 44 0 min 0,000 mm 0,7 UV-I 195 W/m 17,6 C 18,8 C 8,0 km/h (2 Bft) 100,00 %
28.08.2017 08:58 18,8 C 23,9 C 93 % 1016,8 hPa 0,0 l/m 6,1 km/h (2 Bft) O-NO 57 0 min 0,000 mm 0,7 UV-I 203 W/m 17,6 C 18,8 C 8,0 km/h (2 Bft) 100,00 %
28.08.2017 09:00 18,8 C 23,9 C 93 % 1016,7 hPa 0,0 l/m 4,6 km/h (1 Bft) O-NO 68 2 min 0,127 mm 0,8 UV-I 243 W/m 17,6 C 18,8 C 6,4 km/h (2 Bft) 98,18 %
28.08.2017 09:02 19,0 C 23,9 C 94 % 1016,7 hPa 0,0 l/m 5,1 km/h (1 Bft) O-NO 61 2 min 0,000 mm 0,8 UV-I 262 W/m 18,0 C 19,0 C 6,4 km/h (2 Bft) 100,00 %
28.08.2017 09:04 19,1 C 23,9 C 93 % 1016,7 hPa 0,0 l/m 7,0 km/h (2 Bft) O-NO 69 0 min 0,000 mm 0,8 UV-I 246 W/m 17,9 C 18,8 C 9,7 km/h (2 Bft) 100,00 %
28.08.2017 09:06 19,1 C 23,9 C 93 % 1016,7 hPa 0,0 l/m 5,6 km/h (1 Bft) O 82 0 min 0,000 mm 0,7 UV-I 217 W/m 17,9 C 19,1 C 11,3 km/h (2 Bft) 100,00 %
28.08.2017 09:08 19,1 C 23,9 C 93 % 1016,7 hPa 0,0 l/m 5,7 km/h (1 Bft) O-NO 78 0 min 0,000 mm 0,7 UV-I 208 W/m 17,9 C 19,1 C 8,0 km/h (2 Bft) 100,00 %
28.08.2017 09:10 19,2 C 23,9 C 93 % 1016,8 hPa 0,0 l/m 7,0 km/h (2 Bft) O-NO 61 0 min 0,000 mm 0,7 UV-I 212 W/m 18,0 C 18,9 C 9,7 km/h (2 Bft) 100,00 %
28.08.2017 09:12 19,2 C 23,9 C 93 % 1016,7 hPa 0,0 l/m 5,3 km/h (1 Bft) O-NO 58 0 min 0,000 mm 0,8 UV-I 203 W/m 18,0 C 19,2 C 8,0 km/h (2 Bft) 97,87 %
28.08.2017 09:14 19,2 C 23,9 C 93 % 1016,7 hPa 0,0 l/m 5,9 km/h (2 Bft) O 82 0 min 0,000 mm 0,8 UV-I 193 W/m 18,0 C 19,2 C 8,0 km/h (2 Bft) 100,00 %
28.08.2017 09:16 19,2 C 23,9 C 93 % 1016,7 hPa 0,0 l/m 6,3 km/h (2 Bft) NO 47 0 min 0,000 mm 0,8 UV-I 202 W/m 18,0 C 19,2 C 9,7 km/h (2 Bft) 98,00 %
28.08.2017 09:18 19,3 C 23,9 C 93 % 1016,7 hPa 0,0 l/m 6,8 km/h (2 Bft) O-NO 66 0 min 0,000 mm 0,9 UV-I 223 W/m 18,1 C 19,1 C 11,3 km/h (2 Bft) 100,00 %
28.08.2017 09:20 19,4 C 23,9 C 93 % 1016,7 hPa 0,0 l/m 6,1 km/h (2 Bft) O-SO 109 0 min 0,000 mm 0,9 UV-I 238 W/m 18,2 C 19,4 C 9,7 km/h (2 Bft) 97,56 %
28.08.2017 09:22 19,3 C 23,9 C 92 % 1016,7 hPa 0,0 l/m 4,9 km/h (1 Bft) NO 42 0 min 0,000 mm 0,9 UV-I 251 W/m 18,0 C 19,3 C 8,0 km/h (2 Bft) 100,00 %
28.08.2017 09:24 19,3 C 23,9 C 92 % 1016,7 hPa 0,0 l/m 6,2 km/h (2 Bft) O 82 0 min 0,000 mm 0,9 UV-I 251 W/m 18,0 C 19,3 C 11,3 km/h (2 Bft) 98,04 %
28.08.2017 09:26 19,3 C 23,9 C 92 % 1016,7 hPa 0,0 l/m 10,2 km/h (2 Bft) O-NO 71 0 min 0,000 mm 0,8 UV-I 229 W/m 18,0 C 17,8 C 14,5 km/h (3 Bft) 100,00 %
28.08.2017 09:28 19,3 C 23,9 C 91 % 1016,8 hPa 0,0 l/m 8,9 km/h (2 Bft) O 86 0 min 0,000 mm 0,7 UV-I 207 W/m 17,8 C 18,3 C 12,9 km/h (3 Bft) 98,11 %
28.08.2017 09:30 19,3 C 23,9 C 92 % 1016,7 hPa 0,0 l/m 5,7 km/h (1 Bft) NO 48 0 min 0,000 mm 0,6 UV-I 177 W/m 18,0 C 19,3 C 9,7 km/h (2 Bft) 100,00 %
28.08.2017 09:32 19,3 C 23,9 C 92 % 1016,8 hPa 0,0 l/m 8,5 km/h (2 Bft) O-NO 65 0 min 0,000 mm 0,6 UV-I 174 W/m 18,0 C 18,4 C 11,3 km/h (2 Bft) 97,87 %
28.08.2017 09:34 19,3 C 23,9 C 91 % 1016,8 hPa 0,0 l/m 7,0 km/h (2 Bft) O-NO 68 0 min 0,000 mm 0,6 UV-I 168 W/m 17,8 C 19,0 C 12,9 km/h (3 Bft) 97,78 %
28.08.2017 09:36 19,4 C 23,9 C 91 % 1016,8 hPa 0,0 l/m 6,4 km/h (2 Bft) O-NO 73 0 min 0,000 mm 0,7 UV-I 172 W/m 17,9 C 19,4 C 11,3 km/h (2 Bft) 98,11 %
28.08.2017 09:38 19,4 C 23,9 C 92 % 1016,8 hPa 0,0 l/m 4,9 km/h (1 Bft) O-NO 65 0 min 0,000 mm 0,7 UV-I 181 W/m 18,1 C 19,4 C 6,4 km/h (2 Bft) 95,74 %
28.08.2017 09:40 19,4 C 23,9 C 92 % 1016,8 hPa 0,0 l/m 6,2 km/h (2 Bft) O-NO 70 0 min 0,000 mm 0,7 UV-I 184 W/m 18,1 C 19,4 C 9,7 km/h (2 Bft) 98,18 %
28.08.2017 09:42 19,5 C 23,9 C 92 % 1016,9 hPa 0,0 l/m 5,3 km/h (1 Bft) O 99 0 min 0,000 mm 0,8 UV-I 193 W/m 18,2 C 19,5 C 6,4 km/h (2 Bft) 97,44 %
28.08.2017 09:44 19,4 C 23,9 C 91 % 1016,8 hPa 0,0 l/m 6,6 km/h (2 Bft) O-NO 70 0 min 0,000 mm 0,8 UV-I 194 W/m 17,9 C 19,3 C 9,7 km/h (2 Bft) 98,21 %
28.08.2017 09:46 19,4 C 23,9 C 92 % 1016,9 hPa 0,0 l/m 5,2 km/h (1 Bft) O 82 0 min 0,000 mm 0,9 UV-I 217 W/m 18,1 C 19,4 C 8,0 km/h (2 Bft) 97,56 %
28.08.2017 09:48 19,4 C 23,9 C 91 % 1016,9 hPa 0,0 l/m 6,5 km/h (2 Bft) O-NO 59 0 min 0,000 mm 1,1 UV-I 257 W/m 17,9 C 19,4 C 9,7 km/h (2 Bft) 97,73 %
28.08.2017 09:50 19,6 C 23,9 C 92 % 1016,9 hPa 0,0 l/m 3,3 km/h (1 Bft) O 99 2 min 0,000 mm 1,2 UV-I 308 W/m 18,3 C 19,6 C 6,4 km/h (2 Bft) 98,11 %
28.08.2017 09:52 19,6 C 23,9 C 91 % 1016,8 hPa 0,0 l/m 5,6 km/h (1 Bft) O-NO 76 0 min 0,000 mm 1,1 UV-I 271 W/m 18,1 C 19,6 C 8,0 km/h (2 Bft) 97,87 %
28.08.2017 09:54 19,6 C 23,9 C 90 % 1016,8 hPa 0,0 l/m 6,3 km/h (2 Bft) O-NO 71 0 min 0,000 mm 1,1 UV-I 210 W/m 17,9 C 19,6 C 9,7 km/h (2 Bft) 97,37 %
28.08.2017 09:56 19,6 C 23,9 C 90 % 1016,8 hPa 0,0 l/m 6,4 km/h (2 Bft) O 79 0 min 0,000 mm 1,2 UV-I 262 W/m 17,9 C 19,6 C 11,3 km/h (2 Bft) 97,87 %
28.08.2017 09:58 19,6 C 23,9 C 91 % 1016,8 hPa 0,0 l/m 4,3 km/h (1 Bft) NO 55 0 min 0,000 mm 1,3 UV-I 296 W/m 18,1 C 19,6 C 8,0 km/h (2 Bft) 97,87 %
28.08.2017 10:00 19,7 C 23,9 C 90 % 1016,9 hPa 0,0 l/m 6,3 km/h (2 Bft) NO 52 0 min 0,127 mm 1,3 UV-I 234 W/m 18,0 C 19,7 C 8,0 km/h (2 Bft) 94,00 %
28.08.2017 10:02 19,7 C 23,9 C 90 % 1016,8 hPa 0,0 l/m 3,6 km/h (1 Bft) NO 52 0 min 0,000 mm 1,3 UV-I 243 W/m 18,0 C 19,7 C 4,8 km/h (1 Bft) 96,00 %
28.08.2017 10:04 19,7 C 23,9 C 90 % 1016,9 hPa 0,0 l/m 3,5 km/h (1 Bft) O 92 0 min 0,000 mm 1,3 UV-I 280 W/m 18,0 C 19,7 C 9,7 km/h (2 Bft) 96,00 %
28.08.2017 10:06 19,7 C 23,9 C 90 % 1016,9 hPa 0,0 l/m 7,9 km/h (2 Bft) O-NO 67 0 min 0,000 mm 1,4 UV-I 287 W/m 18,0 C 19,1 C 11,3 km/h (2 Bft) 94,74 %
28.08.2017 10:08 19,7 C 23,9 C 90 % 1016,8 hPa 0,0 l/m 5,1 km/h (1 Bft) O-NO 72 2 min 0,000 mm 1,5 UV-I 337 W/m 18,0 C 19,7 C 6,4 km/h (2 Bft) 95,12 %
28.08.2017 10:10 19,8 C 23,9 C 91 % 1016,9 hPa 0,0 l/m 4,7 km/h (1 Bft) O 86 0 min 0,000 mm 1,5 UV-I 323 W/m 18,3 C 19,8 C 6,4 km/h (2 Bft) 94,64 %
28.08.2017 10:12 19,9 C 23,9 C 90 % 1016,8 hPa 0,0 l/m 6,0 km/h (2 Bft) O 88 2 min 0,000 mm 1,5 UV-I 359 W/m 18,2 C 19,9 C 8,0 km/h (2 Bft) 95,74 %
28.08.2017 10:14 19,9 C 23,9 C 90 % 1016,9 hPa 0,0 l/m 5,1 km/h (1 Bft) O-NO 78 0 min 0,000 mm 1,5 UV-I 324 W/m 18,2 C 19,9 C 8,0 km/h (2 Bft) 96,30 %
28.08.2017 10:16 19,9 C 23,9 C 89 % 1016,9 hPa 0,0 l/m 5,7 km/h (1 Bft) O-NO 69 0 min 0,000 mm 1,4 UV-I 265 W/m 18,0 C 19,9 C 9,7 km/h (2 Bft) 95,71 %
28.08.2017 10:18 20,1 C 23,9 C 90 % 1016,8 hPa 0,0 l/m 5,1 km/h (1 Bft) NO 53 0 min 0,000 mm 1,4 UV-I 292 W/m 18,4 C 20,1 C 6,4 km/h (2 Bft) 95,45 %
28.08.2017 10:20 20,1 C 23,9 C 89 % 1016,8 hPa 0,0 l/m 5,9 km/h (2 Bft) O-NO 66 2 min 0,000 mm 1,7 UV-I 383 W/m 18,2 C 20,1 C 12,9 km/h (3 Bft) 93,75 %
28.08.2017 10:22 20,2 C 23,9 C 88 % 1016,8 hPa 0,0 l/m 8,1 km/h (2 Bft) O-NO 60 2 min 0,000 mm 1,9 UV-I 493 W/m 18,1 C 19,5 C 12,9 km/h (3 Bft) 93,62 %
28.08.2017 10:24 20,2 C 23,9 C 87 % 1016,8 hPa 0,0 l/m 5,3 km/h (1 Bft) O-NO 77 2 min 0,000 mm 1,8 UV-I 484 W/m 18,0 C 20,2 C 8,0 km/h (2 Bft) 93,62 %
28.08.2017 10:26 20,3 C 23,9 C 87 % 1016,8 hPa 0,0 l/m 7,6 km/h (2 Bft) O-NO 62 0 min 0,000 mm 1,7 UV-I 324 W/m 18,1 C 19,8 C 11,3 km/h (2 Bft) 95,12 %
28.08.2017 10:28 20,3 C 23,9 C 87 % 1016,8 hPa 0,0 l/m 10,7 km/h (2 Bft) N-NO 26 0 min 0,000 mm 1,6 UV-I 326 W/m 18,1 C 18,8 C 14,5 km/h (3 Bft) 95,45 %
28.08.2017 10:30 20,4 C 23,9 C 88 % 1016,8 hPa 0,0 l/m 9,4 km/h (2 Bft) N-NO 31 2 min 0,000 mm 1,8 UV-I 392 W/m 18,3 C 19,3 C 12,9 km/h (3 Bft) 94,34 %
28.08.2017 10:32 20,6 C 23,9 C 88 % 1016,8 hPa 0,0 l/m 8,9 km/h (2 Bft) O 82 2 min 0,000 mm 2,1 UV-I 452 W/m 18,5 C 19,7 C 14,5 km/h (3 Bft) 95,12 %
28.08.2017 10:34 20,8 C 23,9 C 87 % 1016,8 hPa 0,0 l/m 11,1 km/h (2 Bft) NO 35 2 min 0,000 mm 2,4 UV-I 602 W/m 18,6 C 19,2 C 17,7 km/h (3 Bft) 98,21 %
28.08.2017 10:36 20,8 C 23,9 C 87 % 1016,8 hPa 0,0 l/m 9,1 km/h (2 Bft) O-NO 61 2 min 0,000 mm 2,5 UV-I 633 W/m 18,6 C 19,8 C 14,5 km/h (3 Bft) 97,87 %
28.08.2017 10:38 20,9 C 23,9 C 87 % 1016,8 hPa 0,0 l/m 9,5 km/h (2 Bft) NO 38 2 min 0,000 mm 2,4 UV-I 594 W/m 18,7 C 19,8 C 14,5 km/h (3 Bft) 96,00 %
28.08.2017 10:40 21,0 C 23,9 C 86 % 1016,8 hPa 0,0 l/m 9,7 km/h (2 Bft) O-NO 76 2 min 0,000 mm 2,5 UV-I 594 W/m 18,6 C 19,8 C 14,5 km/h (3 Bft) 97,73 %
28.08.2017 10:42 21,1 C 23,9 C 86 % 1016,8 hPa 0,0 l/m 8,2 km/h (2 Bft) O-NO 78 2 min 0,000 mm 2,7 UV-I 623 W/m 18,7 C 20,4 C 14,5 km/h (3 Bft) 95,45 %
28.08.2017 10:44 21,1 C 23,9 C 84 % 1016,7 hPa 0,0 l/m 9,6 km/h (2 Bft) NO 55 2 min 0,000 mm 2,7 UV-I 638 W/m 18,3 C 20,0 C 16,1 km/h (3 Bft) 100,00 %
28.08.2017 10:46 21,0 C 23,9 C 84 % 1016,8 hPa 0,0 l/m 7,3 km/h (2 Bft) O 88 2 min 0,000 mm 2,6 UV-I 526 W/m 18,2 C 20,7 C 11,3 km/h (2 Bft) 100,00 %
28.08.2017 10:48 21,1 C 23,9 C 86 % 1016,8 hPa 0,0 l/m 7,8 km/h (2 Bft) O 84 2 min 0,000 mm 2,7 UV-I 659 W/m 18,7 C 20,6 C 12,9 km/h (3 Bft) 97,87 %
28.08.2017 10:50 21,2 C 23,9 C 85 % 1016,8 hPa 0,0 l/m 10,3 km/h (2 Bft) NO 41 2 min 0,000 mm 2,2 UV-I 556 W/m 18,6 C 19,9 C 17,7 km/h (3 Bft) 100,00 %
28.08.2017 10:52 21,2 C 23,9 C 85 % 1016,8 hPa 0,0 l/m 12,0 km/h (2 Bft) NO 41 2 min 0,000 mm 1,9 UV-I 402 W/m 18,6 C 19,4 C 16,1 km/h (3 Bft) 98,00 %
28.08.2017 10:54 21,1 C 23,9 C 86 % 1016,8 hPa 0,0 l/m 8,8 km/h (2 Bft) NO 43 0 min 0,000 mm 1,7 UV-I 357 W/m 18,7 C 20,2 C 14,5 km/h (3 Bft) 100,00 %
28.08.2017 10:56 21,1 C 23,9 C 84 % 1016,9 hPa 0,0 l/m 12,2 km/h (2 Bft) O 82 0 min 0,000 mm 1,6 UV-I 331 W/m 18,3 C 19,2 C 16,1 km/h (3 Bft) 97,87 %
28.08.2017 10:58 20,9 C 23,9 C 84 % 1016,9 hPa 0,0 l/m 7,2 km/h (2 Bft) O-NO 63 0 min 0,000 mm 1,4 UV-I 276 W/m 18,1 C 20,6 C 14,5 km/h (3 Bft) 98,08 %
28.08.2017 11:00 20,7 C 23,9 C 85 % 1016,9 hPa 0,0 l/m 5,7 km/h (1 Bft) SO 135 0 min 0,000 mm 1,4 UV-I 249 W/m 18,1 C 20,7 C 9,7 km/h (2 Bft) 100,00 %
28.08.2017 11:02 20,6 C 23,9 C 85 % 1016,9 hPa 0,0 l/m 8,9 km/h (2 Bft) O-SO 115 0 min 0,254 mm 1,3 UV-I 227 W/m 18,0 C 19,7 C 14,5 km/h (3 Bft) 100,00 %
28.08.2017 11:04 20,6 C 23,9 C 85 % 1016,9 hPa 0,0 l/m 9,2 km/h (2 Bft) O 97 0 min 0,000 mm 1,3 UV-I 219 W/m 18,0 C 19,6 C 12,9 km/h (3 Bft) 100,00 %
28.08.2017 11:06 20,5 C 23,9 C 86 % 1016,9 hPa 0,0 l/m 5,9 km/h (2 Bft) O 95 0 min 0,000 mm 1,3 UV-I 230 W/m 18,1 C 20,5 C 11,3 km/h (2 Bft) 100,00 %
28.08.2017 11:08 20,5 C 23,9 C 87 % 1016,9 hPa 0,0 l/m 5,2 km/h (1 Bft) O 101 0 min 0,000 mm 1,4 UV-I 246 W/m 18,3 C 20,5 C 9,7 km/h (2 Bft) 100,00 %
28.08.2017 11:10 20,5 C 23,9 C 86 % 1016,9 hPa 0,0 l/m 6,0 km/h (2 Bft) O-SO 115 0 min 0,000 mm 1,5 UV-I 260 W/m 18,1 C 20,5 C 9,7 km/h (2 Bft) 100,00 %
28.08.2017 11:12 20,6 C 23,9 C 87 % 1016,9 hPa 0,0 l/m 5,9 km/h (2 Bft) O 84 0 min 0,000 mm 1,5 UV-I 264 W/m 18,4 C 20,6 C 11,3 km/h (2 Bft) 100,00 %
28.08.2017 11:14 20,6 C 23,9 C 86 % 1016,9 hPa 0,0 l/m 5,7 km/h (1 Bft) O-SO 113 0 min 0,000 mm 1,5 UV-I 279 W/m 18,2 C 20,6 C 9,7 km/h (2 Bft) 100,00 %
28.08.2017 11:16 20,6 C 23,9 C 86 % 1016,9 hPa 0,0 l/m 5,4 km/h (1 Bft) O 94 0 min 0,000 mm 1,6 UV-I 314 W/m 18,2 C 20,6 C 9,7 km/h (2 Bft) 100,00 %
28.08.2017 11:18 20,7 C 23,9 C 85 % 1016,9 hPa 0,0 l/m 5,5 km/h (1 Bft) O 83 0 min 0,000 mm 1,8 UV-I 359 W/m 18,1 C 20,7 C 9,7 km/h (2 Bft) 97,56 %
28.08.2017 11:20 20,8 C 23,9 C 86 % 1016,9 hPa 0,0 l/m 6,0 km/h (2 Bft) O-NO 74 0 min 0,000 mm 1,7 UV-I 321 W/m 18,4 C 20,8 C 11,3 km/h (2 Bft) 100,00 %
28.08.2017 11:22 20,8 C 23,9 C 86 % 1016,9 hPa 0,0 l/m 1,3 km/h (1 Bft) O-NO 74 0 min 0,000 mm 1,7 UV-I 301 W/m 18,4 C 20,8 C 3,2 km/h (1 Bft) 100,00 %
28.08.2017 11:24 20,9 C 23,9 C 85 % 1016,9 hPa 0,0 l/m 5,1 km/h (1 Bft) O-NO 67 0 min 0,000 mm 1,5 UV-I 264 W/m 18,3 C 20,9 C 8,0 km/h (2 Bft) 97,87 %
28.08.2017 11:26 20,9 C 23,9 C 84 % 1017,0 hPa 0,0 l/m 5,7 km/h (1 Bft) NO 38 0 min 0,000 mm 1,3 UV-I 224 W/m 18,1 C 20,9 C 8,0 km/h (2 Bft) 100,00 %
28.08.2017 11:28 21,0 C 23,9 C 84 % 1016,9 hPa 0,0 l/m 6,6 km/h (2 Bft) O-NO 67 0 min 0,000 mm 1,4 UV-I 226 W/m 18,2 C 20,9 C 9,7 km/h (2 Bft) 98,00 %
28.08.2017 11:30 20,9 C 23,9 C 83 % 1016,9 hPa 0,0 l/m 6,5 km/h (2 Bft) O-SO 112 0 min 0,000 mm 1,5 UV-I 242 W/m 17,9 C 20,9 C 9,7 km/h (2 Bft) 97,87 %
28.08.2017 11:32 20,9 C 23,9 C 84 % 1016,9 hPa 0,0 l/m 7,9 km/h (2 Bft) O-NO 59 0 min 0,000 mm 1,6 UV-I 255 W/m 18,1 C 20,3 C 11,3 km/h (2 Bft) 100,00 %
28.08.2017 11:34 20,8 C 23,9 C 82 % 1016,9 hPa 0,0 l/m 6,8 km/h (2 Bft) O-NO 63 0 min 0,000 mm 1,8 UV-I 278 W/m 17,6 C 20,7 C 9,7 km/h (2 Bft) 100,00 %
28.08.2017 11:36 20,8 C 23,9 C 83 % 1016,9 hPa 0,0 l/m 6,1 km/h (2 Bft) O-NO 67 0 min 0,000 mm 2,0 UV-I 312 W/m 17,8 C 20,8 C 9,7 km/h (2 Bft) 100,00 %
28.08.2017 11:38 20,9 C 23,9 C 83 % 1016,9 hPa 0,0 l/m 4,2 km/h (1 Bft) O-NO 67 0 min 0,000 mm 2,2 UV-I 346 W/m 17,9 C 20,9 C 6,4 km/h (2 Bft) 100,00 %
28.08.2017 11:40 21,0 C 23,9 C 82 % 1016,9 hPa 0,0 l/m 5,8 km/h (2 Bft) O-NO 61 0 min 0,000 mm 2,4 UV-I 376 W/m 17,8 C 21,0 C 9,7 km/h (2 Bft) 100,00 %
28.08.2017 11:42 21,2 C 23,9 C 82 % 1016,9 hPa 0,0 l/m 6,5 km/h (2 Bft) NO 49 0 min 0,000 mm 2,5 UV-I 403 W/m 18,0 C 21,2 C 9,7 km/h (2 Bft) 100,00 %
28.08.2017 11:44 21,3 C 23,9 C 81 % 1016,9 hPa 0,0 l/m 8,9 km/h (2 Bft) NO 53 2 min 0,000 mm 2,7 UV-I 448 W/m 17,9 C 20,4 C 14,5 km/h (3 Bft) 100,00 %
28.08.2017 11:46 21,4 C 23,9 C 82 % 1016,9 hPa 0,0 l/m 8,0 km/h (2 Bft) NO 55 2 min 0,000 mm 2,8 UV-I 504 W/m 18,2 C 20,8 C 9,7 km/h (2 Bft) 100,00 %
28.08.2017 11:48 21,4 C 23,9 C 81 % 1016,9 hPa 0,0 l/m 5,9 km/h (2 Bft) O-NO 63 2 min 0,000 mm 2,8 UV-I 525 W/m 18,0 C 21,4 C 8,0 km/h (2 Bft) 98,00 %
28.08.2017 11:50 21,6 C 23,9 C 82 % 1016,9 hPa 0,0 l/m 7,6 km/h (2 Bft) O-NO 67 2 min 0,000 mm 2,8 UV-I 545 W/m 18,4 C 21,2 C 9,7 km/h (2 Bft) 100,00 %
28.08.2017 11:52 21,7 C 23,9 C 81 % 1016,9 hPa 0,0 l/m 3,9 km/h (1 Bft) NO 37 2 min 0,000 mm 2,5 UV-I 448 W/m 18,3 C 21,7 C 6,4 km/h (2 Bft) 100,00 %
28.08.2017 11:54 21,7 C 23,9 C 79 % 1017,0 hPa 0,0 l/m 5,1 km/h (1 Bft) O-NO 68 0 min 0,000 mm 2,1 UV-I 342 W/m 17,9 C 21,7 C 6,4 km/h (2 Bft) 100,00 %
28.08.2017 11:56 21,6 C 23,9 C 79 % 1017,0 hPa 0,0 l/m 1,6 km/h (1 Bft) O-NO 67 0 min 0,000 mm 1,8 UV-I 281 W/m 17,8 C 21,6 C 4,8 km/h (1 Bft) 100,00 %
28.08.2017 11:58 21,4 C 23,9 C 80 % 1017,0 hPa 0,0 l/m 3,4 km/h (1 Bft) NO 41 0 min 0,000 mm 1,6 UV-I 245 W/m 17,8 C 21,4 C 6,4 km/h (2 Bft) 98,00 %
28.08.2017 12:00 21,3 C 23,9 C 79 % 1017,0 hPa 0,0 l/m 2,0 km/h (1 Bft) NO 41 0 min 0,203 mm 1,4 UV-I 212 W/m 17,5 C 21,3 C 4,8 km/h (1 Bft) 97,73 %
28.08.2017 12:02 21,3 C 23,9 C 81 % 1017,0 hPa 0,0 l/m 5,4 km/h (1 Bft) O-NO 71 0 min 0,000 mm 1,4 UV-I 203 W/m 17,9 C 21,3 C 9,7 km/h (2 Bft) 98,00 %
28.08.2017 12:04 21,2 C 23,9 C 81 % 1017,0 hPa 0,0 l/m 3,6 km/h (1 Bft) N-NW 344 0 min 0,000 mm 1,4 UV-I 208 W/m 17,8 C 21,2 C 6,4 km/h (2 Bft) 94,74 %
28.08.2017 12:06 21,2 C 23,9 C 80 % 1016,9 hPa 0,0 l/m 1,7 km/h (1 Bft) N-NO 13 0 min 0,000 mm 1,6 UV-I 239 W/m 17,6 C 21,2 C 6,4 km/h (2 Bft) 97,56 %
28.08.2017 12:08 21,2 C 23,9 C 81 % 1016,9 hPa 0,0 l/m 4,8 km/h (1 Bft) NO 36 0 min 0,000 mm 1,7 UV-I 231 W/m 17,8 C 21,2 C 8,0 km/h (2 Bft) 98,11 %
28.08.2017 12:10 21,2 C 23,9 C 80 % 1016,8 hPa 0,0 l/m 2,0 km/h (1 Bft) NO 36 0 min 0,000 mm 1,7 UV-I 205 W/m 17,6 C 21,2 C 6,4 km/h (2 Bft) 98,00 %
28.08.2017 12:12 21,1 C 23,9 C 81 % 1016,7 hPa 0,0 l/m 1,1 km/h (1 Bft) NO 36 0 min 0,000 mm 1,7 UV-I 194 W/m 17,7 C 21,1 C 4,8 km/h (1 Bft) 96,00 %
28.08.2017 12:14 21,2 C 23,9 C 82 % 1016,7 hPa 0,0 l/m 4,0 km/h (1 Bft) NO 42 0 min 0,000 mm 2,0 UV-I 239 W/m 18,0 C 21,2 C 6,4 km/h (2 Bft) 97,62 %
28.08.2017 12:16 21,1 C 23,9 C 79 % 1016,7 hPa 0,0 l/m 4,9 km/h (1 Bft) O-NO 58 0 min 0,000 mm 2,2 UV-I 248 W/m 17,3 C 21,1 C 6,4 km/h (2 Bft) 97,87 %
28.08.2017 12:18 21,2 C 23,9 C 80 % 1016,7 hPa 0,0 l/m 4,2 km/h (1 Bft) O-NO 58 0 min 0,000 mm 1,9 UV-I 215 W/m 17,6 C 21,2 C 6,4 km/h (2 Bft) 97,37 %
28.08.2017 12:20 21,2 C 23,9 C 78 % 1016,7 hPa 0,0 l/m 5,1 km/h (1 Bft) NO 34 0 min 0,000 mm 1,6 UV-I 142 W/m 17,2 C 21,2 C 8,0 km/h (2 Bft) 98,21 %
28.08.2017 12:22 21,0 C 23,9 C 79 % 1016,7 hPa 0,0 l/m 4,0 km/h (1 Bft) N-NO 24 0 min 0,000 mm 1,6 UV-I 139 W/m 17,2 C 21,0 C 6,4 km/h (2 Bft) 98,00 %
28.08.2017 12:24 20,9 C 23,9 C 80 % 1016,7 hPa 0,0 l/m 8,3 km/h (2 Bft) NO 34 0 min 0,000 mm 1,7 UV-I 141 W/m 17,3 C 20,2 C 11,3 km/h (2 Bft) 95,74 %
28.08.2017 12:26 20,9 C 23,9 C 80 % 1016,6 hPa 0,0 l/m 5,1 km/h (1 Bft) NO 37 0 min 0,000 mm 1,7 UV-I 127 W/m 17,3 C 20,9 C 9,7 km/h (2 Bft) 97,87 %
28.08.2017 12:28 20,8 C 23,9 C 79 % 1016,7 hPa 0,0 l/m 2,6 km/h (1 Bft) NO 37 0 min 0,000 mm 1,6 UV-I 118 W/m 17,0 C 20,8 C 4,8 km/h (1 Bft) 97,37 %
28.08.2017 12:30 20,8 C 23,9 C 80 % 1016,6 hPa 0,0 l/m 2,3 km/h (1 Bft) NO 48 0 min 0,000 mm 1,6 UV-I 123 W/m 17,2 C 20,8 C 4,8 km/h (1 Bft) 97,96 %
28.08.2017 12:32 20,8 C 23,9 C 82 % 1016,6 hPa 0,0 l/m 1,9 km/h (1 Bft) NO 49 0 min 0,000 mm 2,0 UV-I 146 W/m 17,6 C 20,8 C 3,2 km/h (1 Bft) 100,00 %
28.08.2017 12:34 20,8 C 23,9 C 82 % 1016,5 hPa 0,0 l/m 3,4 km/h (1 Bft) NO 50 0 min 0,000 mm 1,8 UV-I 151 W/m 17,6 C 20,8 C 4,8 km/h (1 Bft) 100,00 %
28.08.2017 12:36 20,8 C 23,9 C 79 % 1016,5 hPa 0,0 l/m 3,2 km/h (1 Bft) NO 49 0 min 0,000 mm 1,8 UV-I 138 W/m 17,0 C 20,8 C 6,4 km/h (2 Bft) 100,00 %
28.08.2017 12:38 20,8 C 23,9 C 81 % 1016,5 hPa 0,0 l/m 1,3 km/h (1 Bft) NO 49 0 min 0,000 mm 1,8 UV-I 135 W/m 17,4 C 20,8 C 3,2 km/h (1 Bft) 97,37 %
28.08.2017 12:40 20,8 C 23,9 C 82 % 1016,4 hPa 0,0 l/m 2,6 km/h (1 Bft) NO 49 0 min 0,000 mm 1,9 UV-I 154 W/m 17,6 C 20,8 C 6,4 km/h (2 Bft) 100,00 %
28.08.2017 12:42 20,8 C 23,9 C 83 % 1016,4 hPa 0,0 l/m 3,4 km/h (1 Bft) O-NO 63 0 min 0,000 mm 2,2 UV-I 245 W/m 17,8 C 20,8 C 6,4 km/h (2 Bft) 97,56 %
28.08.2017 12:44 20,8 C 23,9 C 82 % 1016,5 hPa 0,0 l/m 3,7 km/h (1 Bft) O-NO 63 0 min 0,000 mm 2,5 UV-I 313 W/m 17,6 C 20,8 C 4,8 km/h (1 Bft) 100,00 %
28.08.2017 12:46 20,9 C 23,9 C 80 % 1016,4 hPa 0,0 l/m 2,7 km/h (1 Bft) O-NO 62 0 min 0,000 mm 2,3 UV-I 336 W/m 17,3 C 20,9 C 6,4 km/h (2 Bft) 100,00 %
28.08.2017 12:48 21,1 C 23,9 C 81 % 1016,5 hPa 0,0 l/m 4,4 km/h (1 Bft) O 94 0 min 0,000 mm 1,6 UV-I 179 W/m 17,7 C 21,1 C 6,4 km/h (2 Bft) 100,00 %
28.08.2017 12:50 21,1 C 23,9 C 80 % 1016,5 hPa 0,0 l/m 3,7 km/h (1 Bft) O-SO 109 0 min 0,000 mm 1,3 UV-I 135 W/m 17,5 C 21,1 C 6,4 km/h (2 Bft) 100,00 %
28.08.2017 12:52 21,1 C 23,9 C 81 % 1016,5 hPa 0,0 l/m 4,7 km/h (1 Bft) O-SO 116 0 min 0,000 mm 1,1 UV-I 113 W/m 17,7 C 21,1 C 6,4 km/h (2 Bft) 100,00 %
28.08.2017 12:54 21,0 C 23,9 C 79 % 1016,5 hPa 0,0 l/m 5,2 km/h (1 Bft) O-SO 118 0 min 0,000 mm 1,0 UV-I 103 W/m 17,2 C 21,0 C 9,7 km/h (2 Bft) 100,00 %
28.08.2017 12:56 20,9 C 23,9 C 82 % 1016,5 hPa 0,0 l/m 4,3 km/h (1 Bft) O-SO 118 0 min 0,000 mm 1,0 UV-I 102 W/m 17,7 C 20,9 C 4,8 km/h (1 Bft) 100,00 %
28.08.2017 12:58 20,9 C 23,9 C 82 % 1016,5 hPa 0,0 l/m 3,8 km/h (1 Bft) O-SO 117 0 min 0,000 mm 1,0 UV-I 104 W/m 17,7 C 20,9 C 6,4 km/h (2 Bft) 100,00 %
28.08.2017 13:00 20,8 C 23,9 C 83 % 1016,5 hPa 0,0 l/m 4,9 km/h (1 Bft) O-SO 105 0 min 0,127 mm 1,0 UV-I 107 W/m 17,8 C 20,8 C 6,4 km/h (2 Bft) 100,00 %
28.08.2017 13:02 20,7 C 23,9 C 83 % 1016,5 hPa 0,0 l/m 5,0 km/h (1 Bft) O-SO 109 0 min 0,000 mm 1,0 UV-I 107 W/m 17,7 C 20,7 C 9,7 km/h (2 Bft) 100,00 %
28.08.2017 13:04 20,7 C 23,9 C 84 % 1016,6 hPa 0,0 l/m 4,2 km/h (1 Bft) O-SO 109 0 min 0,000 mm 0,9 UV-I 100 W/m 17,9 C 20,7 C 6,4 km/h (2 Bft) 100,00 %
28.08.2017 13:06 20,6 C 23,9 C 83 % 1016,6 hPa 0,0 l/m 4,6 km/h (1 Bft) O-SO 115 0 min 0,000 mm 0,8 UV-I 94 W/m 17,6 C 20,6 C 6,4 km/h (2 Bft) 100,00 %
28.08.2017 13:08 20,6 C 23,9 C 82 % 1016,7 hPa 0,0 l/m 3,3 km/h (1 Bft) SO 128 0 min 0,000 mm 0,8 UV-I 91 W/m 17,4 C 20,6 C 6,4 km/h (2 Bft) 100,00 %
28.08.2017 13:10 20,5 C 23,9 C 82 % 1016,6 hPa 0,0 l/m 3,3 km/h (1 Bft) SO 136 0 min 0,000 mm 0,8 UV-I 96 W/m 17,3 C 20,5 C 6,4 km/h (2 Bft) 100,00 %
28.08.2017 13:12 20,5 C 23,9 C 82 % 1016,6 hPa 0,0 l/m 3,6 km/h (1 Bft) O-SO 108 0 min 0,000 mm 0,8 UV-I 98 W/m 17,3 C 20,5 C 6,4 km/h (2 Bft) 100,00 %
28.08.2017 13:14 20,5 C 23,9 C 83 % 1016,5 hPa 0,0 l/m 1,9 km/h (1 Bft) O-SO 108 0 min 0,000 mm 0,8 UV-I 96 W/m 17,5 C 20,5 C 4,8 km/h (1 Bft) 100,00 %
28.08.2017 13:16 20,5 C 23,9 C 83 % 1016,6 hPa 0,0 l/m 3,0 km/h (1 Bft) SO 125 0 min 0,000 mm 0,8 UV-I 91 W/m 17,5 C 20,5 C 6,4 km/h (2 Bft) 100,00 %
28.08.2017 13:18 20,4 C 23,9 C 82 % 1016,6 hPa 0,0 l/m 3,2 km/h (1 Bft) SO 134 0 min 0,000 mm 0,7 UV-I 84 W/m 17,2 C 20,4 C 4,8 km/h (1 Bft) 98,00 %
28.08.2017 13:20 20,4 C 23,9 C 82 % 1016,6 hPa 0,0 l/m 2,7 km/h (1 Bft) SO 138 0 min 0,000 mm 0,6 UV-I 81 W/m 17,2 C 20,4 C 6,4 km/h (2 Bft) 98,11 %
28.08.2017 13:22 20,4 C 23,9 C 82 % 1016,5 hPa 0,0 l/m 2,7 km/h (1 Bft) SO 139 0 min 0,000 mm 0,6 UV-I 79 W/m 17,2 C 20,4 C 4,8 km/h (1 Bft) 100,00 %
28.08.2017 13:24 20,4 C 23,9 C 82 % 1016,5 hPa 0,0 l/m 1,6 km/h (1 Bft) SO 139 0 min 0,000 mm 0,6 UV-I 84 W/m 17,2 C 20,4 C 4,8 km/h (1 Bft) 98,00 %
28.08.2017 13:26 20,4 C 23,9 C 82 % 1016,4 hPa 0,0 l/m 0,7 km/h (0 Bft) SO 139 0 min 0,000 mm 0,6 UV-I 88 W/m 17,2 C 20,4 C 3,2 km/h (1 Bft) 97,87 %
28.08.2017 13:28 20,4 C 23,9 C 84 % 1016,4 hPa 0,0 l/m 0,8 km/h (0 Bft) SO 139 0 min 0,000 mm 0,6 UV-I 89 W/m 17,6 C 20,4 C 3,2 km/h (1 Bft) 100,00 %
28.08.2017 13:30 20,4 C 23,9 C 84 % 1016,4 hPa 0,0 l/m 2,1 km/h (1 Bft) SO 139 0 min 0,000 mm 0,6 UV-I 88 W/m 17,6 C 20,4 C 3,2 km/h (1 Bft) 97,44 %
28.08.2017 13:32 20,3 C 23,9 C 85 % 1016,4 hPa 0,0 l/m 1,9 km/h (1 Bft) SO 139 0 min 0,000 mm 0,6 UV-I 89 W/m 17,7 C 20,3 C 3,2 km/h (1 Bft) 100,00 %
28.08.2017 13:34 20,3 C 23,9 C 85 % 1016,3 hPa 0,0 l/m 0,1 km/h (0 Bft) SO 139 0 min 0,000 mm 0,6 UV-I 90 W/m 17,7 C 20,3 C 1,6 km/h (1 Bft) 100,00 %
28.08.2017 13:36 20,3 C 23,9 C 85 % 1016,3 hPa 0,0 l/m 0,5 km/h (0 Bft) SO 139 0 min 0,000 mm 0,6 UV-I 91 W/m 17,7 C 20,3 C 3,2 km/h (1 Bft) 100,00 %
28.08.2017 13:38 20,3 C 23,9 C 86 % 1016,2 hPa 0,0 l/m 0,1 km/h (0 Bft) SO 139 0 min 0,000 mm 0,6 UV-I 95 W/m 17,9 C 20,3 C 1,6 km/h (1 Bft) 97,87 %
28.08.2017 13:40 20,2 C 23,9 C 87 % 1016,2 hPa 0,0 l/m 0,6 km/h (0 Bft) SO 139 0 min 0,000 mm 0,6 UV-I 98 W/m 18,0 C 20,2 C 1,6 km/h (1 Bft) 100,00 %
28.08.2017 13:42 20,2 C 23,9 C 87 % 1016,1 hPa 0,0 l/m 0,5 km/h (0 Bft) SO 139 0 min 0,000 mm 0,7 UV-I 101 W/m 18,0 C 20,2 C 1,6 km/h (1 Bft) 98,00 %
28.08.2017 13:44 20,2 C 23,9 C 86 % 1016,1 hPa 0,0 l/m 0,3 km/h (0 Bft) SO 139 0 min 0,000 mm 0,7 UV-I 104 W/m 17,8 C 20,2 C 1,6 km/h (1 Bft) 100,00 %
28.08.2017 13:46 20,1 C 23,9 C 85 % 1016,2 hPa 0,0 l/m 0,2 km/h (0 Bft) SO 139 0 min 0,000 mm 0,7 UV-I 108 W/m 17,5 C 20,1 C 1,6 km/h (1 Bft) 100,00 %
28.08.2017 13:48 20,2 C 23,9 C 86 % 1016,2 hPa 0,0 l/m 0,7 km/h (0 Bft) SO 139 0 min 0,000 mm 0,7 UV-I 113 W/m 17,8 C 20,2 C 1,6 km/h (1 Bft) 98,00 %
28.08.2017 13:50 20,2 C 23,9 C 86 % 1016,2 hPa 0,0 l/m 0,0 km/h (0 Bft) SO 139 0 min 0,000 mm 0,8 UV-I 118 W/m 17,8 C 20,2 C 0,0 km/h (0 Bft) 97,14 %
28.08.2017 13:52 20,2 C 23,9 C 86 % 1016,2 hPa 0,0 l/m 0,1 km/h (0 Bft) SO 139 0 min 0,000 mm 0,8 UV-I 124 W/m 17,8 C 20,2 C 1,6 km/h (1 Bft) 98,11 %
28.08.2017 13:54 20,2 C 23,9 C 87 % 1016,3 hPa 0,0 l/m 0,0 km/h (0 Bft) SO 139 0 min 0,000 mm 0,9 UV-I 130 W/m 18,0 C 20,2 C 0,0 km/h (0 Bft) 96,00 %
28.08.2017 13:56 20,3 C 23,9 C 86 % 1016,4 hPa 0,0 l/m 0,4 km/h (0 Bft) SO 139 0 min 0,000 mm 0,9 UV-I 137 W/m 17,9 C 20,3 C 3,2 km/h (1 Bft) 97,56 %
28.08.2017 13:58 20,3 C 23,9 C 86 % 1016,4 hPa 0,0 l/m 2,6 km/h (1 Bft) SO 139 0 min 0,000 mm 0,9 UV-I 144 W/m 17,9 C 20,3 C 4,8 km/h (1 Bft) 96,00 %
28.08.2017 14:00 20,3 C 23,9 C 85 % 1016,4 hPa 0,0 l/m 1,8 km/h (1 Bft) SO 140 0 min 0,077 mm 1,0 UV-I 152 W/m 17,7 C 20,3 C 3,2 km/h (1 Bft) 96,00 %
28.08.2017 14:02 20,3 C 23,9 C 85 % 1016,4 hPa 0,0 l/m 1,7 km/h (1 Bft) SO 140 0 min 0,000 mm 1,1 UV-I 159 W/m 17,7 C 20,3 C 3,2 km/h (1 Bft) 94,74 %
28.08.2017 14:04 20,3 C 23,9 C 85 % 1016,4 hPa 0,0 l/m 1,9 km/h (1 Bft) SO 140 0 min 0,000 mm 1,1 UV-I 167 W/m 17,7 C 20,3 C 3,2 km/h (1 Bft) 96,00 %
28.08.2017 14:06 20,3 C 23,9 C 85 % 1016,4 hPa 0,0 l/m 4,2 km/h (1 Bft) S-SO 165 0 min 0,000 mm 1,2 UV-I 174 W/m 17,7 C 20,3 C 8,0 km/h (2 Bft) 96,00 %
28.08.2017 14:08 20,3 C 23,9 C 85 % 1016,4 hPa 0,0 l/m 3,1 km/h (1 Bft) S-SO 162 0 min 0,000 mm 1,3 UV-I 183 W/m 17,7 C 20,3 C 6,4 km/h (2 Bft) 95,74 %
28.08.2017 14:10 20,4 C 23,9 C 85 % 1016,4 hPa 0,0 l/m 2,1 km/h (1 Bft) S-SO 162 0 min 0,000 mm 1,3 UV-I 187 W/m 17,8 C 20,4 C 6,4 km/h (2 Bft) 92,59 %
28.08.2017 14:12 20,4 C 23,9 C 84 % 1016,4 hPa 0,0 l/m 3,2 km/h (1 Bft) S-SO 162 0 min 0,000 mm 1,4 UV-I 188 W/m 17,6 C 20,4 C 8,0 km/h (2 Bft) 93,55 %
28.08.2017 14:14 20,5 C 23,9 C 84 % 1016,4 hPa 0,0 l/m 2,1 km/h (1 Bft) S-SO 161 0 min 0,000 mm 1,4 UV-I 187 W/m 17,7 C 20,5 C 6,4 km/h (2 Bft) 94,34 %
28.08.2017 14:16 20,5 C 23,9 C 83 % 1016,4 hPa 0,0 l/m 3,4 km/h (1 Bft) SO 144 0 min 0,000 mm 1,5 UV-I 183 W/m 17,5 C 20,5 C 8,0 km/h (2 Bft) 93,62 %
28.08.2017 14:18 20,6 C 23,9 C 83 % 1016,5 hPa 0,0 l/m 2,0 km/h (1 Bft) S-SO 157 0 min 0,000 mm 1,5 UV-I 178 W/m 17,6 C 20,6 C 4,8 km/h (1 Bft) 96,00 %
28.08.2017 14:20 20,6 C 23,9 C 83 % 1016,4 hPa 0,0 l/m 3,6 km/h (1 Bft) S-SO 163 0 min 0,000 mm 1,5 UV-I 176 W/m 17,6 C 20,6 C 8,0 km/h (2 Bft) 94,29 %
28.08.2017 14:22 20,6 C 23,9 C 83 % 1016,5 hPa 0,0 l/m 2,8 km/h (1 Bft) S-SO 155 0 min 0,000 mm 1,5 UV-I 176 W/m 17,6 C 20,6 C 6,4 km/h (2 Bft) 98,11 %
28.08.2017 14:24 20,6 C 23,9 C 83 % 1016,5 hPa 0,0 l/m 3,0 km/h (1 Bft) S-SO 155 0 min 0,000 mm 1,7 UV-I 187 W/m 17,6 C 20,6 C 8,0 km/h (2 Bft) 95,12 %
28.08.2017 14:26 20,7 C 23,9 C 84 % 1016,6 hPa 0,0 l/m 3,0 km/h (1 Bft) S-SO 167 0 min 0,000 mm 2,1 UV-I 274 W/m 17,9 C 20,7 C 8,0 km/h (2 Bft) 95,74 %
28.08.2017 14:28 20,7 C 23,9 C 83 % 1016,7 hPa 0,0 l/m 5,4 km/h (1 Bft) S-SO 158 0 min 0,000 mm 2,1 UV-I 317 W/m 17,7 C 20,7 C 11,3 km/h (2 Bft) 96,23 %
28.08.2017 14:30 20,8 C 23,9 C 82 % 1016,8 hPa 0,0 l/m 4,3 km/h (1 Bft) S-SW 198 0 min 0,000 mm 1,9 UV-I 236 W/m 17,6 C 20,8 C 8,0 km/h (2 Bft) 95,12 %
28.08.2017 14:32 20,8 C 23,9 C 82 % 1016,8 hPa 0,0 l/m 5,2 km/h (1 Bft) S 172 0 min 0,000 mm 1,7 UV-I 187 W/m 17,6 C 20,8 C 9,7 km/h (2 Bft) 98,11 %
28.08.2017 14:34 20,8 C 23,9 C 83 % 1016,8 hPa 0,0 l/m 3,4 km/h (1 Bft) S 169 0 min 0,000 mm 1,6 UV-I 174 W/m 17,8 C 20,8 C 8,0 km/h (2 Bft) 94,00 %
28.08.2017 14:36 20,8 C 23,9 C 83 % 1016,7 hPa 0,0 l/m 3,3 km/h (1 Bft) S-SO 167 0 min 0,000 mm 1,5 UV-I 172 W/m 17,8 C 20,8 C 8,0 km/h (2 Bft) 97,56 %
28.08.2017 14:38 20,8 C 23,9 C 83 % 1016,7 hPa 0,0 l/m 6,0 km/h (2 Bft) S 175 0 min 0,000 mm 1,5 UV-I 173 W/m 17,8 C 20,8 C 11,3 km/h (2 Bft) 98,00 %
28.08.2017 14:40 20,8 C 23,9 C 83 % 1016,7 hPa 0,0 l/m 3,9 km/h (1 Bft) S-SO 161 0 min 0,000 mm 1,5 UV-I 177 W/m 17,8 C 20,8 C 8,0 km/h (2 Bft) 97,37 %
28.08.2017 14:42 20,8 C 23,9 C 83 % 1016,7 hPa 0,0 l/m 2,0 km/h (1 Bft) S 173 0 min 0,000 mm 1,5 UV-I 181 W/m 17,8 C 20,8 C 4,8 km/h (1 Bft) 96,00 %
28.08.2017 14:44 20,8 C 23,9 C 83 % 1016,7 hPa 0,0 l/m 4,7 km/h (1 Bft) S-SW 209 0 min 0,000 mm 1,5 UV-I 184 W/m 17,8 C 20,8 C 8,0 km/h (2 Bft) 97,87 %
28.08.2017 14:46 20,8 C 23,9 C 83 % 1016,7 hPa 0,0 l/m 1,8 km/h (1 Bft) S 187 0 min 0,000 mm 1,5 UV-I 186 W/m 17,8 C 20,8 C 6,4 km/h (2 Bft) 97,87 %
28.08.2017 14:48 20,8 C 23,9 C 83 % 1016,7 hPa 0,0 l/m 1,9 km/h (1 Bft) S 186 0 min 0,000 mm 1,5 UV-I 187 W/m 17,8 C 20,8 C 3,2 km/h (1 Bft) 97,62 %
28.08.2017 14:50 20,8 C 23,9 C 83 % 1016,7 hPa 0,0 l/m 1,6 km/h (1 Bft) S 185 0 min 0,000 mm 1,5 UV-I 191 W/m 17,8 C 20,8 C 3,2 km/h (1 Bft) 98,28 %
28.08.2017 14:52 20,8 C 23,9 C 83 % 1016,7 hPa 0,0 l/m 2,0 km/h (1 Bft) S 185 0 min 0,000 mm 1,5 UV-I 194 W/m 17,8 C 20,8 C 4,8 km/h (1 Bft) 97,22 %
28.08.2017 14:54 20,9 C 23,9 C 83 % 1016,7 hPa 0,0 l/m 1,3 km/h (1 Bft) S 185 0 min 0,000 mm 1,5 UV-I 205 W/m 17,9 C 20,9 C 3,2 km/h (1 Bft) 98,21 %
28.08.2017 14:56 20,9 C 23,9 C 84 % 1016,7 hPa 0,0 l/m 2,6 km/h (1 Bft) S 185 0 min 0,000 mm 1,6 UV-I 218 W/m 18,1 C 20,9 C 6,4 km/h (2 Bft) 100,00 %
28.08.2017 14:58 21,0 C 23,9 C 84 % 1016,6 hPa 0,0 l/m 2,3 km/h (1 Bft) S-SW 211 0 min 0,000 mm 1,7 UV-I 243 W/m 18,2 C 21,0 C 4,8 km/h (1 Bft) 98,00 %
28.08.2017 15:00 21,1 C 23,9 C 83 % 1016,6 hPa 0,0 l/m 4,0 km/h (1 Bft) S-SW 196 0 min 0,127 mm 1,7 UV-I 273 W/m 18,1 C 21,1 C 8,0 km/h (2 Bft) 100,00 %
28.08.2017 15:02 21,2 C 23,9 C 82 % 1016,6 hPa 0,0 l/m 5,5 km/h (1 Bft) S-SW 209 0 min 0,000 mm 1,7 UV-I 289 W/m 18,0 C 21,2 C 9,7 km/h (2 Bft) 100,00 %
28.08.2017 15:04 21,3 C 23,9 C 83 % 1016,5 hPa 0,0 l/m 2,0 km/h (1 Bft) S-SW 209 0 min 0,000 mm 1,8 UV-I 301 W/m 18,3 C 21,3 C 3,2 km/h (1 Bft) 100,00 %
28.08.2017 15:06 21,3 C 23,9 C 81 % 1016,4 hPa 0,0 l/m 3,6 km/h (1 Bft) S 177 0 min 0,000 mm 1,9 UV-I 325 W/m 17,9 C 21,3 C 8,0 km/h (2 Bft) 100,00 %
28.08.2017 15:08 21,3 C 23,9 C 81 % 1016,3 hPa 0,0 l/m 5,5 km/h (1 Bft) S 171 0 min 0,000 mm 1,9 UV-I 335 W/m 17,9 C 21,3 C 11,3 km/h (2 Bft) 98,00 %
28.08.2017 15:10 21,4 C 23,9 C 81 % 1016,3 hPa 0,0 l/m 5,4 km/h (1 Bft) S 178 2 min 0,000 mm 2,1 UV-I 377 W/m 18,0 C 21,4 C 9,7 km/h (2 Bft) 100,00 %
28.08.2017 15:12 21,5 C 23,9 C 82 % 1016,3 hPa 0,0 l/m 5,0 km/h (1 Bft) S-SW 207 2 min 0,000 mm 2,1 UV-I 375 W/m 18,3 C 21,5 C 8,0 km/h (2 Bft) 97,87 %
28.08.2017 15:14 21,6 C 23,9 C 80 % 1016,3 hPa 0,0 l/m 5,4 km/h (1 Bft) S-SW 208 2 min 0,000 mm 2,1 UV-I 377 W/m 18,0 C 21,6 C 8,0 km/h (2 Bft) 95,74 %
28.08.2017 15:16 21,7 C 23,9 C 81 % 1016,4 hPa 0,0 l/m 6,0 km/h (2 Bft) S 173 2 min 0,000 mm 2,1 UV-I 387 W/m 18,3 C 21,7 C 11,3 km/h (2 Bft) 100,00 %
28.08.2017 15:18 21,7 C 23,9 C 80 % 1016,3 hPa 0,0 l/m 5,4 km/h (1 Bft) S-SO 151 2 min 0,000 mm 2,1 UV-I 372 W/m 18,1 C 21,7 C 11,3 km/h (2 Bft) 100,00 %
28.08.2017 15:20 21,7 C 23,9 C 80 % 1016,2 hPa 0,0 l/m 4,9 km/h (1 Bft) S-SO 159 2 min 0,000 mm 2,1 UV-I 385 W/m 18,1 C 21,7 C 11,3 km/h (2 Bft) 100,00 %
28.08.2017 15:22 21,7 C 23,9 C 80 % 1016,2 hPa 0,0 l/m 6,2 km/h (2 Bft) SW 229 0 min 0,000 mm 2,0 UV-I 354 W/m 18,1 C 21,7 C 12,9 km/h (3 Bft) 100,00 %
28.08.2017 15:24 21,7 C 23,9 C 82 % 1016,2 hPa 0,0 l/m 4,9 km/h (1 Bft) S 186 0 min 0,000 mm 1,9 UV-I 324 W/m 18,5 C 21,7 C 11,3 km/h (2 Bft) 98,57 %
28.08.2017 15:26 21,7 C 23,9 C 82 % 1016,1 hPa 0,0 l/m 2,9 km/h (1 Bft) SW 217 0 min 0,000 mm 1,9 UV-I 325 W/m 18,5 C 21,7 C 8,0 km/h (2 Bft) 97,56 %
28.08.2017 15:28 21,8 C 23,9 C 82 % 1016,1 hPa 0,0 l/m 6,8 km/h (2 Bft) S-SW 193 0 min 0,000 mm 1,9 UV-I 324 W/m 18,6 C 21,7 C 14,5 km/h (3 Bft) 100,00 %
28.08.2017 15:30 21,7 C 23,9 C 82 % 1016,2 hPa 0,0 l/m 4,9 km/h (1 Bft) S-SO 158 0 min 0,000 mm 1,8 UV-I 298 W/m 18,5 C 21,7 C 12,9 km/h (3 Bft) 100,00 %
28.08.2017 15:32 21,6 C 23,9 C 82 % 1016,2 hPa 0,0 l/m 3,7 km/h (1 Bft) S-SW 199 0 min 0,000 mm 1,8 UV-I 280 W/m 18,4 C 21,6 C 6,4 km/h (2 Bft) 100,00 %
28.08.2017 15:34 21,7 C 23,9 C 84 % 1016,3 hPa 0,0 l/m 5,4 km/h (1 Bft) S-SW 208 0 min 0,000 mm 1,7 UV-I 278 W/m 18,9 C 21,7 C 8,0 km/h (2 Bft) 100,00 %
28.08.2017 15:36 21,7 C 23,9 C 83 % 1016,4 hPa 0,0 l/m 8,1 km/h (2 Bft) SW 227 0 min 0,000 mm 1,7 UV-I 282 W/m 18,7 C 21,1 C 14,5 km/h (3 Bft) 100,00 %
28.08.2017 15:38 21,6 C 23,9 C 83 % 1016,4 hPa 0,0 l/m 6,8 km/h (2 Bft) W-SW 247 0 min 0,000 mm 1,7 UV-I 293 W/m 18,6 C 21,5 C 11,3 km/h (2 Bft) 100,00 %
28.08.2017 15:40 21,6 C 23,9 C 84 % 1016,4 hPa 0,0 l/m 6,5 km/h (2 Bft) SW 222 0 min 0,000 mm 1,7 UV-I 334 W/m 18,8 C 21,6 C 9,7 km/h (2 Bft) 100,00 %
28.08.2017 15:42 21,7 C 23,9 C 85 % 1016,3 hPa 0,0 l/m 5,0 km/h (1 Bft) SW 230 2 min 0,000 mm 1,9 UV-I 400 W/m 19,1 C 21,7 C 6,4 km/h (2 Bft) 100,00 %
28.08.2017 15:44 21,7 C 23,9 C 83 % 1016,3 hPa 0,0 l/m 3,9 km/h (1 Bft) SW 223 2 min 0,000 mm 2,0 UV-I 439 W/m 18,7 C 21,7 C 9,7 km/h (2 Bft) 100,00 %
28.08.2017 15:46 21,8 C 23,9 C 83 % 1016,2 hPa 0,0 l/m 5,3 km/h (1 Bft) SW 226 2 min 0,000 mm 2,0 UV-I 407 W/m 18,8 C 21,8 C 8,0 km/h (2 Bft) 100,00 %
28.08.2017 15:48 21,9 C 23,9 C 82 % 1016,3 hPa 0,0 l/m 9,3 km/h (2 Bft) W-SW 241 2 min 0,000 mm 2,0 UV-I 422 W/m 18,7 C 20,9 C 16,1 km/h (3 Bft) 98,00 %
28.08.2017 15:50 21,9 C 23,9 C 82 % 1016,2 hPa 0,0 l/m 11,3 km/h (2 Bft) W-SW 252 2 min 0,000 mm 2,2 UV-I 471 W/m 18,7 C 20,4 C 16,1 km/h (3 Bft) 100,00 %
28.08.2017 15:52 22,0 C 23,9 C 82 % 1016,2 hPa 0,0 l/m 7,4 km/h (2 Bft) SW 234 2 min 0,000 mm 2,3 UV-I 565 W/m 18,8 C 21,7 C 12,9 km/h (3 Bft) 100,00 %
28.08.2017 15:54 22,2 C 23,9 C 81 % 1016,2 hPa 0,0 l/m 6,4 km/h (2 Bft) SW 234 2 min 0,000 mm 2,4 UV-I 625 W/m 18,8 C 22,2 C 9,7 km/h (2 Bft) 100,00 %
28.08.2017 15:56 22,4 C 23,9 C 82 % 1016,1 hPa 0,0 l/m 7,0 km/h (2 Bft) SW 215 2 min 0,000 mm 2,4 UV-I 640 W/m 19,2 C 22,2 C 11,3 km/h (2 Bft) 98,00 %
28.08.2017 15:58 22,4 C 24,4 C 81 % 1016,1 hPa 0,0 l/m 9,3 km/h (2 Bft) W-SW 238 2 min 0,000 mm 2,4 UV-I 589 W/m 19,0 C 21,5 C 14,5 km/h (3 Bft) 95,74 %
28.08.2017 16:00 22,4 C 23,9 C 80 % 1016,2 hPa 0,0 l/m 7,0 km/h (2 Bft) SW 217 2 min 0,254 mm 2,4 UV-I 589 W/m 18,8 C 22,2 C 12,9 km/h (3 Bft) 98,11 %
28.08.2017 16:02 22,4 C 24,4 C 81 % 1016,3 hPa 0,0 l/m 4,9 km/h (1 Bft) S-SO 163 2 min 0,000 mm 2,3 UV-I 600 W/m 19,0 C 22,4 C 9,7 km/h (2 Bft) 97,56 %
28.08.2017 16:04 22,5 C 24,4 C 78 % 1016,4 hPa 0,0 l/m 6,6 km/h (2 Bft) W-SW 253 2 min 0,000 mm 2,3 UV-I 637 W/m 18,5 C 22,4 C 11,3 km/h (2 Bft) 98,11 %
28.08.2017 16:06 22,6 C 24,4 C 79 % 1016,3 hPa 0,0 l/m 4,7 km/h (1 Bft) S-SW 197 2 min 0,000 mm 2,2 UV-I 649 W/m 18,8 C 22,6 C 9,7 km/h (2 Bft) 95,74 %
28.08.2017 16:08 22,6 C 24,4 C 80 % 1016,2 hPa 0,0 l/m 7,4 km/h (2 Bft) S-SW 211 2 min 0,000 mm 2,2 UV-I 648 W/m 19,0 C 22,3 C 11,3 km/h (2 Bft) 97,22 %
28.08.2017 16:10 22,6 C 24,4 C 78 % 1016,1 hPa 0,0 l/m 4,7 km/h (1 Bft) SW 234 2 min 0,000 mm 2,2 UV-I 623 W/m 18,6 C 22,6 C 8,0 km/h (2 Bft) 98,00 %
28.08.2017 16:12 22,4 C 24,4 C 77 % 1016,1 hPa 0,0 l/m 7,1 km/h (2 Bft) S-SW 192 2 min 0,000 mm 2,1 UV-I 619 W/m 18,2 C 22,2 C 11,3 km/h (2 Bft) 98,00 %
28.08.2017 16:14 22,3 C 24,4 C 77 % 1016,1 hPa 0,0 l/m 4,4 km/h (1 Bft) S 187 2 min 0,000 mm 1,9 UV-I 533 W/m 18,1 C 22,3 C 9,7 km/h (2 Bft) 97,73 %
28.08.2017 16:16 22,3 C 24,4 C 78 % 1016,2 hPa 0,0 l/m 2,7 km/h (1 Bft) W-SW 248 2 min 0,000 mm 1,9 UV-I 586 W/m 18,3 C 22,3 C 8,0 km/h (2 Bft) 96,15 %
28.08.2017 16:18 22,3 C 24,4 C 79 % 1016,3 hPa 0,0 l/m 6,9 km/h (2 Bft) SW 229 2 min 0,000 mm 1,6 UV-I 446 W/m 18,5 C 22,1 C 9,7 km/h (2 Bft) 94,74 %
28.08.2017 16:20 22,3 C 24,4 C 78 % 1016,2 hPa 0,0 l/m 5,5 km/h (1 Bft) SW 224 0 min 0,000 mm 1,4 UV-I 284 W/m 18,3 C 22,3 C 8,0 km/h (2 Bft) 98,21 %
28.08.2017 16:22 22,4 C 24,4 C 78 % 1016,2 hPa 0,0 l/m 5,6 km/h (1 Bft) SW 223 2 min 0,000 mm 1,6 UV-I 378 W/m 18,4 C 22,4 C 9,7 km/h (2 Bft) 97,56 %
28.08.2017 16:24 22,4 C 24,4 C 78 % 1016,1 hPa 0,0 l/m 3,2 km/h (1 Bft) W 269 2 min 0,000 mm 1,4 UV-I 540 W/m 18,4 C 22,4 C 6,4 km/h (2 Bft) 97,87 %
28.08.2017 16:26 22,4 C 24,4 C 78 % 1016,2 hPa 0,0 l/m 3,0 km/h (1 Bft) SW 230 2 min 0,000 mm 1,2 UV-I 541 W/m 18,4 C 22,4 C 6,4 km/h (2 Bft) 97,87 %
28.08.2017 16:28 22,5 C 24,4 C 77 % 1016,1 hPa 0,0 l/m 4,4 km/h (1 Bft) W-SW 243 2 min 0,000 mm 1,1 UV-I 488 W/m 18,3 C 22,5 C 6,4 km/h (2 Bft) 100,00 %
28.08.2017 16:30 22,4 C 24,4 C 77 % 1016,2 hPa 0,0 l/m 6,7 km/h (2 Bft) SW 227 0 min 0,000 mm 0,9 UV-I 277 W/m 18,2 C 22,3 C 9,7 km/h (2 Bft) 97,56 %
28.08.2017 16:32 22,4 C 24,4 C 75 % 1016,2 hPa 0,0 l/m 6,1 km/h (2 Bft) S-SW 202 0 min 0,000 mm 0,6 UV-I 217 W/m 17,7 C 22,4 C 9,7 km/h (2 Bft) 98,11 %
28.08.2017 16:34 22,3 C 24,4 C 76 % 1016,2 hPa 0,0 l/m 4,9 km/h (1 Bft) W-NW 283 0 min 0,000 mm 0,6 UV-I 187 W/m 17,9 C 22,3 C 9,7 km/h (2 Bft) 97,87 %
28.08.2017 16:36 22,2 C 24,4 C 77 % 1016,2 hPa 0,0 l/m 6,8 km/h (2 Bft) SW 227 0 min 0,000 mm 0,5 UV-I 162 W/m 18,0 C 22,1 C 11,3 km/h (2 Bft) 100,00 %
28.08.2017 16:38 22,1 C 24,4 C 76 % 1016,1 hPa 0,0 l/m 8,3 km/h (2 Bft) SW 215 0 min 0,000 mm 0,0 UV-I 147 W/m 17,7 C 21,5 C 12,9 km/h (3 Bft) 100,00 %
28.08.2017 16:40 22,1 C 24,4 C 77 % 1015,9 hPa 0,0 l/m 8,5 km/h (2 Bft) SW 219 0 min 0,000 mm 0,0 UV-I 111 W/m 17,9 C 21,4 C 14,5 km/h (3 Bft) 98,11 %
28.08.2017 16:42 21,9 C 24,4 C 78 % 1015,9 hPa 0,0 l/m 6,4 km/h (2 Bft) S-SW 207 0 min 0,000 mm 0,0 UV-I 87 W/m 17,9 C 21,9 C 11,3 km/h (2 Bft) 97,44 %
28.08.2017 16:44 21,8 C 24,4 C 76 % 1015,8 hPa 0,0 l/m 4,7 km/h (1 Bft) W 269 0 min 0,000 mm 0,0 UV-I 76 W/m 17,4 C 21,8 C 6,4 km/h (2 Bft) 100,00 %
28.08.2017 16:46 21,7 C 24,4 C 75 % 1016,0 hPa 0,0 l/m 6,8 km/h (2 Bft) W 261 0 min 0,000 mm 0,0 UV-I 66 W/m 17,1 C 21,6 C 12,9 km/h (3 Bft) 97,62 %
28.08.2017 16:48 21,5 C 24,4 C 76 % 1016,0 hPa 0,0 l/m 4,1 km/h (1 Bft) W-SW 254 0 min 0,000 mm 0,0 UV-I 58 W/m 17,1 C 21,5 C 6,4 km/h (2 Bft) 100,00 %
28.08.2017 16:50 21,3 C 24,4 C 77 % 1016,0 hPa 0,0 l/m 4,2 km/h (1 Bft) W-SW 242 0 min 0,000 mm 0,0 UV-I 53 W/m 17,1 C 21,3 C 6,4 km/h (2 Bft) 100,00 %
28.08.2017 16:52 21,1 C 24,4 C 77 % 1015,9 hPa 0,0 l/m 4,7 km/h (1 Bft) W-SW 253 0 min 0,000 mm 0,0 UV-I 50 W/m 16,9 C 21,1 C 8,0 km/h (2 Bft) 100,00 %
28.08.2017 16:54 21,1 C 24,4 C 77 % 1015,8 hPa 0,0 l/m 4,4 km/h (1 Bft) SW 227 0 min 0,000 mm 0,0 UV-I 49 W/m 16,9 C 21,1 C 6,4 km/h (2 Bft) 100,00 %
28.08.2017 16:56 21,0 C 24,4 C 77 % 1015,8 hPa 0,0 l/m 5,0 km/h (1 Bft) SW 236 0 min 0,000 mm 0,0 UV-I 49 W/m 16,8 C 21,0 C 8,0 km/h (2 Bft) 100,00 %
28.08.2017 16:58 21,0 C 24,4 C 76 % 1015,8 hPa 0,0 l/m 3,7 km/h (1 Bft) W-SW 238 0 min 0,000 mm 0,0 UV-I 50 W/m 16,6 C 21,0 C 4,8 km/h (1 Bft) 97,87 %
28.08.2017 17:00 21,0 C 24,4 C 76 % 1015,9 hPa 0,0 l/m 3,3 km/h (1 Bft) W-SW 238 0 min 0,000 mm 0,0 UV-I 51 W/m 16,6 C 21,0 C 4,8 km/h (1 Bft) 100,00 %
28.08.2017 17:02 20,9 C 24,4 C 78 % 1015,9 hPa 0,0 l/m 2,5 km/h (1 Bft) W 265 0 min 0,203 mm 0,0 UV-I 51 W/m 16,9 C 20,9 C 4,8 km/h (1 Bft) 98,00 %
28.08.2017 17:04 20,8 C 24,4 C 78 % 1016,0 hPa 0,0 l/m 5,1 km/h (1 Bft) W-SW 244 0 min 0,000 mm 0,0 UV-I 51 W/m 16,8 C 20,8 C 9,7 km/h (2 Bft) 100,00 %
28.08.2017 17:06 20,8 C 24,4 C 78 % 1016,0 hPa 0,0 l/m 5,3 km/h (1 Bft) SW 234 0 min 0,000 mm 0,0 UV-I 51 W/m 16,8 C 20,8 C 11,3 km/h (2 Bft) 100,00 %
28.08.2017 17:08 20,8 C 24,4 C 79 % 1016,1 hPa 0,0 l/m 4,8 km/h (1 Bft) W 270 0 min 0,000 mm 0,0 UV-I 51 W/m 17,0 C 20,8 C 6,4 km/h (2 Bft) 100,00 %
28.08.2017 17:10 20,8 C 24,4 C 79 % 1016,1 hPa 0,0 l/m 3,9 km/h (1 Bft) SW 215 0 min 0,000 mm 0,0 UV-I 53 W/m 17,0 C 20,8 C 6,4 km/h (2 Bft) 100,00 %
28.08.2017 17:12 20,7 C 24,4 C 79 % 1016,0 hPa 0,0 l/m 0,7 km/h (0 Bft) SW 215 0 min 0,000 mm 0,0 UV-I 54 W/m 16,9 C 20,7 C 3,2 km/h (1 Bft) 100,00 %
28.08.2017 17:14 20,7 C 24,4 C 79 % 1016,1 hPa 0,0 l/m 1,3 km/h (1 Bft) SW 215 0 min 0,000 mm 0,0 UV-I 56 W/m 16,9 C 20,7 C 3,2 km/h (1 Bft) 100,00 %
28.08.2017 17:16 20,6 C 24,4 C 82 % 1016,2 hPa 0,0 l/m 1,6 km/h (1 Bft) W-SW 246 0 min 0,000 mm 0,0 UV-I 61 W/m 17,4 C 20,6 C 3,2 km/h (1 Bft) 100,00 %
28.08.2017 17:18 20,4 C 24,4 C 82 % 1016,2 hPa 0,0 l/m 2,5 km/h (1 Bft) W-SW 246 0 min 0,000 mm 0,0 UV-I 65 W/m 17,2 C 20,4 C 4,8 km/h (1 Bft) 100,00 %
28.08.2017 17:20 20,4 C 24,4 C 82 % 1016,3 hPa 0,0 l/m 3,3 km/h (1 Bft) W 269 0 min 0,000 mm 0,0 UV-I 70 W/m 17,2 C 20,4 C 6,4 km/h (2 Bft) 100,00 %
28.08.2017 17:22 20,4 C 24,4 C 81 % 1016,2 hPa 0,0 l/m 1,1 km/h (1 Bft) W 277 0 min 0,000 mm 0,0 UV-I 75 W/m 17,0 C 20,4 C 4,8 km/h (1 Bft) 100,00 %
28.08.2017 17:24 20,3 C 24,4 C 81 % 1016,3 hPa 0,0 l/m 1,3 km/h (1 Bft) W 277 0 min 0,000 mm 0,0 UV-I 81 W/m 16,9 C 20,3 C 3,2 km/h (1 Bft) 100,00 %
28.08.2017 17:26 20,3 C 24,4 C 82 % 1016,3 hPa 0,0 l/m 1,4 km/h (1 Bft) W 277 0 min 0,000 mm 0,0 UV-I 84 W/m 17,1 C 20,3 C 4,8 km/h (1 Bft) 100,00 %
28.08.2017 17:28 20,3 C 24,4 C 81 % 1016,3 hPa 0,0 l/m 3,8 km/h (1 Bft) W 260 0 min 0,000 mm 0,0 UV-I 89 W/m 16,9 C 20,3 C 4,8 km/h (1 Bft) 100,00 %
28.08.2017 17:30 20,2 C 24,4 C 81 % 1016,2 hPa 0,0 l/m 7,3 km/h (2 Bft) SW 234 0 min 0,000 mm 0,0 UV-I 91 W/m 16,8 C 19,8 C 12,9 km/h (3 Bft) 100,00 %
28.08.2017 17:32 20,2 C 24,4 C 79 % 1016,2 hPa 0,0 l/m 5,9 km/h (2 Bft) W 275 0 min 0,000 mm 0,0 UV-I 93 W/m 16,4 C 20,2 C 9,7 km/h (2 Bft) 100,00 %
28.08.2017 17:34 20,2 C 24,4 C 79 % 1016,2 hPa 0,0 l/m 6,4 km/h (2 Bft) SW 221 0 min 0,000 mm 0,0 UV-I 95 W/m 16,4 C 20,2 C 14,5 km/h (3 Bft) 97,87 %
28.08.2017 17:36 20,2 C 23,9 C 78 % 1016,2 hPa 0,0 l/m 5,8 km/h (2 Bft) W-SW 248 0 min 0,000 mm 0,0 UV-I 94 W/m 16,2 C 20,2 C 9,7 km/h (2 Bft) 100,00 %
28.08.2017 17:38 20,2 C 23,9 C 77 % 1016,2 hPa 0,0 l/m 5,8 km/h (2 Bft) W-SW 250 0 min 0,000 mm 0,0 UV-I 92 W/m 16,0 C 20,2 C 12,9 km/h (3 Bft) 100,00 %
28.08.2017 17:40 20,2 C 23,9 C 78 % 1016,2 hPa 0,0 l/m 7,1 km/h (2 Bft) W 259 0 min 0,000 mm 0,0 UV-I 90 W/m 16,2 C 19,9 C 11,3 km/h (2 Bft) 100,00 %
28.08.2017 17:42 20,1 C 23,9 C 78 % 1016,2 hPa 0,0 l/m 6,3 km/h (2 Bft) W-SW 250 0 min 0,000 mm 0,0 UV-I 88 W/m 16,1 C 20,1 C 11,3 km/h (2 Bft) 98,00 %
28.08.2017 17:44 20,1 C 23,9 C 77 % 1016,2 hPa 0,0 l/m 5,9 km/h (2 Bft) W-SW 250 0 min 0,000 mm 0,0 UV-I 84 W/m 15,9 C 20,1 C 8,0 km/h (2 Bft) 97,73 %
28.08.2017 17:46 20,1 C 23,9 C 78 % 1016,2 hPa 0,0 l/m 6,2 km/h (2 Bft) SW 235 0 min 0,000 mm 0,0 UV-I 81 W/m 16,1 C 20,1 C 9,7 km/h (2 Bft) 100,00 %
28.08.2017 17:48 20,0 C 23,9 C 77 % 1016,2 hPa 0,0 l/m 6,8 km/h (2 Bft) W-SW 246 0 min 0,000 mm 0,0 UV-I 78 W/m 15,8 C 19,8 C 11,3 km/h (2 Bft) 98,21 %
28.08.2017 17:50 19,9 C 23,9 C 78 % 1016,1 hPa 0,0 l/m 5,4 km/h (1 Bft) SW 214 0 min 0,000 mm 0,0 UV-I 76 W/m 15,9 C 19,9 C 9,7 km/h (2 Bft) 97,37 %
28.08.2017 17:52 19,9 C 23,9 C 78 % 1016,1 hPa 0,0 l/m 5,9 km/h (2 Bft) SW 227 0 min 0,000 mm 0,0 UV-I 75 W/m 15,9 C 19,9 C 8,0 km/h (2 Bft) 98,00 %
28.08.2017 17:54 19,9 C 23,9 C 78 % 1016,2 hPa 0,0 l/m 4,8 km/h (1 Bft) SW 234 0 min 0,000 mm 0,0 UV-I 81 W/m 15,9 C 19,9 C 6,4 km/h (2 Bft) 96,23 %
28.08.2017 17:56 19,9 C 23,9 C 78 % 1016,1 hPa 0,0 l/m 5,5 km/h (1 Bft) W-SW 240 0 min 0,000 mm 0,0 UV-I 105 W/m 15,9 C 19,9 C 8,0 km/h (2 Bft) 94,74 %
28.08.2017 17:58 19,9 C 23,9 C 78 % 1016,1 hPa 0,0 l/m 3,5 km/h (1 Bft) SW 226 2 min 0,000 mm 0,0 UV-I 179 W/m 15,9 C 19,9 C 6,4 km/h (2 Bft) 96,00 %
28.08.2017 18:00 20,1 C 23,9 C 78 % 1016,2 hPa 0,0 l/m 2,9 km/h (1 Bft) SW 226 2 min 0,076 mm 0,0 UV-I 191 W/m 16,1 C 20,1 C 4,8 km/h (1 Bft) 94,00 %
28.08.2017 18:02 20,2 C 23,9 C 78 % 1016,1 hPa 0,0 l/m 2,0 km/h (1 Bft) SW 226 2 min 0,000 mm 0,0 UV-I 222 W/m 16,2 C 20,2 C 4,8 km/h (1 Bft) 96,00 %
28.08.2017 18:04 20,3 C 23,9 C 77 % 1016,1 hPa 0,0 l/m 3,8 km/h (1 Bft) S-SW 213 2 min 0,000 mm 0,0 UV-I 225 W/m 16,1 C 20,3 C 6,4 km/h (2 Bft) 93,62 %
28.08.2017 18:06 20,4 C 23,9 C 76 % 1016,1 hPa 0,0 l/m 3,1 km/h (1 Bft) W-SW 245 2 min 0,000 mm 0,0 UV-I 218 W/m 16,0 C 20,4 C 4,8 km/h (1 Bft) 94,44 %
28.08.2017 18:08 20,5 C 23,9 C 76 % 1016,1 hPa 0,0 l/m 4,1 km/h (1 Bft) W-SW 245 2 min 0,000 mm 0,0 UV-I 210 W/m 16,1 C 20,5 C 4,8 km/h (1 Bft) 96,00 %
28.08.2017 18:10 20,6 C 23,9 C 76 % 1016,1 hPa 0,0 l/m 4,8 km/h (1 Bft) W-SW 237 2 min 0,000 mm 0,0 UV-I 205 W/m 16,2 C 20,6 C 6,4 km/h (2 Bft) 96,23 %
28.08.2017 18:12 20,7 C 23,9 C 76 % 1016,1 hPa 0,0 l/m 5,6 km/h (1 Bft) SW 228 2 min 0,000 mm 0,0 UV-I 200 W/m 16,3 C 20,7 C 8,0 km/h (2 Bft) 94,74 %
28.08.2017 18:14 20,7 C 23,9 C 76 % 1016,1 hPa 0,0 l/m 6,0 km/h (2 Bft) SW 227 2 min 0,000 mm 0,0 UV-I 194 W/m 16,3 C 20,7 C 9,7 km/h (2 Bft) 96,00 %
28.08.2017 18:16 20,8 C 23,9 C 75 % 1016,1 hPa 0,0 l/m 5,8 km/h (2 Bft) SW 232 2 min 0,000 mm 0,0 UV-I 188 W/m 16,2 C 20,8 C 8,0 km/h (2 Bft) 92,45 %
28.08.2017 18:18 20,8 C 23,9 C 75 % 1016,1 hPa 0,0 l/m 5,8 km/h (2 Bft) W-SW 243 2 min 0,000 mm 0,0 UV-I 180 W/m 16,2 C 20,8 C 8,0 km/h (2 Bft) 95,12 %
28.08.2017 18:20 20,8 C 23,9 C 76 % 1016,1 hPa 0,0 l/m 2,7 km/h (1 Bft) W-SW 243 2 min 0,000 mm 0,0 UV-I 177 W/m 16,4 C 20,8 C 4,8 km/h (1 Bft) 96,00 %
28.08.2017 18:22 20,8 C 23,9 C 76 % 1016,1 hPa 0,0 l/m 3,2 km/h (1 Bft) W-SW 240 2 min 0,000 mm 0,0 UV-I 169 W/m 16,4 C 20,8 C 6,4 km/h (2 Bft) 98,00 %
28.08.2017 18:24 20,8 C 23,9 C 75 % 1016,1 hPa 0,0 l/m 2,3 km/h (1 Bft) W-SW 240 2 min 0,000 mm 0,0 UV-I 162 W/m 16,2 C 20,8 C 4,8 km/h (1 Bft) 95,74 %
28.08.2017 18:26 20,7 C 23,9 C 75 % 1016,0 hPa 0,0 l/m 2,7 km/h (1 Bft) SW 227 2 min 0,000 mm 0,0 UV-I 156 W/m 16,1 C 20,7 C 4,8 km/h (1 Bft) 97,14 %
28.08.2017 18:28 20,7 C 23,9 C 76 % 1016,1 hPa 0,0 l/m 2,8 km/h (1 Bft) S-SW 212 2 min 0,000 mm 0,0 UV-I 153 W/m 16,3 C 20,7 C 6,4 km/h (2 Bft) 96,61 %
28.08.2017 18:30 20,7 C 23,9 C 76 % 1016,1 hPa 0,0 l/m 3,1 km/h (1 Bft) S-SW 198 2 min 0,000 mm 0,0 UV-I 146 W/m 16,3 C 20,7 C 8,0 km/h (2 Bft) 94,29 %
28.08.2017 18:32 20,7 C 23,9 C 78 % 1016,1 hPa 0,0 l/m 3,4 km/h (1 Bft) S-SW 211 2 min 0,000 mm 0,0 UV-I 141 W/m 16,7 C 20,7 C 4,8 km/h (1 Bft) 98,00 %
28.08.2017 18:34 20,8 C 23,9 C 77 % 1016,1 hPa 0,0 l/m 5,2 km/h (1 Bft) SW 236 2 min 0,000 mm 0,0 UV-I 135 W/m 16,6 C 20,8 C 8,0 km/h (2 Bft) 98,00 %
28.08.2017 18:36 20,8 C 23,9 C 76 % 1016,1 hPa 0,0 l/m 5,1 km/h (1 Bft) SW 235 2 min 0,000 mm 0,0 UV-I 127 W/m 16,4 C 20,8 C 8,0 km/h (2 Bft) 94,00 %
28.08.2017 18:38 20,8 C 23,9 C 75 % 1016,2 hPa 0,0 l/m 4,8 km/h (1 Bft) W-SW 244 2 min 0,000 mm 0,0 UV-I 120 W/m 16,2 C 20,8 C 8,0 km/h (2 Bft) 98,00 %
28.08.2017 18:40 20,8 C 23,9 C 76 % 1016,2 hPa 0,0 l/m 4,8 km/h (1 Bft) W-SW 243 2 min 0,000 mm 0,0 UV-I 115 W/m 16,4 C 20,8 C 8,0 km/h (2 Bft) 97,22 %
28.08.2017 18:42 20,7 C 23,9 C 76 % 1016,2 hPa 0,0 l/m 3,2 km/h (1 Bft) W-SW 240 2 min 0,000 mm 0,0 UV-I 111 W/m 16,3 C 20,7 C 4,8 km/h (1 Bft) 97,96 %
28.08.2017 18:44 20,6 C 23,9 C 77 % 1016,2 hPa 0,0 l/m 5,6 km/h (1 Bft) SW 220 2 min 0,000 mm 0,0 UV-I 107 W/m 16,4 C 20,6 C 6,4 km/h (2 Bft) 98,11 %
28.08.2017 18:46 20,6 C 23,9 C 77 % 1016,2 hPa 0,0 l/m 5,3 km/h (1 Bft) SW 219 2 min 0,000 mm 0,0 UV-I 101 W/m 16,4 C 20,6 C 8,0 km/h (2 Bft) 97,22 %
28.08.2017 18:48 20,6 C 23,9 C 77 % 1016,2 hPa 0,0 l/m 5,5 km/h (1 Bft) S-SW 212 2 min 0,000 mm 0,0 UV-I 98 W/m 16,4 C 20,6 C 11,3 km/h (2 Bft) 98,11 %
28.08.2017 18:50 20,6 C 23,9 C 77 % 1016,2 hPa 0,0 l/m 6,8 km/h (2 Bft) SW 224 2 min 0,000 mm 0,0 UV-I 93 W/m 16,4 C 20,4 C 9,7 km/h (2 Bft) 97,87 %
28.08.2017 18:52 20,6 C 23,9 C 76 % 1016,2 hPa 0,0 l/m 4,3 km/h (1 Bft) W-SW 250 2 min 0,000 mm 0,0 UV-I 87 W/m 16,2 C 20,6 C 6,4 km/h (2 Bft) 98,11 %
28.08.2017 18:54 20,6 C 23,9 C 77 % 1016,2 hPa 0,0 l/m 5,0 km/h (1 Bft) W-SW 241 2 min 0,000 mm 0,0 UV-I 84 W/m 16,4 C 20,6 C 6,4 km/h (2 Bft) 96,55 %
28.08.2017 18:56 20,5 C 23,9 C 78 % 1016,2 hPa 0,0 l/m 3,8 km/h (1 Bft) W-SW 241 2 min 0,000 mm 0,0 UV-I 82 W/m 16,5 C 20,5 C 6,4 km/h (2 Bft) 98,11 %
28.08.2017 18:58 20,4 C 23,9 C 78 % 1016,1 hPa 0,0 l/m 2,9 km/h (1 Bft) W-SW 241 2 min 0,000 mm 0,0 UV-I 78 W/m 16,4 C 20,4 C 4,8 km/h (1 Bft) 98,00 %
28.08.2017 19:00 20,4 C 23,9 C 77 % 1016,2 hPa 0,0 l/m 2,8 km/h (1 Bft) W-SW 239 2 min 0,102 mm 0,0 UV-I 75 W/m 16,2 C 20,4 C 4,8 km/h (1 Bft) 96,23 %
28.08.2017 19:02 20,3 C 23,9 C 78 % 1016,2 hPa 0,0 l/m 1,5 km/h (1 Bft) S-SW 199 0 min 0,000 mm 0,0 UV-I 71 W/m 16,3 C 20,3 C 4,8 km/h (1 Bft) 97,56 %
28.08.2017 19:04 20,2 C 23,9 C 78 % 1016,2 hPa 0,0 l/m 3,5 km/h (1 Bft) S-SW 199 0 min 0,000 mm 0,0 UV-I 67 W/m 16,2 C 20,2 C 6,4 km/h (2 Bft) 97,87 %
28.08.2017 19:06 20,2 C 23,9 C 78 % 1016,2 hPa 0,0 l/m 2,2 km/h (1 Bft) S-SW 199 0 min 0,000 mm 0,0 UV-I 63 W/m 16,2 C 20,2 C 4,8 km/h (1 Bft) 97,87 %
28.08.2017 19:08 20,1 C 23,9 C 78 % 1016,2 hPa 0,0 l/m 2,0 km/h (1 Bft) S-SW 199 0 min 0,000 mm 0,0 UV-I 57 W/m 16,1 C 20,1 C 4,8 km/h (1 Bft) 98,00 %
28.08.2017 19:10 20,1 C 23,9 C 78 % 1016,2 hPa 0,0 l/m 0,9 km/h (0 Bft) S-SW 199 0 min 0,000 mm 0,0 UV-I 54 W/m 16,1 C 20,1 C 3,2 km/h (1 Bft) 97,37 %
28.08.2017 19:12 20,0 C 23,9 C 79 % 1016,2 hPa 0,0 l/m 1,8 km/h (1 Bft) S-SW 199 0 min 0,000 mm 0,0 UV-I 51 W/m 16,2 C 20,0 C 3,2 km/h (1 Bft) 98,11 %
28.08.2017 19:14 19,9 C 23,9 C 79 % 1016,2 hPa 0,0 l/m 3,9 km/h (1 Bft) S-SW 199 0 min 0,000 mm 0,0 UV-I 48 W/m 16,1 C 19,9 C 4,8 km/h (1 Bft) 98,00 %
28.08.2017 19:16 19,9 C 23,9 C 79 % 1016,2 hPa 0,0 l/m 2,9 km/h (1 Bft) S-SW 199 0 min 0,000 mm 0,0 UV-I 46 W/m 16,1 C 19,9 C 4,8 km/h (1 Bft) 95,12 %
28.08.2017 19:18 19,9 C 23,9 C 80 % 1016,2 hPa 0,0 l/m 0,9 km/h (0 Bft) S-SW 199 0 min 0,000 mm 0,0 UV-I 43 W/m 16,3 C 19,9 C 3,2 km/h (1 Bft) 100,00 %
28.08.2017 19:20 19,9 C 23,9 C 79 % 1016,1 hPa 0,0 l/m 1,1 km/h (1 Bft) S-SW 199 0 min 0,000 mm 0,0 UV-I 39 W/m 16,1 C 19,9 C 3,2 km/h (1 Bft) 100,00 %
28.08.2017 19:22 19,9 C 23,9 C 79 % 1016,1 hPa 0,0 l/m 0,0 km/h (0 Bft) S-SW 199 0 min 0,000 mm 0,0 UV-I 36 W/m 16,1 C 19,9 C 0,0 km/h (0 Bft) 100,00 %
28.08.2017 19:24 19,9 C 23,9 C 80 % 1016,1 hPa 0,0 l/m 0,0 km/h (0 Bft) S-SW 199 0 min 0,000 mm 0,0 UV-I 33 W/m 16,3 C 19,9 C 0,0 km/h (0 Bft) 100,00 %
28.08.2017 19:26 19,8 C 23,9 C 80 % 1016,1 hPa 0,0 l/m 0,0 km/h (0 Bft) S-SW 199 0 min 0,000 mm 0,0 UV-I 31 W/m 16,2 C 19,8 C 0,0 km/h (0 Bft) 100,00 %
28.08.2017 19:28 19,7 C 23,9 C 81 % 1016,2 hPa 0,0 l/m 0,0 km/h (0 Bft) S-SW 199 0 min 0,000 mm 0,0 UV-I 28 W/m 16,3 C 19,7 C 0,0 km/h (0 Bft) 100,00 %
28.08.2017 19:30 19,6 C 23,9 C 82 % 1016,2 hPa 0,0 l/m 0,0 km/h (0 Bft) S-SW 199 0 min 0,000 mm 0,0 UV-I 25 W/m 16,4 C 19,6 C 0,0 km/h (0 Bft) 100,00 %
28.08.2017 19:32 19,5 C 23,9 C 82 % 1016,1 hPa 0,0 l/m 0,0 km/h (0 Bft) S-SW 199 0 min 0,000 mm 0,0 UV-I 24 W/m 16,3 C 19,5 C 0,0 km/h (0 Bft) 100,00 %
28.08.2017 19:34 19,4 C 23,9 C 83 % 1016,1 hPa 0,0 l/m 0,2 km/h (0 Bft) S-SW 199 2 min 0,000 mm 0,0 UV-I 22 W/m 16,4 C 19,4 C 1,6 km/h (1 Bft) 97,14 %
28.08.2017 19:36 19,2 C 23,9 C 84 % 1016,1 hPa 0,0 l/m 2,0 km/h (1 Bft) S-SW 199 2 min 0,000 mm 0,0 UV-I 19 W/m 16,4 C 19,2 C 3,2 km/h (1 Bft) 100,00 %
28.08.2017 19:38 19,1 C 23,9 C 85 % 1016,1 hPa 0,0 l/m 0,9 km/h (0 Bft) S-SW 199 2 min 0,000 mm 0,0 UV-I 18 W/m 16,5 C 19,1 C 3,2 km/h (1 Bft) 98,00 %
28.08.2017 19:40 19,0 C 23,9 C 86 % 1016,1 hPa 0,0 l/m 0,0 km/h (0 Bft) S-SW 199 2 min 0,000 mm 0,0 UV-I 17 W/m 16,6 C 19,0 C 0,0 km/h (0 Bft) 100,00 %
28.08.2017 19:42 18,9 C 23,9 C 86 % 1016,2 hPa 0,0 l/m 0,0 km/h (0 Bft) S-SW 199 2 min 0,000 mm 0,0 UV-I 16 W/m 16,5 C 18,9 C 1,6 km/h (1 Bft) 100,00 %
28.08.2017 19:44 18,7 C 23,9 C 87 % 1016,1 hPa 0,0 l/m 0,0 km/h (0 Bft) S-SW 199 0 min 0,000 mm 0,0 UV-I 14 W/m 16,5 C 18,7 C 0,0 km/h (0 Bft) 100,00 %
28.08.2017 19:46 18,6 C 23,9 C 87 % 1016,2 hPa 0,0 l/m 0,0 km/h (0 Bft) S-SW 199 0 min 0,000 mm 0,0 UV-I 13 W/m 16,4 C 18,6 C 0,0 km/h (0 Bft) 100,00 %
28.08.2017 19:48 18,4 C 23,9 C 88 % 1016,1 hPa 0,0 l/m 0,0 km/h (0 Bft) S-SW 199 0 min 0,000 mm 0,0 UV-I 12 W/m 16,4 C 18,4 C 0,0 km/h (0 Bft) 100,00 %
28.08.2017 19:50 18,2 C 23,9 C 89 % 1016,2 hPa 0,0 l/m 0,0 km/h (0 Bft) S-SW 199 0 min 0,000 mm 0,0 UV-I 11 W/m 16,4 C 18,2 C 0,0 km/h (0 Bft) 98,00 %
28.08.2017 19:52 18,1 C 23,9 C 89 % 1016,3 hPa 0,0 l/m 0,0 km/h (0 Bft) S-SW 199 0 min 0,000 mm 0,0 UV-I 9 W/m 16,3 C 18,1 C 0,0 km/h (0 Bft) 96,23 %
28.08.2017 19:54 18,1 C 23,9 C 90 % 1016,4 hPa 0,0 l/m 0,0 km/h (0 Bft) S-SW 199 0 min 0,000 mm 0,0 UV-I 9 W/m 16,4 C 18,1 C 0,0 km/h (0 Bft) 97,14 %
28.08.2017 19:56 18,1 C 23,9 C 90 % 1016,4 hPa 0,0 l/m 1,2 km/h (1 Bft) S-SW 199 0 min 0,000 mm 0,0 UV-I 7 W/m 16,4 C 18,1 C 3,2 km/h (1 Bft) 97,62 %
28.08.2017 19:58 18,1 C 23,9 C 90 % 1016,3 hPa 0,0 l/m 0,4 km/h (0 Bft) S-SW 199 0 min 0,000 mm 0,0 UV-I 7 W/m 16,4 C 18,1 C 1,6 km/h (1 Bft) 96,88 %
28.08.2017 20:00 18,1 C 23,9 C 90 % 1016,4 hPa 0,0 l/m 0,0 km/h (0 Bft) S-SW 199 0 min 0,025 mm 0,0 UV-I 5 W/m 16,4 C 18,1 C 0,0 km/h (0 Bft) 97,50 %
28.08.2017 20:02 18,0 C 23,9 C 90 % 1016,4 hPa 0,0 l/m 0,4 km/h (0 Bft) S-SW 199 0 min 0,000 mm 0,0 UV-I 5 W/m 16,3 C 18,0 C 1,6 km/h (1 Bft) 98,00 %
28.08.2017 20:04 17,9 C 23,9 C 90 % 1016,3 hPa 0,0 l/m 1,5 km/h (1 Bft) S-SW 199 0 min 0,000 mm 0,0 UV-I 5 W/m 16,2 C 17,9 C 3,2 km/h (1 Bft) 98,00 %
28.08.2017 20:06 17,9 C 23,9 C 90 % 1016,4 hPa 0,0 l/m 1,5 km/h (1 Bft) S-SW 199 0 min 0,000 mm 0,0 UV-I 3 W/m 16,2 C 17,9 C 3,2 km/h (1 Bft) 97,22 %
28.08.2017 20:08 17,8 C 23,9 C 90 % 1016,4 hPa 0,0 l/m 0,6 km/h (0 Bft) S-SW 199 0 min 0,000 mm 0,0 UV-I 0 W/m 16,1 C 17,8 C 1,6 km/h (1 Bft) 98,11 %
28.08.2017 20:10 17,8 C 23,9 C 90 % 1016,4 hPa 0,0 l/m 0,1 km/h (0 Bft) S-SW 199 0 min 0,000 mm 0,0 UV-I 0 W/m 16,1 C 17,8 C 1,6 km/h (1 Bft) 97,87 %
28.08.2017 20:12 17,7 C 23,9 C 90 % 1016,4 hPa 0,0 l/m 0,2 km/h (0 Bft) S-SW 199 0 min 0,000 mm 0,0 UV-I 0 W/m 16,0 C 17,7 C 1,6 km/h (1 Bft) 97,56 %
28.08.2017 20:14 17,6 C 23,9 C 90 % 1016,4 hPa 0,0 l/m 0,1 km/h (0 Bft) S-SW 199 0 min 0,000 mm 0,0 UV-I 0 W/m 15,9 C 17,6 C 1,6 km/h (1 Bft) 98,00 %
28.08.2017 20:16 17,4 C 23,9 C 90 % 1016,5 hPa 0,0 l/m 0,0 km/h (0 Bft) S-SW 199 0 min 0,000 mm 0,0 UV-I 0 W/m 15,7 C 17,4 C 1,6 km/h (1 Bft) 97,87 %
28.08.2017 20:18 17,4 C 23,9 C 91 % 1016,6 hPa 0,0 l/m 0,0 km/h (0 Bft) S-SW 199 0 min 0,000 mm 0,0 UV-I 0 W/m 15,9 C 17,4 C 1,6 km/h (1 Bft) 95,74 %
28.08.2017 20:20 17,4 C 23,9 C 91 % 1016,6 hPa 0,0 l/m 0,0 km/h (0 Bft) S-SW 199 0 min 0,000 mm 0,0 UV-I 0 W/m 15,9 C 17,4 C 1,6 km/h (1 Bft) 95,74 %
28.08.2017 20:22 17,3 C 23,9 C 91 % 1016,6 hPa 0,0 l/m 0,0 km/h (0 Bft) S-SW 199 0 min 0,000 mm 0,0 UV-I 0 W/m 15,8 C 17,3 C 0,0 km/h (0 Bft) 97,87 %
28.08.2017 20:24 17,3 C 23,9 C 91 % 1016,6 hPa 0,0 l/m 0,0 km/h (0 Bft) S-SW 199 0 min 0,000 mm 0,0 UV-I 0 W/m 15,8 C 17,3 C 0,0 km/h (0 Bft) 97,87 %
28.08.2017 20:26 17,4 C 23,9 C 91 % 1016,6 hPa 0,0 l/m 0,1 km/h (0 Bft) S-SW 199 0 min 0,000 mm 0,0 UV-I 0 W/m 15,9 C 17,4 C 1,6 km/h (1 Bft) 100,00 %
28.08.2017 20:28 17,4 C 23,9 C 91 % 1016,7 hPa 0,0 l/m 0,3 km/h (0 Bft) S-SW 199 0 min 0,000 mm 0,0 UV-I 0 W/m 15,9 C 17,4 C 1,6 km/h (1 Bft) 100,00 %
28.08.2017 20:30 17,5 C 23,9 C 91 % 1016,7 hPa 0,0 l/m 0,3 km/h (0 Bft) S-SW 199 0 min 0,000 mm 0,0 UV-I 0 W/m 16,0 C 17,5 C 1,6 km/h (1 Bft) 100,00 %
28.08.2017 20:32 17,5 C 23,9 C 91 % 1016,7 hPa 0,0 l/m 0,6 km/h (0 Bft) S-SW 199 0 min 0,000 mm 0,0 UV-I 0 W/m 16,0 C 17,5 C 1,6 km/h (1 Bft) 100,00 %
28.08.2017 20:34 17,6 C 23,9 C 91 % 1016,7 hPa 0,0 l/m 0,6 km/h (0 Bft) S-SW 199 0 min 0,000 mm 0,0 UV-I 0 W/m 16,1 C 17,6 C 1,6 km/h (1 Bft) 100,00 %
28.08.2017 20:36 17,6 C 23,9 C 91 % 1016,8 hPa 0,0 l/m 0,0 km/h (0 Bft) S-SW 199 0 min 0,000 mm 0,0 UV-I 0 W/m 16,1 C 17,6 C 0,0 km/h (0 Bft) 100,00 %
28.08.2017 20:38 17,6 C 23,9 C 91 % 1016,9 hPa 0,0 l/m 0,0 km/h (0 Bft) S-SW 199 0 min 0,000 mm 0,0 UV-I 0 W/m 16,1 C 17,6 C 0,0 km/h (0 Bft) 100,00 %
28.08.2017 20:40 17,6 C 23,9 C 91 % 1016,9 hPa 0,0 l/m 0,0 km/h (0 Bft) S-SW 199 0 min 0,000 mm 0,0 UV-I 0 W/m 16,1 C 17,6 C 0,0 km/h (0 Bft) 100,00 %
28.08.2017 20:42 17,7 C 23,9 C 91 % 1017,0 hPa 0,0 l/m 0,0 km/h (0 Bft) S-SW 199 0 min 0,000 mm 0,0 UV-I 0 W/m 16,2 C 17,7 C 0,0 km/h (0 Bft) 100,00 %
28.08.2017 20:44 17,7 C 23,9 C 91 % 1017,0 hPa 0,0 l/m 0,0 km/h (0 Bft) S-SW 199 0 min 0,000 mm 0,0 UV-I 0 W/m 16,2 C 17,7 C 0,0 km/h (0 Bft) 100,00 %
28.08.2017 20:46 17,7 C 23,9 C 91 % 1017,0 hPa 0,0 l/m 0,0 km/h (0 Bft) S-SW 199 0 min 0,000 mm 0,0 UV-I 0 W/m 16,2 C 17,7 C 0,0 km/h (0 Bft) 100,00 %
28.08.2017 20:48 17,6 C 23,9 C 91 % 1017,0 hPa 0,0 l/m 0,0 km/h (0 Bft) S-SW 199 0 min 0,000 mm 0,0 UV-I 0 W/m 16,1 C 17,6 C 0,0 km/h (0 Bft) 100,00 %
28.08.2017 20:50 17,6 C 23,9 C 91 % 1017,0 hPa 0,0 l/m 0,0 km/h (0 Bft) S-SW 199 0 min 0,000 mm 0,0 UV-I 0 W/m 16,1 C 17,6 C 0,0 km/h (0 Bft) 100,00 %
28.08.2017 20:52 17,6 C 23,9 C 92 % 1017,0 hPa 0,0 l/m 0,0 km/h (0 Bft) S-SW 199 0 min 0,000 mm 0,0 UV-I 0 W/m 16,3 C 17,6 C 0,0 km/h (0 Bft) 100,00 %
28.08.2017 20:54 17,7 C 23,9 C 92 % 1016,9 hPa 0,0 l/m 0,0 km/h (0 Bft) S-SW 199 0 min 0,000 mm 0,0 UV-I 0 W/m 16,4 C 17,7 C 0,0 km/h (0 Bft) 100,00 %
28.08.2017 20:56 17,7 C 23,9 C 92 % 1017,0 hPa 0,0 l/m 0,0 km/h (0 Bft) S-SW 199 0 min 0,000 mm 0,0 UV-I 0 W/m 16,4 C 17,7 C 1,6 km/h (1 Bft) 98,00 %
28.08.2017 20:58 17,7 C 23,9 C 92 % 1017,0 hPa 0,0 l/m 0,0 km/h (0 Bft) S-SW 199 0 min 0,000 mm 0,0 UV-I 0 W/m 16,4 C 17,7 C 0,0 km/h (0 Bft) 100,00 %
28.08.2017 21:00 17,6 C 23,9 C 92 % 1017,0 hPa 0,0 l/m 0,0 km/h (0 Bft) S-SW 199 0 min 0,000 mm 0,0 UV-I 0 W/m 16,3 C 17,6 C 0,0 km/h (0 Bft) 100,00 %
28.08.2017 21:02 17,6 C 23,9 C 92 % 1017,1 hPa 0,0 l/m 0,0 km/h (0 Bft) S-SW 199 0 min 0,000 mm 0,0 UV-I 0 W/m 16,3 C 17,6 C 0,0 km/h (0 Bft) 100,00 %
28.08.2017 21:04 17,6 C 23,9 C 92 % 1017,1 hPa 0,0 l/m 0,0 km/h (0 Bft) S-SW 199 0 min 0,000 mm 0,0 UV-I 0 W/m 16,3 C 17,6 C 0,0 km/h (0 Bft) 98,00 %
28.08.2017 21:06 17,6 C 23,9 C 92 % 1017,1 hPa 0,0 l/m 0,0 km/h (0 Bft) S-SW 199 0 min 0,000 mm 0,0 UV-I 0 W/m 16,3 C 17,6 C 0,0 km/h (0 Bft) 100,00 %
28.08.2017 21:08 17,6 C 23,9 C 92 % 1017,1 hPa 0,0 l/m 0,0 km/h (0 Bft) S-SW 199 0 min 0,000 mm 0,0 UV-I 0 W/m 16,3 C 17,6 C 0,0 km/h (0 Bft) 100,00 %
28.08.2017 21:10 17,6 C 23,9 C 92 % 1017,2 hPa 0,0 l/m 0,0 km/h (0 Bft) S-SW 199 0 min 0,000 mm 0,0 UV-I 0 W/m 16,3 C 17,6 C 0,0 km/h (0 Bft) 100,00 %
28.08.2017 21:12 17,6 C 23,9 C 92 % 1017,2 hPa 0,0 l/m 0,0 km/h (0 Bft) S-SW 199 0 min 0,000 mm 0,0 UV-I 0 W/m 16,3 C 17,6 C 0,0 km/h (0 Bft) 100,00 %
28.08.2017 21:14 17,6 C 23,9 C 92 % 1017,2 hPa 0,0 l/m 0,1 km/h (0 Bft) S-SW 199 0 min 0,000 mm 0,0 UV-I 0 W/m 16,3 C 17,6 C 1,6 km/h (1 Bft) 100,00 %
28.08.2017 21:16 17,6 C 23,9 C 92 % 1017,3 hPa 0,0 l/m 0,1 km/h (0 Bft) S-SW 199 0 min 0,000 mm 0,0 UV-I 0 W/m 16,3 C 17,6 C 1,6 km/h (1 Bft) 100,00 %
28.08.2017 21:18 17,6 C 23,9 C 91 % 1017,3 hPa 0,0 l/m 0,1 km/h (0 Bft) S-SW 199 0 min 0,000 mm 0,0 UV-I 0 W/m 16,1 C 17,6 C 1,6 km/h (1 Bft) 100,00 %
28.08.2017 21:20 17,6 C 23,9 C 91 % 1017,3 hPa 0,0 l/m 0,6 km/h (0 Bft) S-SW 199 0 min 0,000 mm 0,0 UV-I 0 W/m 16,1 C 17,6 C 3,2 km/h (1 Bft) 100,00 %
28.08.2017 21:22 17,6 C 23,9 C 91 % 1017,4 hPa 0,0 l/m 1,0 km/h (0 Bft) S-SW 199 0 min 0,000 mm 0,0 UV-I 0 W/m 16,1 C 17,6 C 3,2 km/h (1 Bft) 98,11 %
28.08.2017 21:24 17,6 C 23,9 C 91 % 1017,3 hPa 0,0 l/m 1,7 km/h (1 Bft) S-SW 199 0 min 0,000 mm 0,0 UV-I 0 W/m 16,1 C 17,6 C 3,2 km/h (1 Bft) 100,00 %
28.08.2017 21:26 17,7 C 23,9 C 91 % 1017,3 hPa 0,0 l/m 1,4 km/h (1 Bft) S-SW 199 0 min 0,000 mm 0,0 UV-I 0 W/m 16,2 C 17,7 C 3,2 km/h (1 Bft) 100,00 %
28.08.2017 21:28 17,7 C 23,9 C 91 % 1017,3 hPa 0,0 l/m 0,1 km/h (0 Bft) S-SW 199 0 min 0,000 mm 0,0 UV-I 0 W/m 16,2 C 17,7 C 1,6 km/h (1 Bft) 100,00 %
28.08.2017 21:30 17,7 C 23,9 C 91 % 1017,3 hPa 0,0 l/m 0,0 km/h (0 Bft) S-SW 199 0 min 0,000 mm 0,0 UV-I 0 W/m 16,2 C 17,7 C 0,0 km/h (0 Bft) 97,87 %
28.08.2017 21:32 17,7 C 23,9 C 90 % 1017,3 hPa 0,0 l/m 0,0 km/h (0 Bft) S-SW 199 0 min 0,000 mm 0,0 UV-I 0 W/m 16,0 C 17,7 C 0,0 km/h (0 Bft) 100,00 %
28.08.2017 21:34 17,7 C 23,9 C 90 % 1017,3 hPa 0,0 l/m 0,0 km/h (0 Bft) S-SW 199 0 min 0,000 mm 0,0 UV-I 0 W/m 16,0 C 17,7 C 0,0 km/h (0 Bft) 100,00 %
28.08.2017 21:36 17,8 C 23,9 C 90 % 1017,3 hPa 0,0 l/m 0,0 km/h (0 Bft) S-SW 199 0 min 0,000 mm 0,0 UV-I 0 W/m 16,1 C 17,8 C 0,0 km/h (0 Bft) 97,14 %
28.08.2017 21:38 17,8 C 23,9 C 90 % 1017,3 hPa 0,0 l/m 0,0 km/h (0 Bft) S-SW 199 0 min 0,000 mm 0,0 UV-I 0 W/m 16,1 C 17,8 C 0,0 km/h (0 Bft) 100,00 %
28.08.2017 21:40 17,8 C 23,9 C 90 % 1017,3 hPa 0,0 l/m 0,8 km/h (0 Bft) S-SW 199 0 min 0,000 mm 0,0 UV-I 0 W/m 16,1 C 17,8 C 1,6 km/h (1 Bft) 100,00 %
28.08.2017 21:42 17,8 C 23,9 C 90 % 1017,3 hPa 0,0 l/m 0,7 km/h (0 Bft) S-SW 199 0 min 0,000 mm 0,0 UV-I 0 W/m 16,1 C 17,8 C 3,2 km/h (1 Bft) 100,00 %
28.08.2017 21:44 17,7 C 23,9 C 90 % 1017,4 hPa 0,0 l/m 1,4 km/h (1 Bft) S-SW 199 0 min 0,000 mm 0,0 UV-I 0 W/m 16,0 C 17,7 C 3,2 km/h (1 Bft) 100,00 %
28.08.2017 21:46 17,7 C 23,9 C 90 % 1017,4 hPa 0,0 l/m 1,5 km/h (1 Bft) S-SW 199 0 min 0,000 mm 0,0 UV-I 0 W/m 16,0 C 17,7 C 3,2 km/h (1 Bft) 100,00 %
28.08.2017 21:48 17,7 C 23,9 C 90 % 1017,3 hPa 0,0 l/m 0,9 km/h (0 Bft) S-SW 199 0 min 0,000 mm 0,0 UV-I 0 W/m 16,0 C 17,7 C 3,2 km/h (1 Bft) 100,00 %
28.08.2017 21:50 17,7 C 23,9 C 90 % 1017,3 hPa 0,0 l/m 0,3 km/h (0 Bft) S-SW 199 0 min 0,000 mm 0,0 UV-I 0 W/m 16,0 C 17,7 C 1,6 km/h (1 Bft) 100,00 %
28.08.2017 21:52 17,7 C 23,9 C 90 % 1017,3 hPa 0,0 l/m 0,2 km/h (0 Bft) S-SW 199 0 min 0,000 mm 0,0 UV-I 0 W/m 16,0 C 17,7 C 1,6 km/h (1 Bft) 100,00 %
28.08.2017 21:54 17,6 C 23,9 C 90 % 1017,3 hPa 0,0 l/m 0,2 km/h (0 Bft) S-SW 199 0 min 0,000 mm 0,0 UV-I 0 W/m 15,9 C 17,6 C 3,2 km/h (1 Bft) 94,29 %
28.08.2017 21:56 17,6 C 23,9 C 90 % 1017,3 hPa 0,0 l/m 1,1 km/h (1 Bft) S-SW 199 0 min 0,000 mm 0,0 UV-I 0 W/m 15,9 C 17,6 C 3,2 km/h (1 Bft) 98,11 %
28.08.2017 21:58 17,5 C 23,9 C 90 % 1017,3 hPa 0,0 l/m 1,0 km/h (0 Bft) S-SW 199 0 min 0,000 mm 0,0 UV-I 0 W/m 15,8 C 17,5 C 3,2 km/h (1 Bft) 96,00 %
28.08.2017 22:00 17,4 C 23,9 C 90 % 1017,3 hPa 0,0 l/m 3,2 km/h (1 Bft) S-SW 199 0 min 0,000 mm 0,0 UV-I 0 W/m 15,7 C 17,4 C 4,8 km/h (1 Bft) 94,87 %
28.08.2017 22:02 17,4 C 23,9 C 90 % 1017,3 hPa 0,0 l/m 3,1 km/h (1 Bft) S-SW 199 0 min 0,000 mm 0,0 UV-I 0 W/m 15,7 C 17,4 C 4,8 km/h (1 Bft) 92,00 %
28.08.2017 22:04 17,4 C 23,9 C 90 % 1017,4 hPa 0,0 l/m 2,4 km/h (1 Bft) S-SW 199 0 min 0,000 mm 0,0 UV-I 0 W/m 15,7 C 17,4 C 4,8 km/h (1 Bft) 94,34 %
28.08.2017 22:06 17,4 C 23,9 C 89 % 1017,4 hPa 0,0 l/m 0,8 km/h (0 Bft) S-SW 199 0 min 0,000 mm 0,0 UV-I 0 W/m 15,6 C 17,4 C 1,6 km/h (1 Bft) 93,18 %
28.08.2017 22:08 17,4 C 23,9 C 89 % 1017,4 hPa 0,0 l/m 0,8 km/h (0 Bft) S-SW 199 0 min 0,000 mm 0,0 UV-I 0 W/m 15,6 C 17,4 C 3,2 km/h (1 Bft) 94,00 %
28.08.2017 22:10 17,4 C 23,9 C 90 % 1017,5 hPa 0,0 l/m 0,0 km/h (0 Bft) S-SW 199 0 min 0,000 mm 0,0 UV-I 0 W/m 15,7 C 17,4 C 0,0 km/h (0 Bft) 97,37 %
28.08.2017 22:12 17,3 C 23,9 C 90 % 1017,5 hPa 0,0 l/m 0,0 km/h (0 Bft) S-SW 199 0 min 0,000 mm 0,0 UV-I 0 W/m 15,6 C 17,3 C 0,0 km/h (0 Bft) 91,49 %
28.08.2017 22:14 17,3 C 23,9 C 90 % 1017,5 hPa 0,0 l/m 0,0 km/h (0 Bft) S-SW 199 0 min 0,000 mm 0,0 UV-I 0 W/m 15,6 C 17,3 C 0,0 km/h (0 Bft) 95,74 %
28.08.2017 22:16 17,3 C 23,9 C 90 % 1017,5 hPa 0,0 l/m 0,0 km/h (0 Bft) S-SW 199 0 min 0,000 mm 0,0 UV-I 0 W/m 15,6 C 17,3 C 0,0 km/h (0 Bft) 96,00 %
28.08.2017 22:18 17,3 C 23,9 C 90 % 1017,6 hPa 0,0 l/m 0,0 km/h (0 Bft) S-SW 199 0 min 0,000 mm 0,0 UV-I 0 W/m 15,6 C 17,3 C 0,0 km/h (0 Bft) 95,45 %
28.08.2017 22:20 17,3 C 23,9 C 90 % 1017,6 hPa 0,0 l/m 0,0 km/h (0 Bft) S-SW 199 0 min 0,000 mm 0,0 UV-I 0 W/m 15,6 C 17,3 C 0,0 km/h (0 Bft) 94,00 %
28.08.2017 22:23 17,2 C 23,9 C 90 % 1017,6 hPa 0,0 l/m 0,0 km/h (0 Bft) S-SW 199 0 min 0,000 mm 0,0 UV-I 0 W/m 15,5 C 17,2 C 0,0 km/h (0 Bft) 95,95 %
28.08.2017 22:24 17,2 C 23,9 C 90 % 1017,6 hPa 0,0 l/m 0,0 km/h (0 Bft) S-SW 199 0 min 0,000 mm 0,0 UV-I 0 W/m 15,5 C 17,2 C 0,0 km/h (0 Bft) 92,86 %
28.08.2017 22:26 17,1 C 23,9 C 91 % 1017,6 hPa 0,0 l/m 0,0 km/h (0 Bft) S-SW 199 0 min 0,000 mm 0,0 UV-I 0 W/m 15,6 C 17,1 C 0,0 km/h (0 Bft) 98,00 %
28.08.2017 22:28 17,0 C 23,9 C 91 % 1017,6 hPa 0,0 l/m 0,1 km/h (0 Bft) S-SW 199 0 min 0,000 mm 0,0 UV-I 0 W/m 15,5 C 17,0 C 1,6 km/h (1 Bft) 93,62 %
28.08.2017 22:30 16,9 C 23,9 C 91 % 1017,6 hPa 0,0 l/m 0,1 km/h (0 Bft) S-SW 199 0 min 0,000 mm 0,0 UV-I 0 W/m 15,4 C 16,9 C 1,6 km/h (1 Bft) 96,00 %
28.08.2017 22:32 16,9 C 23,9 C 91 % 1017,6 hPa 0,0 l/m 0,2 km/h (0 Bft) S-SW 199 0 min 0,000 mm 0,0 UV-I 0 W/m 15,4 C 16,9 C 1,6 km/h (1 Bft) 95,74 %
28.08.2017 22:34 16,8 C 23,9 C 92 % 1017,6 hPa 0,0 l/m 1,2 km/h (1 Bft) S-SW 199 0 min 0,000 mm 0,0 UV-I 0 W/m 15,5 C 16,8 C 3,2 km/h (1 Bft) 100,00 %
28.08.2017 22:36 16,7 C 23,9 C 92 % 1017,7 hPa 0,0 l/m 2,2 km/h (1 Bft) S-SW 199 0 min 0,000 mm 0,0 UV-I 0 W/m 15,4 C 16,7 C 3,2 km/h (1 Bft) 96,23 %
28.08.2017 22:38 16,7 C 23,9 C 92 % 1017,7 hPa 0,0 l/m 1,8 km/h (1 Bft) S-SW 199 0 min 0,000 mm 0,0 UV-I 0 W/m 15,4 C 16,7 C 3,2 km/h (1 Bft) 96,00 %
28.08.2017 22:40 16,7 C 23,9 C 92 % 1017,7 hPa 0,0 l/m 3,1 km/h (1 Bft) S-SW 199 0 min 0,000 mm 0,0 UV-I 0 W/m 15,4 C 16,7 C 4,8 km/h (1 Bft) 97,62 %
28.08.2017 22:42 16,6 C 23,9 C 92 % 1017,6 hPa 0,0 l/m 3,8 km/h (1 Bft) S-SW 199 0 min 0,000 mm 0,0 UV-I 0 W/m 15,3 C 16,6 C 4,8 km/h (1 Bft) 96,15 %
28.08.2017 22:44 16,6 C 23,9 C 92 % 1017,6 hPa 0,0 l/m 0,6 km/h (0 Bft) S-SW 199 0 min 0,000 mm 0,0 UV-I 0 W/m 15,3 C 16,6 C 1,6 km/h (1 Bft) 97,92 %
28.08.2017 22:46 16,5 C 23,9 C 92 % 1017,6 hPa 0,0 l/m 0,4 km/h (0 Bft) S-SW 199 0 min 0,000 mm 0,0 UV-I 0 W/m 15,2 C 16,5 C 1,6 km/h (1 Bft) 97,37 %
28.08.2017 22:48 16,4 C 23,9 C 92 % 1017,7 hPa 0,0 l/m 0,3 km/h (0 Bft) S-SW 199 0 min 0,000 mm 0,0 UV-I 0 W/m 15,1 C 16,4 C 1,6 km/h (1 Bft) 98,11 %
28.08.2017 22:50 16,3 C 23,9 C 92 % 1017,7 hPa 0,0 l/m 1,2 km/h (1 Bft) S-SW 199 0 min 0,000 mm 0,0 UV-I 0 W/m 15,0 C 16,3 C 3,2 km/h (1 Bft) 97,87 %
28.08.2017 22:52 16,3 C 23,9 C 92 % 1017,6 hPa 0,0 l/m 1,2 km/h (1 Bft) S-SW 199 0 min 0,000 mm 0,0 UV-I 0 W/m 15,0 C 16,3 C 3,2 km/h (1 Bft) 97,37 %
28.08.2017 22:54 16,4 C 23,9 C 92 % 1017,6 hPa 0,0 l/m 0,8 km/h (0 Bft) S-SW 199 0 min 0,000 mm 0,0 UV-I 0 W/m 15,1 C 16,4 C 3,2 km/h (1 Bft) 97,87 %
28.08.2017 22:56 16,4 C 23,9 C 92 % 1017,6 hPa 0,0 l/m 0,4 km/h (0 Bft) S-SW 199 0 min 0,000 mm 0,0 UV-I 0 W/m 15,1 C 16,4 C 1,6 km/h (1 Bft) 98,00 %
28.08.2017 22:58 16,4 C 23,9 C 92 % 1017,6 hPa 0,0 l/m 1,2 km/h (1 Bft) S-SW 199 0 min 0,000 mm 0,0 UV-I 0 W/m 15,1 C 16,4 C 3,2 km/h (1 Bft) 100,00 %
28.08.2017 23:00 16,4 C 23,9 C 92 % 1017,6 hPa 0,0 l/m 0,7 km/h (0 Bft) S-SW 199 0 min 0,000 mm 0,0 UV-I 0 W/m 15,1 C 16,4 C 1,6 km/h (1 Bft) 97,87 %
28.08.2017 23:02 16,4 C 23,9 C 93 % 1017,6 hPa 0,0 l/m 0,4 km/h (0 Bft) S-SW 199 0 min 0,000 mm 0,0 UV-I 0 W/m 15,3 C 16,4 C 1,6 km/h (1 Bft) 97,37 %
28.08.2017 23:04 16,4 C 23,9 C 93 % 1017,6 hPa 0,0 l/m 1,4 km/h (1 Bft) S-SW 199 0 min 0,000 mm 0,0 UV-I 0 W/m 15,3 C 16,4 C 3,2 km/h (1 Bft) 100,00 %
28.08.2017 23:06 16,4 C 23,9 C 92 % 1017,7 hPa 0,0 l/m 0,5 km/h (0 Bft) S-SW 199 0 min 0,000 mm 0,0 UV-I 0 W/m 15,1 C 16,4 C 1,6 km/h (1 Bft) 100,00 %
28.08.2017 23:08 16,3 C 23,9 C 92 % 1017,6 hPa 0,0 l/m 0,0 km/h (0 Bft) S-SW 199 0 min 0,000 mm 0,0 UV-I 0 W/m 15,0 C 16,3 C 0,0 km/h (0 Bft) 98,00 %
28.08.2017 23:10 16,3 C 23,9 C 93 % 1017,7 hPa 0,0 l/m 0,2 km/h (0 Bft) S-SW 199 0 min 0,000 mm 0,0 UV-I 0 W/m 15,2 C 16,3 C 1,6 km/h (1 Bft) 97,37 %
28.08.2017 23:12 16,2 C 23,9 C 93 % 1017,7 hPa 0,0 l/m 0,0 km/h (0 Bft) S-SW 199 0 min 0,000 mm 0,0 UV-I 0 W/m 15,1 C 16,2 C 1,6 km/h (1 Bft) 100,00 %
28.08.2017 23:14 16,2 C 23,9 C 93 % 1017,8 hPa 0,0 l/m 0,0 km/h (0 Bft) S-SW 199 0 min 0,000 mm 0,0 UV-I 0 W/m 15,1 C 16,2 C 0,0 km/h (0 Bft) 100,00 %
28.08.2017 23:16 16,2 C 23,9 C 93 % 1017,8 hPa 0,0 l/m 0,0 km/h (0 Bft) S-SW 199 0 min 0,000 mm 0,0 UV-I 0 W/m 15,1 C 16,2 C 0,0 km/h (0 Bft) 100,00 %
28.08.2017 23:18 16,2 C 23,9 C 93 % 1017,8 hPa 0,0 l/m 0,0 km/h (0 Bft) S-SW 199 0 min 0,000 mm 0,0 UV-I 0 W/m 15,1 C 16,2 C 0,0 km/h (0 Bft) 100,00 %
28.08.2017 23:20 16,1 C 23,9 C 93 % 1017,8 hPa 0,0 l/m 0,0 km/h (0 Bft) S-SW 199 0 min 0,000 mm 0,0 UV-I 0 W/m 15,0 C 16,1 C 0,0 km/h (0 Bft) 100,00 %
28.08.2017 23:22 16,1 C 23,9 C 93 % 1017,7 hPa 0,0 l/m 0,0 km/h (0 Bft) S-SW 199 0 min 0,000 mm 0,0 UV-I 0 W/m 15,0 C 16,1 C 0,0 km/h (0 Bft) 100,00 %
28.08.2017 23:24 16,0 C 23,9 C 93 % 1017,7 hPa 0,0 l/m 0,0 km/h (0 Bft) S-SW 199 0 min 0,000 mm 0,0 UV-I 0 W/m 14,9 C 16,0 C 0,0 km/h (0 Bft) 100,00 %
28.08.2017 23:26 16,0 C 23,9 C 93 % 1017,7 hPa 0,0 l/m 0,0 km/h (0 Bft) S-SW 199 0 min 0,000 mm 0,0 UV-I 0 W/m 14,9 C 16,0 C 0,0 km/h (0 Bft) 100,00 %
28.08.2017 23:28 16,0 C 23,9 C 94 % 1017,7 hPa 0,0 l/m 0,0 km/h (0 Bft) S-SW 199 0 min 0,000 mm 0,0 UV-I 0 W/m 15,0 C 16,0 C 0,0 km/h (0 Bft) 100,00 %
28.08.2017 23:30 16,1 C 23,9 C 94 % 1017,7 hPa 0,0 l/m 0,0 km/h (0 Bft) S-SW 199 0 min 0,000 mm 0,0 UV-I 0 W/m 15,1 C 16,1 C 0,0 km/h (0 Bft) 100,00 %
28.08.2017 23:32 16,1 C 23,9 C 94 % 1017,7 hPa 0,0 l/m 0,0 km/h (0 Bft) S-SW 199 0 min 0,000 mm 0,0 UV-I 0 W/m 15,1 C 16,1 C 0,0 km/h (0 Bft) 97,87 %
28.08.2017 23:34 16,1 C 23,9 C 93 % 1017,8 hPa 0,0 l/m 0,0 km/h (0 Bft) S-SW 199 0 min 0,000 mm 0,0 UV-I 0 W/m 15,0 C 16,1 C 0,0 km/h (0 Bft) 100,00 %
28.08.2017 23:36 16,0 C 23,9 C 93 % 1017,8 hPa 0,0 l/m 0,0 km/h (0 Bft) S-SW 199 0 min 0,000 mm 0,0 UV-I 0 W/m 14,9 C 16,0 C 0,0 km/h (0 Bft) 100,00 %
28.08.2017 23:38 15,9 C 23,9 C 93 % 1017,8 hPa 0,0 l/m 0,0 km/h (0 Bft) S-SW 199 0 min 0,000 mm 0,0 UV-I 0 W/m 14,8 C 15,9 C 0,0 km/h (0 Bft) 97,87 %
28.08.2017 23:40 15,9 C 23,9 C 94 % 1017,8 hPa 0,0 l/m 0,0 km/h (0 Bft) S-SW 199 0 min 0,000 mm 0,0 UV-I 0 W/m 14,9 C 15,9 C 0,0 km/h (0 Bft) 100,00 %
28.08.2017 23:42 15,8 C 23,9 C 93 % 1017,9 hPa 0,0 l/m 0,0 km/h (0 Bft) S-SW 199 0 min 0,000 mm 0,0 UV-I 0 W/m 14,7 C 15,8 C 0,0 km/h (0 Bft) 100,00 %
28.08.2017 23:44 15,8 C 23,9 C 94 % 1017,9 hPa 0,0 l/m 0,0 km/h (0 Bft) S-SW 199 0 min 0,000 mm 0,0 UV-I 0 W/m 14,8 C 15,8 C 0,0 km/h (0 Bft) 100,00 %
28.08.2017 23:46 15,7 C 23,9 C 94 % 1017,8 hPa 0,0 l/m 0,0 km/h (0 Bft) S-SW 199 0 min 0,000 mm 0,0 UV-I 0 W/m 14,7 C 15,7 C 0,0 km/h (0 Bft) 100,00 %
28.08.2017 23:48 15,7 C 23,9 C 94 % 1017,8 hPa 0,0 l/m 0,0 km/h (0 Bft) S-SW 199 0 min 0,000 mm 0,0 UV-I 0 W/m 14,7 C 15,7 C 0,0 km/h (0 Bft) 100,00 %
28.08.2017 23:50 15,8 C 23,9 C 94 % 1017,8 hPa 0,0 l/m 0,0 km/h (0 Bft) S-SW 199 0 min 0,000 mm 0,0 UV-I 0 W/m 14,8 C 15,8 C 0,0 km/h (0 Bft) 98,11 %
28.08.2017 23:52 15,8 C 23,9 C 94 % 1017,8 hPa 0,0 l/m 0,0 km/h (0 Bft) S-SW 199 0 min 0,000 mm 0,0 UV-I 0 W/m 14,8 C 15,8 C 0,0 km/h (0 Bft) 96,00 %
28.08.2017 23:54 15,7 C 23,9 C 94 % 1017,9 hPa 0,0 l/m 0,0 km/h (0 Bft) S-SW 199 0 min 0,000 mm 0,0 UV-I 0 W/m 14,7 C 15,7 C 0,0 km/h (0 Bft) 97,44 %
28.08.2017 23:56 15,7 C 23,9 C 94 % 1017,9 hPa 0,0 l/m 0,0 km/h (0 Bft) S-SW 199 0 min 0,000 mm 0,0 UV-I 0 W/m 14,7 C 15,7 C 0,0 km/h (0 Bft) 97,37 %
28.08.2017 23:58 15,7 C 23,9 C 94 % 1017,9 hPa 0,0 l/m 0,0 km/h (0 Bft) S-SW 199 0 min 0,000 mm 0,0 UV-I 0 W/m 14,7 C 15,7 C 0,0 km/h (0 Bft) 98,39 %
_ Min-Zeit 23:46 04:38 16:32 05:00 - 00:42 - - - - - - 23:42 23:46 00:42 04:02
Minimum _ 15,7 C 23,9 C 75 % 1015,8 hPa - 0,0 km/h (0 Bft) - - - - - - 14,7 C 15,7 C 0,0 km/h (0 Bft) 82,61 %
_ Max-Zeit 16:06 00:00 07:34 23:42 05:42 10:56 - - 08:23 11:02 11:46 10:48 15:56 16:06 10:34 00:02
Maximum _ 22,6 C 24,4 C 97 % 1017,9 hPa 3,4 l/m 12,2 km/h
O (2 Bft)
- - 3 min 0,254 mm 2,8 UV-I 659 W/m 19,2 C 22,6 C 17,7 km/h
NO (3 Bft)
100,00 %
Durchschnitt _ 19,0 C 24,0 C 88 % 1016,5 hPa #9,8 l/m 2,9 km/h (1 Bft) S-SW - #4:00 h #1,778 mm 1,4 UV-I 191 W/m 17,0 C 19,0 C 5,2 km/h (1 Bft) 98,16 %